Date StartTime U_cm/s V_cm/s W_cm/s Ustd_cm/s Vstd_cm/s Wstd_cm/s Uvar_(cm/s)^2 Vvar_(cm/s)^2 Wvar_(cm/s)^2 KE_(m/s)^2 TurbulentKE_(m/s)^2 HorizWindSpeed_cm/s FrictionSpeec_cm/s DragCoef SpeedOfSound_m/s SonicTemperature_C Pressure_mb 
01/20/2015  00:00:00      -94.108      -25.942      -16.048       15.538       10.265        8.856      241.427      105.367       78.437        0.511        0.021       97.618        5.593        0.003      333.919        3.550      866.490
01/20/2015  00:01:00      -96.429      -23.897      -15.077        7.896        8.941       10.090       62.347       79.935      101.802        0.517        0.012       99.346        1.471        0.000      333.863        3.457      866.491
01/20/2015  00:02:00      -95.875      -21.704      -14.109        8.957       10.670        7.385       80.230      113.851       54.539        0.506        0.012       98.301        5.886        0.004      333.820        3.386      866.490
01/20/2015  00:03:00      -98.363      -25.606      -13.743       10.774       14.268       10.246      116.076      203.582      104.976        0.547        0.021      101.641        7.948        0.006      333.844        3.426      866.492
01/20/2015  00:04:00     -105.638      -16.905      -12.625       19.725        8.764       13.077      389.079       76.810      171.020        0.612        0.032      106.982       10.547        0.010      333.850        3.436      866.507
01/20/2015  00:05:00     -106.670      -10.382      -18.860       13.052        9.735        9.547      170.349       94.764       91.137        0.610        0.018      107.174        7.763        0.005      333.867        3.464      866.506
01/20/2015  00:06:00      -95.990      -12.089      -13.794       13.358       12.301       10.535      178.440      151.316      110.989        0.500        0.022       96.749        5.769        0.004      333.878        3.482      866.507
01/20/2015  00:07:00      -87.995      -10.774       -9.610       12.253       10.654       11.617      150.143      113.518      134.966        0.418        0.020       88.652        6.985        0.006      333.883        3.491      866.506
01/20/2015  00:08:00      -98.000       -6.743      -18.103       13.939       15.684       11.672      194.307      245.977      136.240        0.528        0.029       98.232        2.714        0.001      333.890        3.502      866.509
01/20/2015  00:09:00     -101.520       -2.666      -16.829       17.903        9.854       14.437      320.515       97.108      208.426        0.561        0.031      101.555       11.092        0.012      333.880        3.485      866.513
01/20/2015  00:10:00      -99.075       -1.362      -15.632       18.497       14.023       13.831      342.155      196.631      191.283        0.540        0.037       99.084        4.484        0.002      333.830        3.402      866.506
01/20/2015  00:11:00      -67.139      -11.299      -11.093       11.289       13.577       11.119      127.450      184.343      123.641        0.260        0.022       68.083        9.142        0.018      333.883        3.490      866.499
01/20/2015  00:12:00      -70.040      -10.909      -14.363       11.593       15.461       12.130      134.404      239.039      147.134        0.288        0.026       70.885        4.940        0.005      333.864        3.460      866.484
01/20/2015  00:13:00      -70.512      -19.519      -12.765       11.061       11.149       11.360      122.354      124.295      129.044        0.295        0.019       73.164        8.150        0.012      333.912        3.539      866.472
01/20/2015  00:14:00      -53.612      -15.930       -6.923       10.177       12.212        8.014      103.579      149.128       64.222        0.175        0.016       55.929        4.709        0.007      333.827        3.397      866.456
01/20/2015  00:15:00      -46.124      -14.003      -11.382        9.881       10.872        9.433       97.636      118.205       88.977        0.138        0.015       48.202        5.985        0.015      333.870        3.470      866.451
01/20/2015  00:16:00      -48.942      -10.233      -13.535        7.592        9.322        6.578       57.634       86.908       43.266        0.144        0.009       50.001        5.510        0.012      333.955        3.611      866.441
01/20/2015  00:17:00      -35.308        5.370       -6.850        6.830        6.988        5.158       46.653       48.830       26.606        0.072        0.006       35.714        3.144        0.008      334.232        4.070      866.427
01/20/2015  00:18:00      -32.245       -0.099       -5.980        6.413        7.728        4.535       41.133       59.729       20.563        0.060        0.006       32.245        2.280        0.005      334.208        4.030      866.406
01/20/2015  00:19:00      -43.152       -8.126       -9.292        8.799       13.555        8.469       77.419      183.725       71.717        0.117        0.017       43.910        7.832        0.032      334.098        3.846      866.391
01/20/2015  00:20:00      -26.953      -19.801      -14.314       16.618       10.785        7.649      276.167      116.318       58.509        0.089        0.023       33.444        3.956        0.014      334.159        3.949      866.387
01/20/2015  00:21:00      -23.597      -16.777      -11.808       13.082       10.754       10.839      171.145      115.650      117.485        0.069        0.020       28.953        7.724        0.071      334.083        3.822      866.379
01/20/2015  00:22:00      -11.223       -3.799       -2.661       10.884        9.669        7.656      118.452       93.496       58.618        0.021        0.014       11.848        7.008        0.350      334.220        4.050      866.359
01/20/2015  00:23:00      -15.131       -3.726        5.083        9.128        7.302        5.160       83.321       53.325       26.625        0.022        0.008       15.583        4.569        0.086      334.191        4.002      866.345
01/20/2015  00:24:00      -23.895       -1.729       -0.879       11.277       12.341        4.769      127.178      152.304       22.742        0.044        0.015       23.957        4.531        0.036      334.298        4.180      866.327
01/20/2015  00:25:00      -50.639      -24.248       -5.238        9.364        9.037        7.603       87.680       81.665       57.808        0.170        0.011       56.146        5.076        0.008      333.785        3.328      866.319
01/20/2015  00:26:00      -54.906      -26.975      -10.949       14.785       12.667        9.825      218.587      160.461       96.528        0.217        0.024       61.174        7.312        0.014      333.795        3.345      866.320
01/20/2015  00:27:00      -94.641      -14.184      -14.762       14.976        9.489        9.853      224.276       90.044       97.079        0.489        0.021       95.698        3.653        0.001      333.683        3.159      866.324
01/20/2015  00:28:00      -93.725      -26.103      -12.789       11.608       14.388       11.098      134.746      207.023      123.173        0.505        0.023       97.292       10.965        0.013      333.661        3.122      866.325
01/20/2015  00:29:00      -92.419      -26.011      -15.414       18.689       15.829       12.768      349.290      250.563      163.026        0.511        0.038       96.010       10.918        0.013      333.675        3.146      866.314
01/20/2015  00:30:00      -88.536      -26.232      -11.603       17.925       21.518       14.556      321.289      463.029      211.888        0.483        0.050       92.341        7.132        0.006      333.681        3.154      866.303
01/20/2015  00:31:00      -89.172      -44.075       -8.567       20.781       14.662       12.712      431.856      214.980      161.599        0.539        0.040       99.470        7.932        0.006      333.674        3.143      866.288
01/20/2015  00:32:00     -110.474      -48.828      -16.682       16.755       14.414       11.302      280.716      207.754      127.744        0.774        0.031      120.783        5.901        0.002      333.620        3.056      866.280
01/20/2015  00:33:00      -97.177      -54.037       -8.074       22.654       26.353       15.394      513.189      694.502      236.984        0.694        0.072      111.191       12.932        0.014      333.661        3.123      866.274
01/20/2015  00:34:00     -127.023      -51.058      -16.121       18.814       18.588       11.457      353.985      345.530      131.260        0.992        0.042      136.901        9.153        0.004      333.698        3.183      866.276
01/20/2015  00:35:00     -106.250      -40.720       -4.009       26.157       20.695       19.374      684.206      428.265      375.360        0.723        0.074      113.785       15.970        0.020      333.755        3.277      866.271
01/20/2015  00:36:00     -102.734      -46.141       -1.387       16.496       23.188       14.077      272.132      537.686      198.156        0.685        0.050      112.620        9.291        0.007      333.745        3.261      866.270
01/20/2015  00:37:00      -73.162      -37.564        3.170       21.410       19.490       14.956      458.392      379.870      223.682        0.392        0.053       82.242       14.100        0.029      333.712        3.206      866.267
01/20/2015  00:38:00     -103.510      -30.288       -7.232       25.909       20.659       14.030      671.297      426.808      196.847        0.649        0.065      107.850       11.523        0.011      333.779        3.317      866.273
01/20/2015  00:39:00     -117.138      -47.083       -4.314       19.630       17.812       13.028      385.322      317.278      169.731        0.841        0.044      126.246       10.977        0.008      333.742        3.257      866.266
01/20/2015  00:40:00     -120.097      -51.272       -0.276       36.236       26.908       21.043     1313.071      724.039      442.821        0.977        0.124      130.584       23.370        0.032      333.671        3.139      866.261
01/20/2015  00:41:00     -122.772      -48.144       -5.941       33.577       25.940       19.320     1127.404      672.869      373.278        0.980        0.109      131.874       19.960        0.023      333.683        3.160      866.251
01/20/2015  00:42:00      -96.858      -52.380       -5.779       28.205       19.053       13.742      795.498      363.014      188.850        0.675        0.067      110.114       10.309        0.009      333.726        3.229      866.237
01/20/2015  00:43:00      -69.861      -35.949        1.310       32.038       22.685       19.514     1026.407      514.624      380.786        0.405        0.096       78.568       20.878        0.071      333.737        3.248      866.220
01/20/2015  00:44:00      -95.719      -59.606       -0.260       23.734       21.331       16.127      563.319      455.015      260.084        0.700        0.064      112.761       13.409        0.014      333.731        3.237      866.210
01/20/2015  00:45:00      -82.794      -49.220       -1.016       18.008       12.430       11.511      324.288      154.499      132.514        0.494        0.031       96.320        8.164        0.007      333.725        3.227      866.195
01/20/2015  00:46:00      -73.770      -49.676       -1.606       23.288       18.059       16.690      542.334      326.132      278.541        0.453        0.057       88.937       15.542        0.031      333.682        3.157      866.191
01/20/2015  00:47:00      -78.664      -59.833       -0.134       25.008       14.916       14.266      625.412      222.496      203.533        0.541        0.053       98.833        8.651        0.008      333.727        3.232      866.181
01/20/2015  00:48:00     -104.332      -69.842        1.069       38.430       29.562       21.502     1476.876      873.890      462.349        0.929        0.141      125.551       23.073        0.034      333.627        3.066      866.173
01/20/2015  00:49:00      -80.884      -72.232       -2.784       44.008       34.639       21.353     1936.730     1199.879      455.930        0.768        0.180      108.442       12.572        0.013      333.617        3.050      866.168
01/20/2015  00:50:00      -83.136      -66.522       -1.948       36.428       29.754       17.957     1326.992      885.279      322.457        0.694        0.127      106.475       14.760        0.019      333.563        2.959      866.162
01/20/2015  00:51:00     -121.838      -56.500       -3.153       34.902       23.484       21.106     1218.134      551.486      445.474        1.013        0.111      134.301       21.033        0.025      333.578        2.984      866.152
01/20/2015  00:52:00     -112.652      -42.270       -5.153       35.693       29.029       21.163     1274.002      842.655      447.877        0.853        0.128      120.322       20.038        0.028      333.602        3.024      866.149
01/20/2015  00:53:00      -84.578      -45.048        2.482       26.790       23.923       15.734      717.726      572.286      247.569        0.536        0.077       95.827       15.966        0.028      333.609        3.036      866.148
01/20/2015  00:54:00     -103.427      -49.840      -10.584       24.671       21.882       15.076      608.667      478.804      227.299        0.730        0.066      114.809       10.024        0.008      333.608        3.034      866.140
01/20/2015  00:55:00      -76.713      -51.349        2.512       36.883       21.700       18.803     1360.362      470.894      353.564        0.536        0.109       92.312       18.805        0.041      333.511        2.874      866.125
01/20/2015  00:56:00      -48.234      -53.321       -8.993       24.616       22.800       15.231      605.937      519.851      231.998        0.330        0.068       71.900        9.842        0.019      333.524        2.894      866.103
01/20/2015  00:57:00      -55.386      -19.997       -4.905       26.219       15.009       12.811      687.455      225.273      164.124        0.228        0.054       58.885       10.638        0.033      333.585        2.995      866.090
01/20/2015  00:58:00      -76.265      -53.474       -9.520       17.686       20.177       11.917      312.809      407.122      142.023        0.481        0.043       93.144        6.723        0.005      333.543        2.926      866.084
01/20/2015  00:59:00      -51.824      -54.159       -5.163       38.527       22.422       19.175     1484.323      502.768      367.696        0.400        0.118       74.960       14.804        0.039      333.548        2.933      866.075
01/20/2015  01:00:00      -56.526      -38.982       -7.694       38.464       20.746       16.900     1479.456      430.398      285.608        0.348        0.110       68.664       19.117        0.078      333.612        3.041      866.059
01/20/2015  01:01:00       -3.617      -24.023       21.397       21.356       24.960       19.502      456.060      622.992      380.330        0.125        0.073       24.294       13.596        0.313      333.561        2.957      866.044
01/20/2015  01:02:00      -53.712      -30.998        3.281       35.434       23.146       19.572     1255.539      535.741      383.066        0.302        0.109       62.015       21.029        0.115      333.551        2.938      866.031
01/20/2015  01:03:00      -95.480      -54.404       -7.752       22.615       17.264       16.616      511.457      298.042      276.075        0.661        0.054      109.892       11.589        0.011      333.564        2.961      866.040
01/20/2015  01:04:00      -97.100      -64.075        0.868       34.673       22.074       23.232     1202.220      487.244      539.723        0.788        0.111      116.336       21.658        0.035      333.598        3.018      866.031
01/20/2015  01:05:00      -80.998      -45.694       -3.335       29.008       18.404       19.284      841.464      338.721      371.854        0.511        0.078       92.998       12.967        0.019      333.587        2.998      866.017
01/20/2015  01:06:00      -94.433      -52.330       -7.659       27.219       17.578       13.451      740.870      308.993      180.922        0.647        0.062      107.963       14.145        0.017      333.595        3.013      865.999
01/20/2015  01:07:00      -70.845      -47.913       -3.787       33.687       19.756       18.618     1134.808      390.316      346.635        0.460        0.094       85.526       15.593        0.033      333.658        3.118      865.987
01/20/2015  01:08:00      -77.533      -38.948       -7.268       21.476       18.736       14.901      461.232      351.052      222.032        0.431        0.052       86.766       11.000        0.016      333.652        3.106      865.979
01/20/2015  01:09:00     -102.316      -54.780       -5.799       22.492       24.166       16.396      505.883      583.984      268.835        0.743        0.068      116.058        9.232        0.006      333.551        2.938      865.967
01/20/2015  01:10:00      -98.068      -59.127        0.556       40.602       32.398       23.091     1648.560     1049.602      533.214        0.817        0.162      114.514       21.674        0.036      333.527        2.900      865.945
01/20/2015  01:11:00     -111.767      -57.072        1.711       36.835       27.836       24.291     1356.828      774.817      590.072        0.924        0.136      125.495       19.856        0.025      333.511        2.872      865.928
01/20/2015  01:12:00     -115.311      -63.931       -3.245       29.028       20.124       16.947      842.644      404.976      287.195        0.946        0.077      131.848       12.381        0.009      333.536        2.913      865.920
01/20/2015  01:13:00      -72.283      -50.623        5.304       40.747       24.385       22.582     1660.300      594.620      509.937        0.529        0.138       88.247       23.369        0.070      333.553        2.942      865.922
01/20/2015  01:14:00      -70.394      -41.626       -2.101       24.121       20.614       17.285      581.835      424.932      298.767        0.400        0.065       81.780       12.919        0.025      333.564        2.962      865.922
01/20/2015  01:15:00      -70.382      -44.429       -4.615       28.573       17.291       15.416      816.437      298.962      237.652        0.415        0.068       83.231        9.212        0.012      333.592        3.007      865.919
01/20/2015  01:16:00      -82.238      -43.719       -2.575       22.083       23.586       12.894      487.642      556.322      166.261        0.495        0.061       93.137        9.234        0.010      333.563        2.960      865.912
01/20/2015  01:17:00      -75.258      -42.919       -2.379       23.051       22.202       12.659      531.357      492.939      160.246        0.435        0.059       86.636        8.692        0.010      333.626        3.064      865.907
01/20/2015  01:18:00      -72.901      -15.517       -4.815       25.719       17.181       14.378      661.446      295.202      206.736        0.337        0.058       74.535       13.707        0.034      333.604        3.026      865.903
01/20/2015  01:19:00      -76.988      -29.484       -2.315       28.044       19.351       14.158      786.439      374.456      200.443        0.408        0.068       82.440       14.006        0.029      333.579        2.986      865.905
01/20/2015  01:20:00      -87.801      -38.167       -6.396       19.482       20.268       10.993      379.538      410.778      120.850        0.506        0.046       95.738       10.084        0.011      333.539        2.920      865.911
01/20/2015  01:21:00      -90.944      -52.704        0.521       26.709       21.407       18.465      713.370      458.271      340.973        0.628        0.076      105.112       16.545        0.025      333.518        2.884      865.919
01/20/2015  01:22:00      -75.815      -49.731       -1.602       38.027       29.333       20.124     1446.049      860.421      404.989        0.547        0.136       90.670       21.005        0.054      333.514        2.877      865.928
01/20/2015  01:23:00      -84.616      -56.753       -6.367       38.587       25.335       18.246     1488.947      641.882      332.924        0.644        0.123      101.886       15.657        0.024      333.556        2.948      865.929
01/20/2015  01:24:00     -106.152      -87.017      -10.783       27.666       29.050       21.073      765.401      843.895      444.070        1.050        0.103      137.260       13.951        0.010      333.541        2.922      865.929
01/20/2015  01:25:00     -112.501      -60.218       -3.463       27.481       23.862       18.196      755.217      569.391      331.088        0.897        0.083      127.604       14.416        0.013      333.504        2.860      865.928
01/20/2015  01:26:00     -119.813      -25.054       -6.431       34.782       30.025       24.050     1209.811      901.503      578.408        0.886        0.134      122.405       20.266        0.027      333.545        2.929      865.928
01/20/2015  01:27:00     -118.501      -42.360        3.215       32.712       23.812       20.055     1070.088      567.018      402.186        0.894        0.102      125.844       19.406        0.024      333.492        2.842      865.926
01/20/2015  01:28:00     -111.334      -52.152       -5.345       21.806       25.214       17.593      475.484      635.726      309.530        0.828        0.071      122.944       12.910        0.011      333.517        2.881      865.930
01/20/2015  01:29:00     -122.627      -40.507       -8.419       29.800       18.935       17.293      888.046      358.546      299.057        0.915        0.077      129.144       16.504        0.016      333.482        2.825      865.928
01/20/2015  01:30:00     -103.652      -50.193      -10.619       27.273       19.682       20.461      743.811      387.397      418.656        0.746        0.077      115.166       19.312        0.028      333.421        2.724      865.925
01/20/2015  01:31:00      -93.363      -44.022       -5.638       23.684       17.863       13.321      560.920      319.078      177.447        0.587        0.053      103.221        9.957        0.009      333.452        2.775      865.918
01/20/2015  01:32:00      -82.922      -37.442       -5.479       22.053       16.029       12.858      486.327      256.917      165.339        0.461        0.045       90.983        9.642        0.011      333.459        2.787      865.911
01/20/2015  01:33:00      -79.045      -31.649      -15.226       19.755       16.051       14.582      390.244      257.634      212.640        0.417        0.043       85.146        9.586        0.013      333.450        2.771      865.906
01/20/2015  01:34:00      -74.250      -43.410       -7.699       28.447       22.858       20.806      809.253      522.466      432.891        0.461        0.088       86.008       19.462        0.051      333.448        2.768      865.910
01/20/2015  01:35:00      -73.989      -35.915      -16.617       21.728       12.007        8.887      472.116      144.159       78.975        0.387        0.035       82.245        8.227        0.010      333.382        2.662      865.893
01/20/2015  01:36:00      -39.736      -46.580      -12.899       23.496       23.210       19.137      552.085      538.726      366.231        0.269        0.073       61.226        5.813        0.009      333.431        2.741      865.880
01/20/2015  01:37:00      -73.613      -36.925      -17.291       15.904       14.339       14.562      252.947      205.602      212.047        0.388        0.034       82.355       10.695        0.017      333.407        2.701      865.873
01/20/2015  01:38:00      -88.636      -27.808      -14.969       13.518       12.630       11.157      182.740      159.529      124.468        0.466        0.023       92.896        5.083        0.003      333.406        2.699      865.868
01/20/2015  01:39:00     -101.164      -18.525      -10.218       13.979       10.880       11.505      195.416      118.377      132.365        0.556        0.022      102.847        8.431        0.007      333.387        2.668      865.872
01/20/2015  01:40:00     -102.744      -25.271      -15.122       13.304       12.718       13.586      176.992      161.738      184.586        0.597        0.026      105.806        7.447        0.005      333.394        2.678      865.880
01/20/2015  01:41:00     -119.427      -20.402      -20.151       14.444       14.949        8.238      208.616      223.461       67.859        0.779        0.025      121.157        4.765        0.002      333.388        2.670      865.888
01/20/2015  01:42:00      -96.234       -9.692      -13.852       13.859       11.618       11.363      192.084      134.975      129.122        0.500        0.023       96.721        7.745        0.006      333.311        2.541      865.910
01/20/2015  01:43:00      -88.814      -19.876      -13.580       26.003       17.048       12.363      676.168      290.627      152.856        0.479        0.056       91.011       10.738        0.014      333.314        2.547      865.922
01/20/2015  01:44:00     -105.313      -21.629      -20.289       16.669       13.156        9.088      277.864      173.089       82.587        0.625        0.027      107.511        6.830        0.004      333.300        2.524      865.936
01/20/2015  01:45:00      -82.901      -18.216      -18.592       16.785       13.172       11.499      281.738      173.507      132.217        0.407        0.029       84.879        6.087        0.005      333.364        2.628      865.954
01/20/2015  01:46:00      -50.391      -46.736       -9.568       21.294       18.697       18.057      453.434      349.560      326.039        0.297        0.056       68.727       15.071        0.048      333.426        2.733      865.968
01/20/2015  01:47:00      -79.568      -40.624       -9.815       27.375       26.625       17.160      749.373      708.887      294.474        0.491        0.088       89.339       14.482        0.026      333.341        2.591      865.981
01/20/2015  01:48:00      -76.189      -33.145       -8.145       22.319       33.059       25.442      498.136     1092.886      647.282        0.460        0.112       83.087       21.425        0.066      333.373        2.645      865.994
01/20/2015  01:49:00      -67.062      -32.625      -18.343       25.979       19.619       15.425      674.902      384.890      237.932        0.360        0.065       74.577       14.539        0.038      333.363        2.629      866.005
01/20/2015  01:50:00      -45.649      -48.507      -14.797       22.507       16.248       14.916      506.562      263.985      222.481        0.282        0.050       66.609       12.463        0.035      333.367        2.636      866.007
01/20/2015  01:51:00      -48.787      -35.854      -15.218       13.571       18.757       10.802      184.159      351.830      116.673        0.227        0.033       60.545        7.433        0.015      333.378        2.655      866.009
01/20/2015  01:52:00      -71.796      -30.746      -16.002       15.552       20.011       15.523      241.870      400.445      240.948        0.362        0.044       78.102        9.291        0.014      333.413        2.711      866.001
01/20/2015  01:53:00      -85.893      -24.666      -16.008       17.708       11.526       11.932      313.582      132.857      142.366        0.442        0.029       89.365        6.682        0.006      333.354        2.615      865.995
01/20/2015  01:54:00      -99.144      -29.346      -15.393       10.198        9.417        8.447      103.994       88.684       71.349        0.560        0.013      103.396        4.675        0.002      333.350        2.609      865.987
01/20/2015  01:55:00      -97.474      -16.361      -14.953       18.789       10.051       10.582      353.015      101.024      111.978        0.528        0.028       98.837        8.938        0.008      333.381        2.658      865.984
01/20/2015  01:56:00      -88.432      -16.207      -12.448       15.796       18.011       13.396      249.512      324.411      179.449        0.450        0.038       89.905        6.561        0.005      333.363        2.627      865.978
01/20/2015  01:57:00     -118.992      -13.303      -16.913       24.947       13.353       12.046      622.367      178.291      145.108        0.778        0.047      119.733       11.766        0.010      333.297        2.520      865.970
01/20/2015  01:58:00      -82.323      -32.632       -7.718       21.587       20.286       16.101      465.988      411.531      259.229        0.452        0.057       88.555       13.977        0.025      333.161        2.294      865.961
01/20/2015  01:59:00      -71.700      -44.634      -10.254       24.439       17.276       12.185      597.263      298.459      148.463        0.414        0.052       84.458       10.689        0.016      333.245        2.432      865.954
01/20/2015  02:00:00      -91.005      -31.180      -14.498       26.767       19.167       16.788      716.469      367.367      281.826        0.541        0.068       96.198       13.483        0.020      333.250        2.442      865.933
01/20/2015  02:01:00      -55.838      -37.336       -5.576       28.588       31.338       15.008      817.261      982.067      225.236        0.328        0.101       67.171       15.735        0.055      333.289        2.507      865.925
01/20/2015  02:02:00      -58.082      -37.302      -11.351       25.661       17.758       16.767      658.468      315.351      281.137        0.307        0.063       69.028       10.643        0.024      333.298        2.521      865.913
01/20/2015  02:03:00      -52.438      -44.299       -1.923       30.883       18.719       16.056      953.778      350.409      257.783        0.314        0.078       68.645       14.053        0.042      333.287        2.502      865.906
01/20/2015  02:04:00     -100.565      -33.353       -8.698       15.393       16.621       12.548      236.930      276.263      157.452        0.599        0.034      105.952        9.841        0.009      333.335        2.583      865.903
01/20/2015  02:05:00      -94.656      -35.075      -12.465       16.160        8.795       10.303      261.130       77.350      106.155        0.539        0.022      100.946        9.607        0.009      333.324        2.564      865.910
01/20/2015  02:06:00     -103.738      -36.584       -8.383       12.135       17.234        9.173      147.265      297.013       84.144        0.635        0.026      110.000        6.048        0.003      333.330        2.575      865.922
01/20/2015  02:07:00     -118.164      -21.490      -10.590       17.572       13.255        8.791      308.788      175.683       77.289        0.755        0.028      120.103        5.222        0.002      333.302        2.527      865.918
01/20/2015  02:08:00     -103.249      -23.674       -9.903       16.098       13.512       11.672      259.132      182.571      136.239        0.595        0.029      105.929       10.980        0.011      333.300        2.524      865.905
01/20/2015  02:09:00      -97.582      -27.281       -8.820       12.090       15.161       11.252      146.162      229.868      126.611        0.542        0.025      101.324        7.429        0.005      333.307        2.536      865.900
01/20/2015  02:10:00      -91.792      -24.133      -11.915        8.114       10.321        6.813       65.829      106.516       46.410        0.468        0.011       94.911        3.556        0.001      333.252        2.445      865.899
01/20/2015  02:11:00     -100.242      -28.808      -12.293       11.366       11.990       10.542      129.188      143.754      111.137        0.571        0.019      104.300        3.799        0.001      333.235        2.417      865.896
01/20/2015  02:12:00     -104.229      -32.783      -12.882       14.665       13.368       12.770      215.055      178.699      163.073        0.633        0.028      109.263        6.809        0.004      333.244        2.432      865.888
01/20/2015  02:13:00     -102.334      -33.233      -12.969       29.312       15.404       12.782      859.194      237.284      163.376        0.650        0.063      107.595       10.745        0.010      333.207        2.370      865.894
01/20/2015  02:14:00      -69.969      -42.971       -7.435       26.100       22.288       15.787      681.214      496.744      249.232        0.411        0.071       82.111        9.725        0.014      333.154        2.284      865.904
01/20/2015  02:15:00      -85.313       -8.431      -11.187       23.982       18.892       12.966      575.117      356.912      168.118        0.429        0.055       85.729        3.416        0.002      333.125        2.235      865.918
01/20/2015  02:16:00      -92.615      -11.383       -6.215       27.233       17.322       14.177      741.650      300.049      200.983        0.499        0.062       93.312       10.440        0.013      333.127        2.237      865.943
01/20/2015  02:17:00      -80.911      -36.063      -12.285       21.298       18.920       16.034      453.613      357.949      257.075        0.453        0.053       88.584       12.704        0.021      333.147        2.272      865.961
01/20/2015  02:18:00      -79.715      -22.743      -13.891       10.216       16.328        9.898      104.364      266.592       97.969        0.377        0.023       82.896        4.085        0.002      333.131        2.245      865.970
01/20/2015  02:19:00      -70.030      -25.034       -9.282       17.201       11.660       11.555      295.875      135.963      133.521        0.309        0.028       74.370        6.285        0.007      333.165        2.301      865.976
01/20/2015  02:20:00      -87.637      -30.124      -10.845       14.533       14.432       11.585      211.221      208.270      134.211        0.463        0.028       92.670        7.455        0.006      333.176        2.319      865.978
01/20/2015  02:21:00      -82.373      -21.359      -16.950       11.037       10.374        8.186      121.810      107.613       67.003        0.391        0.015       85.097        4.766        0.003      333.273        2.479      865.994
01/20/2015  02:22:00      -73.989      -21.668      -10.160        9.985       24.128       16.596       99.694      582.182      275.426        0.350        0.048       77.097       12.823        0.028      333.263        2.463      866.007
01/20/2015  02:23:00      -68.677      -15.503       -9.754       11.715       14.071        8.280      137.234      197.985       68.558        0.273        0.020       70.405        6.033        0.007      333.248        2.436      866.011
01/20/2015  02:24:00      -83.262       -3.793      -10.202       13.483       11.661        8.614      181.803      135.989       74.193        0.372        0.020       83.348        4.475        0.003      333.341        2.592      866.008
01/20/2015  02:25:00      -62.495      -20.649      -10.807       17.472       16.198       11.360      305.269      262.380      129.039        0.257        0.035       65.818        9.918        0.023      333.261        2.460      865.998
01/20/2015  02:26:00      -69.240       -7.304       -9.300       13.990       20.528       13.985      195.725      421.415      195.569        0.287        0.041       69.624        9.040        0.017      333.345        2.598      865.984
01/20/2015  02:27:00      -81.761      -22.774       -8.515       11.218       15.258        9.357      125.838      232.800       87.561        0.386        0.022       84.873        4.894        0.003      333.263        2.463      865.963
01/20/2015  02:28:00      -73.635      -18.551      -13.233       18.173       11.518        9.957      330.260      132.674       99.152        0.325        0.028       75.936        6.247        0.007      333.108        2.207      865.960
01/20/2015  02:29:00      -68.913      -20.067      -14.881        9.199       10.843        7.157       84.620      117.580       51.224        0.281        0.013       71.775        6.107        0.007      333.036        2.090      865.958
01/20/2015  02:30:00      -82.767      -23.460      -14.031       11.649       16.099        9.524      135.702      259.168       90.712        0.404        0.024       86.028        5.686        0.004      333.113        2.214      865.975
01/20/2015  02:31:00      -92.253      -25.325       -6.654       16.370       14.595        8.920      267.977      213.019       79.565        0.488        0.028       95.666        6.379        0.004      333.153        2.281      865.978
01/20/2015  02:32:00      -87.296      -27.361       -7.586       24.002       12.793       10.924      576.077      163.665      119.327        0.464        0.043       91.484       12.328        0.018      333.185        2.335      865.985
01/20/2015  02:33:00      -86.828      -22.727      -11.663       17.881       15.819       13.201      319.730      250.236      174.267        0.447        0.037       89.753        9.453        0.011      333.242        2.427      865.982
01/20/2015  02:34:00      -80.474      -27.257      -10.636       17.460       16.520       13.773      304.859      272.908      189.703        0.405        0.038       84.964       10.461        0.015      333.196        2.353      865.988
01/20/2015  02:35:00      -78.950      -33.448       -9.248       13.877       16.253       11.915      192.568      264.164      141.957        0.402        0.030       85.743        9.226        0.012      333.202        2.363      865.989
01/20/2015  02:36:00      -57.610      -35.602      -15.042       17.963       17.984       14.941      322.670      323.436      223.222        0.284        0.043       67.723       11.372        0.028      333.189        2.340      865.993
01/20/2015  02:37:00      -42.921      -38.667       -3.229       19.536       12.988       16.467      381.670      168.684      271.162        0.208        0.041       57.770       11.429        0.039      333.155        2.285      865.993
01/20/2015  02:38:00      -39.946      -28.820       -4.511       24.478       14.732       14.076      599.155      217.022      198.127        0.173        0.051       49.257       10.620        0.046      333.222        2.394      865.991
01/20/2015  02:39:00      -96.072      -46.162      -12.138       14.796       11.676       10.390      218.928      136.322      107.945        0.599        0.023      106.587        9.114        0.007      333.143        2.264      866.000
01/20/2015  02:40:00     -100.453      -31.002      -12.952        9.142       10.882        6.925       83.572      118.427       47.950        0.573        0.012      105.128        2.972        0.001      333.181        2.327      866.005
01/20/2015  02:41:00      -89.402      -39.797      -11.786       19.846       11.953       10.098      393.870      142.878      101.968        0.518        0.032       97.860        4.197        0.002      333.213        2.379      866.014
01/20/2015  02:42:00      -29.043      -34.468        3.595       33.861       21.574       20.479     1146.562      465.447      419.407        0.204        0.102       45.073       15.497        0.118      333.161        2.293      866.016
01/20/2015  02:43:00      -57.985      -63.432        9.849       53.532       28.057       24.495     2865.627      787.173      600.029        0.587        0.213       85.941       27.401        0.102      333.124        2.233      866.021
01/20/2015  02:44:00     -111.404      -72.709      -14.249       19.864       26.319       19.483      394.589      692.693      379.604        0.968        0.073      133.032        7.632        0.003      333.174        2.314      866.010
01/20/2015  02:45:00     -101.558      -83.537       -3.461       35.043       28.326       17.929     1228.006      802.342      321.451        0.983        0.118      131.501        8.605        0.004      333.166        2.302      866.011
01/20/2015  02:46:00     -120.571      -62.661      -15.528       27.245       24.238       21.672      742.301      587.504      469.673        1.025        0.090      135.882       11.656        0.007      333.157        2.288      866.000
01/20/2015  02:47:00     -110.845      -79.415      -16.349       52.295       33.523       25.032     2734.813     1123.802      626.622        1.167        0.224      136.358       22.189        0.026      333.090        2.179      865.993
01/20/2015  02:48:00     -135.914     -105.202       -9.069       50.377       48.959       28.413     2537.870     2396.993      807.287        1.768        0.287      171.872       25.007        0.021      333.037        2.087      865.981
01/20/2015  02:49:00     -127.802     -103.481      -10.336       40.056       34.918       28.433     1604.477     1219.233      808.441        1.539        0.182      164.444       19.194        0.014      333.021        2.062      865.966
01/20/2015  02:50:00      -97.220      -92.746       -6.884       31.356       42.776       18.551      983.180     1829.766      344.126        1.063        0.158      134.364       15.870        0.014      333.049        2.112      865.942
01/20/2015  02:51:00      -89.381      -68.615        0.526       46.157       24.963       25.594     2130.455      623.165      655.038        0.805        0.170      112.681       28.208        0.063      333.052        2.114      865.924
01/20/2015  02:52:00     -106.927      -71.826       -3.749       32.611       30.797       15.525     1063.472      948.477      241.011        0.943        0.113      128.811        9.057        0.005      333.084        2.166      865.910
01/20/2015  02:53:00      -67.191      -38.051        9.735       42.684       30.705       16.641     1821.928      942.786      276.917        0.455        0.152       77.218       19.813        0.066      333.095        2.186      865.901
01/20/2015  02:54:00      -91.477      -47.688        0.618       34.106       34.050       22.284     1163.226     1159.425      496.578        0.673        0.141      103.161       19.371        0.035      333.076        2.154      865.892
01/20/2015  02:55:00      -97.280      -55.156       -5.763       32.489       25.712       17.914     1055.533      661.111      320.905        0.729        0.102      111.828       13.423        0.014      333.085        2.169      865.881
01/20/2015  02:56:00     -106.231      -53.738       -4.340       43.164       30.145       18.756     1863.157      908.707      351.785        0.866        0.156      119.050       17.069        0.021      333.087        2.174      865.867
01/20/2015  02:57:00     -121.208      -44.858       -7.827       19.326       23.023       14.727      373.507      530.078      216.875        0.894        0.056      129.242        9.795        0.006      333.062        2.132      865.850
01/20/2015  02:58:00     -117.272      -38.301       -5.469       21.480       16.046       13.252      461.395      257.468      175.619        0.807        0.045      123.368        7.728        0.004      333.094        2.185      865.836
01/20/2015  02:59:00      -89.578      -31.985       -2.564       22.216       17.515       12.972      493.570      306.762      168.271        0.501        0.048       95.117       10.154        0.011      333.126        2.235      865.837
01/20/2015  03:00:00      -86.074      -34.513       -1.918       15.820       19.061       12.433      250.258      363.308      154.587        0.469        0.038       92.735        8.770        0.009      333.087        2.173      865.836
01/20/2015  03:01:00      -91.245      -28.317       -9.642       12.404       11.932        8.906      153.858      142.368       79.313        0.480        0.019       95.538        2.128        0.000      333.076        2.155      865.833
01/20/2015  03:02:00      -85.911      -29.941       -9.866       15.143       14.829       10.503      229.310      219.904      110.309        0.447        0.028       90.979        6.359        0.005      333.075        2.152      865.821
01/20/2015  03:03:00      -71.349      -33.401       -7.514       14.177       12.013       10.661      200.991      144.315      113.655        0.336        0.023       78.780        6.442        0.007      333.111        2.211      865.806
01/20/2015  03:04:00      -76.649      -32.459      -14.177       13.434       12.000       10.950      180.460      144.005      119.911        0.379        0.022       83.239        8.485        0.010      333.126        2.236      865.804
01/20/2015  03:05:00      -49.334      -45.532      -10.439       14.334       12.391       13.323      205.452      153.529      177.489        0.258        0.027       67.135        6.809        0.010      333.219        2.390      865.809
01/20/2015  03:06:00      -68.214      -42.060      -11.430       12.047       11.835       10.858      145.125      140.075      117.890        0.348        0.020       80.139        7.508        0.009      333.170        2.309      865.811
01/20/2015  03:07:00      -83.108      -37.222       -7.007       10.113       10.151        7.753      102.280      103.053       60.114        0.430        0.013       91.063        3.542        0.002      333.095        2.186      865.819
01/20/2015  03:08:00      -75.570      -36.507       -4.123        9.327       11.086        6.542       86.991      122.896       42.801        0.366        0.013       83.926        5.005        0.004      333.133        2.248      865.813
01/20/2015  03:09:00      -84.109      -31.689       -5.611       15.802       12.093        9.931      249.717      146.230       98.617        0.430        0.025       89.880        6.235        0.005      333.161        2.294      865.809
01/20/2015  03:10:00      -82.589      -30.819       -5.773       14.096       18.753       10.105      198.705      351.692      102.107        0.423        0.033       88.152        6.262        0.005      333.181        2.326      865.796
01/20/2015  03:11:00      -77.954      -31.381      -11.389        8.589        8.202        7.057       73.779       67.269       49.800        0.369        0.010       84.033        4.752        0.003      333.187        2.336      865.789
01/20/2015  03:12:00      -93.652      -43.456      -13.259        8.260        8.679        7.860       68.230       75.332       61.784        0.552        0.010      103.243        3.804        0.001      333.172        2.310      865.779
01/20/2015  03:13:00      -98.564      -38.405      -11.379        8.010        8.657        7.650       64.165       74.937       58.528        0.576        0.010      105.782        5.594        0.003      333.184        2.331      865.774
01/20/2015  03:14:00     -101.740      -43.890       -8.117       13.447       14.100        8.497      180.825      198.817       72.192        0.640        0.023      110.803        6.230        0.003      333.126        2.237      865.770
01/20/2015  03:15:00      -87.650      -50.913       -3.588       24.935       15.222       12.726      621.765      231.724      161.962        0.565        0.051      101.364        7.661        0.006      333.039        2.093      865.772
01/20/2015  03:16:00      -49.076      -55.926        1.120       33.276       27.921       20.951     1107.291      779.577      438.942        0.393        0.116       74.406       20.552        0.076      333.082        2.163      865.764
01/20/2015  03:17:00      -79.190      -46.327        2.283       37.764       23.068       16.437     1426.082      532.142      270.179        0.533        0.111       91.745       17.641        0.037      332.993        2.016      865.755
01/20/2015  03:18:00     -107.520      -39.904        0.471       29.082       17.652       20.269      845.751      311.597      410.825        0.736        0.078      114.686       18.194        0.025      332.965        1.970      865.738
01/20/2015  03:19:00     -105.885      -46.843       -6.734       18.276       19.539       14.214      334.013      381.765      202.027        0.718        0.046      115.784        9.522        0.007      332.953        1.952      865.730
01/20/2015  03:20:00      -98.303      -42.384       -6.253       24.635       16.972       12.705      606.900      288.044      161.405        0.628        0.053      107.051        9.493        0.008      332.941        1.931      865.723
01/20/2015  03:21:00      -77.991      -51.214       -4.805       29.963       17.528       17.285      897.757      307.248      298.764        0.512        0.075       93.303       15.021        0.026      332.949        1.944      865.714
01/20/2015  03:22:00      -89.607      -36.808        2.045       50.791       22.722       17.005     2579.688      516.271      289.167        0.639        0.169       96.872       19.143        0.039      332.955        1.954      865.715
01/20/2015  03:23:00     -127.295      -62.042      -10.503       17.718       17.756       10.711      313.941      315.258      114.718        1.045        0.037      141.609        3.893        0.001      332.943        1.935      865.718
01/20/2015  03:24:00      -91.154      -56.774        0.862       45.984       27.318       26.032     2114.570      746.289      677.681        0.754        0.177      107.389       25.716        0.057      332.900        1.864      865.721
01/20/2015  03:25:00     -104.906      -57.936       -1.221       44.199       27.934       17.959     1953.562      780.333      322.530        0.871        0.153      119.841       18.131        0.023      332.906        1.873      865.718
01/20/2015  03:26:00     -124.325      -69.381       -4.876       39.442       27.919       17.280     1555.675      779.463      298.610        1.146        0.132      142.374       17.026        0.014      332.920        1.897      865.722
01/20/2015  03:27:00      -94.446      -68.383      -12.277       33.541       32.023       19.402     1125.015     1025.480      376.432        0.814        0.126      116.603        6.404        0.003      333.006        2.039      865.713
01/20/2015  03:28:00      -86.827      -51.934       -0.017       26.813       29.132       18.729      718.946      848.693      350.761        0.608        0.096      101.174        6.654        0.004      333.023        2.067      865.707
01/20/2015  03:29:00     -102.891      -41.491       -2.998       26.889       31.346       16.487      723.038      982.567      271.828        0.715        0.099      110.941       13.378        0.015      332.924        1.904      865.697
01/20/2015  03:30:00     -122.883      -38.520       -4.219       22.973       25.637       17.075      527.756      657.273      291.558        0.904        0.074      128.779       14.176        0.012      332.943        1.935      865.689
01/20/2015  03:31:00      -88.793      -41.396       -2.736       30.132       21.194       16.290      907.923      449.187      265.374        0.561        0.081       97.968       16.874        0.030      332.976        1.988      865.688
01/20/2015  03:32:00     -115.136      -36.357       -6.266       24.744       28.645       17.655      612.242      820.508      311.711        0.818        0.087      120.740       12.602        0.011      332.973        1.985      865.687
01/20/2015  03:33:00      -98.717      -35.023      -12.742       33.237       31.887       17.117     1104.725     1016.791      292.985        0.677        0.121      104.745       13.696        0.017      332.960        1.963      865.694
01/20/2015  03:34:00     -118.556      -43.489       -3.569       18.993       15.688       11.213      360.743      246.126      125.736        0.835        0.037      126.281        5.709        0.002      332.928        1.909      865.697
01/20/2015  03:35:00     -104.246      -40.692        0.149       26.294       22.486       19.091      691.358      505.629      364.485        0.704        0.078      111.907       15.037        0.018      332.872        1.817      865.697
01/20/2015  03:36:00      -98.501      -53.907       -4.785       19.624       17.121       17.639      385.099      293.114      311.117        0.681        0.049      112.287       12.255        0.012      332.850        1.782      865.692
01/20/2015  03:37:00      -97.059      -55.418       -5.654       17.822       16.207       14.326      317.616      262.677      205.223        0.665        0.039      111.766       12.213        0.012      332.874        1.821      865.687
01/20/2015  03:38:00      -83.641      -40.677       -4.054       34.406       18.540       18.593     1183.772      343.738      345.715        0.527        0.094       93.007       15.576        0.028      332.878        1.829      865.683
01/20/2015  03:39:00      -47.703      -37.133        6.482       29.393       21.501       16.653      863.976      462.305      277.337        0.265        0.080       60.452       13.943        0.053      332.898        1.862      865.680
01/20/2015  03:40:00      -81.739      -38.521       -2.567       17.453       18.425       12.835      304.624      339.496      164.731        0.449        0.040       90.361        8.790        0.009      332.859        1.799      865.682
01/20/2015  03:41:00      -81.928      -31.710       -7.380       20.646       14.471       13.721      426.245      209.408      188.252        0.430        0.041       87.850       12.848        0.021      332.859        1.796      865.685
01/20/2015  03:42:00      -83.889      -29.977        2.681       19.225       14.320       13.834      369.585      205.051      191.378        0.435        0.038       89.084        8.300        0.009      332.858        1.796      865.686
01/20/2015  03:43:00      -33.586      -27.729        4.544       26.930       15.822       16.529      725.202      250.325      273.194        0.158        0.062       43.554       12.773        0.086      332.883        1.836      865.687
01/20/2015  03:44:00      -53.950      -46.018        3.034       33.594       20.641       16.701     1128.526      426.061      278.928        0.344        0.092       70.911       17.136        0.058      332.915        1.888      865.678
01/20/2015  03:45:00      -39.952      -30.143       10.727       45.107       23.860       19.810     2034.641      569.305      392.451        0.281        0.150       50.048       23.965        0.229      332.934        1.919      865.660
01/20/2015  03:46:00      -88.804      -36.800        3.085       36.316       20.376       18.537     1318.844      415.198      343.635        0.566        0.104       96.127       20.457        0.045      332.832        1.752      865.647
01/20/2015  03:47:00      -36.536      -27.312        3.506       31.422       17.675       13.561      987.365      312.421      183.895        0.179        0.074       45.616       10.013        0.048      332.882        1.835      865.638
01/20/2015  03:48:00      -57.696      -46.433       -4.146       27.562       17.935       18.140      759.686      321.658      329.073        0.346        0.071       74.060        8.521        0.013      332.907        1.875      865.626
01/20/2015  03:49:00      -61.542      -44.075       -2.806       27.709       19.907       13.434      767.803      396.277      180.479        0.354        0.067       75.697       12.336        0.027      332.869        1.814      865.618
01/20/2015  03:50:00      -67.720      -58.549       -1.398       26.249       18.056       15.282      688.991      326.004      233.545        0.463        0.062       89.521       14.206        0.025      332.895        1.856      865.614
01/20/2015  03:51:00      -36.581      -45.571        6.952       21.913       27.342       15.196      480.198      747.596      230.931        0.246        0.073       58.437       12.030        0.042      332.934        1.920      865.609
01/20/2015  03:52:00      -56.833      -43.721        5.388       28.419       20.638       18.213      807.633      425.940      331.719        0.337        0.078       71.704       16.504        0.053      332.971        1.981      865.611
01/20/2015  03:53:00      -84.128      -54.179        1.086       32.343       25.392       17.678     1046.084      644.754      312.523        0.601        0.100      100.064       15.532        0.024      332.912        1.884      865.612
01/20/2015  03:54:00      -68.568      -40.539        5.907       37.474       25.388       23.009     1404.277      644.549      529.422        0.448        0.129       79.655       22.397        0.079      332.882        1.835      865.615
01/20/2015  03:55:00      -83.584      -49.296        0.590       24.947       20.210       16.740      622.349      408.429      280.218        0.536        0.066       97.038       12.569        0.017      332.878        1.828      865.615
01/20/2015  03:56:00      -84.021      -65.455       -6.852       32.840       18.875       15.436     1078.471      356.272      238.267        0.653        0.084      106.508       13.034        0.015      332.912        1.884      865.621
01/20/2015  03:57:00     -103.650      -45.086       -3.297       36.680       21.654       16.765     1345.408      468.914      281.063        0.744        0.105      113.031       16.934        0.022      332.950        1.948      865.623
01/20/2015  03:58:00      -90.009      -53.752       -4.382       22.092       18.054       13.481      488.052      325.962      181.746        0.600        0.050      104.837       10.379        0.010      332.877        1.826      865.623
01/20/2015  03:59:00      -75.183      -55.446       -4.520       25.941       19.207       15.577      672.961      368.915      242.635        0.502        0.064       93.417       15.663        0.028      332.902        1.868      865.612
01/20/2015  04:00:00      -77.014      -41.612       -4.731       23.981       22.791       13.166      575.067      519.439      173.341        0.448        0.063       87.537       11.458        0.017      332.896        1.857      865.607
01/20/2015  04:01:00      -62.222      -34.076        1.580       20.049       12.627       11.040      401.979      159.437      121.871        0.286        0.034       70.942        9.794        0.019      332.940        1.929      865.605
01/20/2015  04:02:00      -77.388      -37.891       -7.523       20.042       16.051        8.525      401.680      257.627       72.672        0.411        0.037       86.166        4.986        0.003      332.959        1.961      865.610
01/20/2015  04:03:00      -67.443      -25.647       -6.288       12.981       14.043        8.538      168.497      197.201       72.893        0.284        0.022       72.155        6.675        0.009      332.913        1.884      865.610
01/20/2015  04:04:00      -62.443      -27.775       -2.480       16.539       12.404        8.244      273.550      153.857       67.959        0.259        0.025       68.341        4.753        0.005      332.959        1.962      865.619
01/20/2015  04:05:00      -73.558      -32.647       -2.277       12.539       17.415        7.283      157.231      303.265       53.045        0.350        0.026       80.477        7.035        0.008      332.973        1.984      865.626
01/20/2015  04:06:00      -16.402      -29.978        0.199       34.868       13.689       12.959     1215.786      187.375      167.928        0.137        0.079       34.172       16.466        0.232      332.983        1.999      865.627
01/20/2015  04:07:00      -13.331      -25.221       -5.701       13.074       24.542        8.316      170.934      602.310       69.149        0.084        0.042       28.527        4.220        0.022      332.919        1.894      865.621
01/20/2015  04:08:00      -39.464      -21.785       -2.657       19.046       10.416        9.606      362.752      108.494       92.280        0.130        0.028       45.078        6.417        0.020      332.891        1.849      865.618
01/20/2015  04:09:00      -31.643      -21.026       -3.849       13.954       13.997       10.929      194.711      195.930      119.451        0.098        0.026       37.991        6.208        0.027      332.949        1.943      865.620
01/20/2015  04:10:00      -29.426      -17.555       -0.147       26.516       14.587       10.611      703.093      212.768      112.601        0.110        0.051       34.265       11.973        0.122      332.912        1.884      865.614
01/20/2015  04:11:00      -18.007      -20.556       -3.399       18.051       15.434        8.573      325.824      238.205       73.495        0.070        0.032       27.328        4.208        0.024      332.918        1.894      865.610
01/20/2015  04:12:00       -3.135      -31.039       -1.938        9.370       14.032       10.305       87.802      196.904      106.194        0.068        0.020       31.197        4.792        0.024      332.985        2.005      865.609
01/20/2015  04:13:00      -43.277       -9.749        3.369       14.809        8.389        6.649      219.301       70.383       44.211        0.116        0.017       44.362        2.272        0.003      332.919        1.895      865.599
01/20/2015  04:14:00      -62.292      -11.905       -4.994        6.917        6.973        6.378       47.849       48.620       40.678        0.209        0.007       63.419        2.505        0.002      332.849        1.779      865.584
01/20/2015  04:15:00      -65.546      -22.791       -7.854        6.967        6.721        5.435       48.533       45.178       29.536        0.250        0.006       69.396        1.864        0.001      332.818        1.731      865.571
01/20/2015  04:16:00      -49.067      -25.890      -10.355       10.531        9.627        7.942      110.904       92.688       63.079        0.173        0.013       55.479        1.667        0.001      332.771        1.651      865.563
01/20/2015  04:17:00      -15.196      -13.230       -2.500       15.591       10.343        6.362      243.083      106.978       40.476        0.040        0.020       20.148        6.974        0.120      332.749        1.615      865.555
01/20/2015  04:18:00      -32.982      -11.668       -7.247       21.816        8.696        7.891      475.919       75.620       62.267        0.095        0.031       34.985       11.960        0.117      332.768        1.646      865.536
01/20/2015  04:19:00      -60.748      -21.705       -9.065        9.238        9.333        5.965       85.335       87.102       35.583        0.223        0.010       64.509        3.273        0.003      332.813        1.720      865.530
01/20/2015  04:20:00      -55.170      -11.838       -3.955       10.738       10.099        7.364      115.309      101.981       54.223        0.174        0.014       56.425        5.202        0.009      332.795        1.691      865.527
01/20/2015  04:21:00      -44.177      -31.216       -3.359       17.514       12.598        9.622      306.757      158.713       92.585        0.175        0.028       54.093        7.977        0.022      332.810        1.717      865.527
01/20/2015  04:22:00      -40.008      -24.111       -4.278       18.951        9.823       12.118      359.139       96.500      146.849        0.140        0.030       46.711        5.634        0.015      332.861        1.800      865.527
01/20/2015  04:23:00      -38.711      -24.662       -8.172       14.580        8.213        9.097      212.578       67.455       82.747        0.127        0.018       45.899        5.340        0.014      332.808        1.713      865.526
01/20/2015  04:24:00      -47.430      -17.976       -8.218       12.898       11.643        6.738      166.359      135.558       45.403        0.149        0.017       50.722        4.099        0.007      332.842        1.769      865.522
01/20/2015  04:25:00      -37.225      -25.800       -5.544       13.852        8.099        8.451      191.883       65.598       71.412        0.121        0.016       45.292        4.997        0.012      332.830        1.747      865.502
01/20/2015  04:26:00      -50.247      -30.350       -5.346        9.937        8.249        7.580       98.748       68.050       57.453        0.185        0.011       58.702        2.132        0.001      332.850        1.783      865.487
01/20/2015  04:27:00      -28.675      -15.769        0.111       16.486       15.890       10.900      271.785      252.477      118.813        0.086        0.032       32.725        6.089        0.035      332.745        1.607      865.469
01/20/2015  04:28:00       -5.740       -0.701        2.603        5.999        9.201        6.324       35.989       84.662       39.991        0.010        0.008        5.783        5.084        0.773      332.846        1.776      865.450
01/20/2015  04:29:00       -2.330        5.552       12.455        4.854        7.004        4.895       23.564       49.060       23.961        0.014        0.005        6.021        3.503        0.338      332.796        1.692      865.433
01/20/2015  04:30:00       -5.779        0.122       10.128        5.275        7.627        7.066       27.829       58.169       49.935        0.014        0.007        5.780        5.897        1.041      332.777        1.660      865.425
01/20/2015  04:31:00       -3.437        6.628       13.151        5.005        8.236        7.196       25.051       67.824       51.780        0.019        0.007        7.466        7.146        0.916      332.781        1.667      865.415
01/20/2015  04:32:00       -6.667        3.249       15.261        7.799       13.118       10.287       60.831      172.095      105.822        0.031        0.017        7.417        6.930        0.873      332.749        1.615      865.419
01/20/2015  04:33:00      -14.919       -6.004       12.143       10.373       10.876        9.966      107.608      118.288       99.327        0.037        0.016       16.082        8.111        0.254      332.721        1.569      865.410
01/20/2015  04:34:00      -62.810      -29.744       -2.073       17.163       19.616       12.703      294.565      384.784      161.370        0.284        0.042       69.497        5.716        0.007      332.772        1.653      865.406
01/20/2015  04:35:00      -70.903      -37.662       -5.675       21.704       16.752       12.486      471.062      280.638      155.900        0.369        0.045       80.285       10.166        0.016      332.779        1.664      865.400
01/20/2015  04:36:00      -60.998      -48.535        1.996       46.158       24.591       19.470     2130.523      604.732      379.068        0.460        0.156       77.951       19.943        0.065      332.735        1.591      865.401
01/20/2015  04:37:00      -40.605      -27.621        6.006       42.201       18.542       18.513     1780.966      343.805      342.742        0.246        0.123       49.109       21.951        0.200      332.678        1.497      865.411
01/20/2015  04:38:00      -72.109      -14.151       -6.554       15.312       19.447       10.514      234.460      378.194      110.538        0.308        0.036       73.484        6.229        0.007      332.619        1.400      865.429
01/20/2015  04:39:00      -71.009      -14.674      -10.362       22.878       16.528       10.166      523.401      273.177      103.357        0.313        0.045       72.510        8.672        0.014      332.628        1.413      865.438
01/20/2015  04:40:00      -75.968      -22.823       -7.650       21.961       17.611       14.434      482.306      310.135      208.328        0.368        0.050       79.322       14.483        0.033      332.591        1.353      865.436
01/20/2015  04:41:00      -58.970       -3.918       -5.654       20.606       19.385       10.078      424.604      375.768      101.568        0.221        0.045       59.100        6.218        0.011      332.472        1.155      865.432
01/20/2015  04:42:00      -55.739       -8.097        1.358       23.171       16.885       13.816      536.893      285.098      190.877        0.209        0.051       56.324       13.643        0.059      332.486        1.179      865.431
01/20/2015  04:43:00      -40.031      -15.480        2.288       21.798       22.197       11.216      475.133      492.689      125.790        0.147        0.055       42.920       11.537        0.072      332.501        1.204      865.427
01/20/2015  04:44:00      -43.417      -19.916        0.612       23.667       16.692       10.040      560.129      278.633      100.795        0.161        0.047       47.767       11.416        0.057      332.561        1.302      865.425
01/20/2015  04:45:00      -46.371       -4.020       -0.875       23.305       12.005        8.999      543.137      144.108       80.978        0.147        0.038       46.545        7.568        0.026      332.542        1.273      865.431
01/20/2015  04:46:00      -24.287       -8.349        5.241       17.277       14.259       10.657      298.481      203.306      113.563        0.065        0.031       25.682       10.936        0.181      332.569        1.316      865.435
01/20/2015  04:47:00      -27.883       -3.701       -1.551       20.401       13.207        8.335      416.200      174.418       69.471        0.073        0.033       28.128       10.012        0.127      332.613        1.390      865.442
01/20/2015  04:48:00      -27.557      -19.412        3.225       16.488       13.209        9.379      271.850      174.483       87.966        0.084        0.027       33.708        9.562        0.080      332.606        1.378      865.450
01/20/2015  04:49:00      -41.327      -28.037       -0.010       12.053        9.259       10.570      145.267       85.736      111.735        0.142        0.017       49.939        5.949        0.014      332.628        1.416      865.451
01/20/2015  04:50:00      -45.443      -26.084       -4.027       23.523       15.008        9.714      553.348      225.253       94.364        0.182        0.044       52.397        8.167        0.024      332.619        1.400      865.443
01/20/2015  04:51:00      -41.885      -22.170        6.536       37.340       13.250       12.499     1394.287      175.558      156.234        0.201        0.086       47.391       12.986        0.075      332.569        1.317      865.435
01/20/2015  04:52:00        5.632      -13.039       13.432       11.803       14.859       10.988      139.302      220.776      120.744        0.043        0.024       14.204        4.168        0.086      332.635        1.426      865.432
01/20/2015  04:53:00       -7.304      -10.318        4.476       20.223       16.559       13.729      408.984      274.209      188.479        0.053        0.044       12.641       10.303        0.664      332.641        1.437      865.443
01/20/2015  04:54:00       -4.460      -19.161        3.896       16.448       24.273       11.779      270.526      589.181      138.738        0.070        0.050       19.674       13.152        0.447      332.621        1.404      865.446
01/20/2015  04:55:00       -6.113      -34.873       -6.862       16.730       24.200       11.597      279.902      585.649      134.500        0.115        0.050       35.405       11.971        0.114      332.617        1.397      865.445
01/20/2015  04:56:00       -6.358      -13.019       -1.169        8.856       12.910        9.161       78.435      166.675       83.926        0.027        0.016       14.488        5.076        0.123      332.576        1.327      865.433
01/20/2015  04:57:00      -25.152        6.696       14.541       17.248       18.422       10.341      297.508      339.365      106.942        0.082        0.037       26.028       10.547        0.164      332.641        1.437      865.422
01/20/2015  04:58:00       -3.540        5.971       14.511        8.822        7.751        8.903       77.828       60.077       79.258        0.024        0.011        6.941        6.419        0.855      332.604        1.373      865.423
01/20/2015  04:59:00      -13.264        9.434        6.203       11.121        9.459        9.769      123.682       89.471       95.433        0.031        0.015       16.277        8.324        0.262      332.659        1.465      865.422
01/20/2015  05:00:00       -9.111       -0.862       10.186       10.078        9.661        6.420      101.559       93.343       41.216        0.021        0.012        9.152        4.103        0.201      332.681        1.502      865.420
01/20/2015  05:01:00      -24.436        2.900        4.295       15.389       11.838        7.560      236.835      140.144       57.151        0.053        0.022       24.607        9.127        0.138      332.661        1.470      865.419
01/20/2015  05:02:00       24.956       27.669       12.941        9.482        6.528        8.488       89.912       42.609       72.049        0.088        0.010       37.261        5.411        0.021      332.601        1.369      865.410
01/20/2015  05:03:00       16.387       15.674       12.963        8.385       10.766        8.409       70.316      115.908       70.719        0.047        0.013       22.677        6.573        0.084      332.564        1.307      865.397
01/20/2015  05:04:00       15.097       11.416        1.176       11.715        6.179        8.618      137.232       38.177       74.276        0.030        0.012       18.928        4.830        0.065      332.613        1.390      865.388
01/20/2015  05:05:00       24.037       23.210        6.421       12.705        9.757        9.284      161.405       95.207       86.199        0.075        0.017       33.414        7.814        0.055      332.519        1.235      865.377
01/20/2015  05:06:00       27.105       25.162       15.287       15.097       12.901       10.525      227.913      166.437      110.766        0.105        0.025       36.984        7.417        0.040      332.465        1.145      865.361
01/20/2015  05:07:00       22.513       15.646        4.647       11.487       13.607       11.553      131.962      185.158      133.474        0.061        0.023       27.416        6.963        0.065      332.507        1.214      865.347
01/20/2015  05:08:00        5.903       14.045       14.660       11.855       12.890        9.959      140.538      166.149       99.184        0.043        0.020       15.235        7.214        0.224      332.504        1.210      865.337
01/20/2015  05:09:00       -7.121       -7.109        1.874        7.207       11.907        7.335       51.935      141.777       53.801        0.018        0.012       10.062        7.183        0.510      332.563        1.306      865.336
01/20/2015  05:10:00      -22.150        4.855       -1.412        6.612        4.915        5.306       43.712       24.154       28.156        0.031        0.005       22.676        3.443        0.023      332.656        1.461      865.338
01/20/2015  05:11:00      -42.400        4.997       -0.640       13.897        6.762        5.784      193.115       45.719       33.460        0.105        0.014       42.694        4.472        0.011      332.643        1.440      865.355
01/20/2015  05:12:00      -44.764       -4.895       -3.035       12.229       11.819        7.415      149.543      139.691       54.979        0.119        0.017       45.031        5.729        0.016      332.592        1.357      865.370
01/20/2015  05:13:00      -35.249      -12.407       -2.999       16.672       10.990       10.490      277.939      120.777      110.037        0.096        0.025       37.369       10.728        0.082      332.439        1.103      865.392
01/20/2015  05:14:00      -40.264      -19.779       -1.690       20.317       17.441       10.067      412.764      304.175      101.348        0.142        0.041       44.860        8.761        0.038      332.574        1.325      865.411
01/20/2015  05:15:00      -52.375       -7.848       -1.851       13.843       10.259        6.292      191.629      105.245       39.584        0.157        0.017       52.960        4.564        0.007      332.595        1.361      865.426
01/20/2015  05:16:00      -48.576      -11.143        2.118       28.914       16.531       11.924      836.013      273.258      142.185        0.187        0.063       49.837        9.663        0.038      332.640        1.435      865.431
01/20/2015  05:17:00      -57.270      -12.757        1.560       24.086       19.562       14.022      580.153      382.667      196.616        0.230        0.058       58.674       10.752        0.034      332.638        1.432      865.433
01/20/2015  05:18:00      -73.892      -28.671       -1.757       27.245       19.533       14.525      742.268      381.530      210.975        0.381        0.067       79.259       12.944        0.027      332.610        1.384      865.422
01/20/2015  05:19:00      -79.668      -23.334        2.028       23.477       19.724       11.919      551.163      389.027      142.055        0.399        0.054       83.015       11.120        0.018      332.510        1.220      865.417
01/20/2015  05:20:00      -72.910        1.843       -4.152       25.575       15.858       13.858      654.072      251.485      192.048        0.322        0.055       72.933       12.327        0.029      332.410        1.054      865.420
01/20/2015  05:21:00      -60.586        3.709        0.018       23.171       14.030       13.361      536.873      196.853      178.513        0.230        0.046       60.700       13.521        0.050      332.421        1.072      865.426
01/20/2015  05:22:00      -55.557        0.971       -1.869       20.339       13.073       12.802      413.682      170.891      163.879        0.192        0.037       55.565       13.089        0.055      332.499        1.200      865.435
01/20/2015  05:23:00      -25.544       -1.650      -10.795       12.379        7.742        7.228      153.233       59.938       52.239        0.052        0.013       25.597        5.516        0.046      332.527        1.247      865.436
01/20/2015  05:24:00       -6.179        4.197        4.110        6.363       12.706        6.872       40.485      161.450       47.223        0.016        0.012        7.469        4.878        0.427      332.595        1.360      865.430
01/20/2015  05:25:00      -15.745       13.394        3.403        9.986        8.573        7.701       99.723       73.491       59.308        0.034        0.012       20.672        7.184        0.121      332.582        1.339      865.428
01/20/2015  05:26:00        6.761       22.127        9.138       10.038        8.919        6.706      100.759       79.555       44.964        0.042        0.011       23.137        4.955        0.046      332.565        1.308      865.422
01/20/2015  05:27:00       15.838       27.002        1.387        7.159        9.168        7.574       51.256       84.050       57.364        0.059        0.010       31.304        6.958        0.049      332.585        1.342      865.416
01/20/2015  05:28:00       17.077       24.363       -2.571        8.924        9.724        7.111       79.632       94.557       50.563        0.056        0.011       29.752        4.749        0.025      332.512        1.222      865.418
01/20/2015  05:29:00        8.136       26.384       -2.403        6.825        7.675        5.683       46.586       58.906       32.291        0.045        0.007       27.610        3.146        0.013      332.486        1.177      865.409
01/20/2015  05:30:00       -6.440       17.882       -3.241        3.928        3.284        1.997       15.433       10.783        3.988        0.020        0.002       19.007        1.906        0.010      332.582        1.336      865.403
01/20/2015  05:31:00      -11.845        8.926        0.724        3.595        4.777        4.626       12.926       22.821       21.399        0.014        0.003       14.831        3.789        0.065      332.618        1.399      865.396
01/20/2015  05:32:00      -16.610        8.389       -1.829        6.432        3.541        4.357       41.370       12.536       18.984        0.021        0.004       18.608        2.221        0.014      332.574        1.325      865.394
01/20/2015  05:33:00       -5.634        2.136        6.277        5.076        3.353        4.103       25.770       11.242       16.839        0.006        0.003        6.025        2.859        0.225      332.632        1.420      865.396
01/20/2015  05:34:00        0.085        2.849        4.052        2.626        3.294        3.986        6.898       10.851       15.889        0.003        0.002        2.850        1.440        0.255      332.593        1.356      865.399
01/20/2015  05:35:00      -11.515        1.620       -1.188        8.307        4.948        4.686       69.014       24.478       21.956        0.013        0.006       11.629        3.953        0.116      332.642        1.436      865.394
01/20/2015  05:36:00      -25.429       -1.891       -0.694        6.628        5.855        5.087       43.928       34.276       25.877        0.038        0.005       25.499        2.132        0.007      332.665        1.477      865.384
01/20/2015  05:37:00       -3.868        4.447        6.453       12.427        6.675        9.015      154.424       44.557       81.269        0.018        0.014        5.894        9.928        2.837      332.655        1.459      865.377
01/20/2015  05:38:00        7.702       13.328        0.663        4.473        5.688        6.019       20.011       32.359       36.228        0.016        0.004       15.393        4.192        0.074      332.670        1.487      865.371
01/20/2015  05:39:00       12.518       14.903        4.572        5.001        6.108        4.758       25.005       37.305       22.634        0.024        0.004       19.463        2.308        0.014      332.663        1.471      865.364
01/20/2015  05:40:00       24.969       16.884        3.102        5.777        5.331        4.508       33.376       28.418       20.320        0.050        0.004       30.142        2.790        0.009      332.660        1.465      865.359
01/20/2015  05:41:00       22.199       17.764        1.286        7.560        7.721        6.697       57.147       59.618       44.844        0.049        0.008       28.431        3.321        0.014      332.638        1.433      865.359
01/20/2015  05:42:00       27.741       24.622       -2.160        7.723        7.788        5.429       59.645       60.653       29.472        0.077        0.007       37.092        3.197        0.007      332.667        1.480      865.364
01/20/2015  05:43:00       19.678       19.268       -0.235        9.457        6.020        5.530       89.442       36.242       30.586        0.046        0.008       27.540        4.050        0.022      332.629        1.417      865.367
01/20/2015  05:44:00       11.446       15.118       -3.110        4.259        3.653        2.393       18.139       13.342        5.727        0.020        0.002       18.962        1.913        0.010      332.679        1.498      865.369
01/20/2015  05:45:00       -0.074       12.927        0.531        3.573        3.422        3.503       12.766       11.712       12.270        0.010        0.002       12.927        2.174        0.028      332.685        1.512      865.371
01/20/2015  05:46:00        1.660        8.458       -0.024        4.584        4.774        3.880       21.011       22.795       15.054        0.007        0.003        8.619        1.345        0.024      332.707        1.545      865.378
01/20/2015  05:47:00        1.946        8.939        2.260        4.546        4.020        4.134       20.662       16.160       17.088        0.007        0.003        9.148        3.042        0.111      332.660        1.468      865.383
01/20/2015  05:48:00      -19.324       -2.821        4.828        8.511        7.183        5.251       72.442       51.601       27.574        0.028        0.008       19.529        4.325        0.049      332.674        1.492      865.393
01/20/2015  05:49:00      -37.947       -6.699       -0.731        9.681        9.115        7.149       93.717       83.083       51.115        0.086        0.011       38.534        5.717        0.022      332.623        1.406      865.399
01/20/2015  05:50:00      -35.035       -3.875       -0.320        8.934        7.707        6.092       79.815       59.402       37.112        0.071        0.009       35.248        1.436        0.002      332.584        1.342      865.406
01/20/2015  05:51:00      -34.560       -6.647       -2.645        8.051        8.123        5.648       64.826       65.991       31.898        0.070        0.008       35.193        5.932        0.028      332.573        1.324      865.411
01/20/2015  05:52:00      -44.835       -7.863       -3.282        9.956        9.255        8.543       99.116       85.658       72.984        0.117        0.013       45.519        3.979        0.008      332.604        1.375      865.421
01/20/2015  05:53:00      -62.809       -4.022       -4.605       13.732        9.219        6.335      188.556       84.982       40.128        0.215        0.016       62.938        4.638        0.005      332.613        1.390      865.423
01/20/2015  05:54:00      -58.667      -27.595       -1.900       13.887       12.428        9.043      192.843      154.462       81.780        0.232        0.021       64.833        4.995        0.006      332.635        1.427      865.431
01/20/2015  05:55:00      -28.929      -14.757        5.758       14.442       13.558       10.791      208.585      183.832      116.439        0.080        0.025       32.475        8.714        0.072      332.650        1.451      865.440
01/20/2015  05:56:00      -64.550       -6.637       -3.632       22.297       10.989       10.725      497.158      120.762      115.020        0.248        0.037       64.890       11.169        0.030      332.610        1.385      865.440
01/20/2015  05:57:00      -65.729       -6.733       -2.776       24.571       13.406       12.057      603.723      179.724      145.382        0.265        0.046       66.072       13.585        0.042      332.528        1.248      865.439
01/20/2015  05:58:00      -81.628      -11.777        3.160       20.637       17.328       12.344      425.867      300.248      152.371        0.385        0.044       82.474       13.349        0.026      332.528        1.249      865.450
01/20/2015  05:59:00      -97.386       -6.127       -7.786       22.293       10.949       12.564      496.996      119.873      157.862        0.518        0.039       97.579       10.813        0.012      332.472        1.157      865.453
01/20/2015  06:00:00      -75.290       -4.839       -2.651       27.370       19.694       14.787      749.107      387.853      218.665        0.353        0.068       75.445       15.080        0.040      332.437        1.098      865.467
01/20/2015  06:01:00      -93.773      -10.426       -7.995       20.349       20.230       14.457      414.096      409.252      208.991        0.500        0.052       94.351       11.356        0.014      332.384        1.011      865.478
01/20/2015  06:02:00      -96.763      -17.091       -3.491       21.315       23.654       13.980      454.338      559.488      195.435        0.544        0.060       98.260       10.894        0.012      332.377        1.000      865.480
01/20/2015  06:03:00     -103.202      -16.444       -5.340       31.241       16.570       17.135      976.012      274.551      293.617        0.625        0.077      104.504       19.068        0.033      332.344        0.946      865.486
01/20/2015  06:04:00     -106.879      -29.271       -3.608       20.959       17.272       15.708      439.299      298.331      246.745        0.664        0.049      110.815       13.477        0.015      332.402        1.040      865.490
01/20/2015  06:05:00     -122.277      -31.772       -2.907       23.477       24.970       17.555      551.148      623.496      308.168        0.873        0.074      126.337        8.279        0.004      332.453        1.125      865.498
01/20/2015  06:06:00     -117.043      -31.040        1.339       29.983       28.196       18.728      898.957      795.037      350.736        0.835        0.102      121.089       16.703        0.019      332.426        1.082      865.504
01/20/2015  06:07:00     -104.096      -42.038       -5.787       33.116       20.726       16.902     1096.695      429.575      285.667        0.722        0.091      112.264       15.411        0.019      332.502        1.204      865.514
01/20/2015  06:08:00     -112.906      -45.663       -3.467       24.380       21.096       18.194      594.406      445.038      331.037        0.811        0.069      121.791       11.125        0.008      332.510        1.220      865.532
01/20/2015  06:09:00      -72.261      -44.004        3.021       33.164       30.048       18.041     1099.878      902.902      325.493        0.475        0.116       84.605       16.269        0.037      332.534        1.258      865.546
01/20/2015  06:10:00      -88.660      -39.633       -3.298       40.207       25.807       19.437     1616.613      665.990      377.800        0.605        0.133       97.115       18.292        0.035      332.533        1.256      865.551
01/20/2015  06:11:00     -108.470      -48.154       -3.507       38.923       20.658       14.909     1515.009      426.771      222.270        0.813        0.108      118.679       10.404        0.008      332.566        1.311      865.567
01/20/2015  06:12:00     -120.629      -54.659       -3.731       28.794       20.107       16.759      829.079      404.274      280.871        0.953        0.076      132.435       14.782        0.012      332.491        1.186      865.578
01/20/2015  06:13:00     -125.361      -36.191      -10.021       20.734       23.026       12.586      429.906      530.219      158.398        0.912        0.056      130.481        9.369        0.005      332.513        1.224      865.587
01/20/2015  06:14:00      -84.071      -19.587       -2.830       34.942       26.268       18.514     1220.935      690.000      342.765        0.486        0.113       86.322       16.610        0.037      332.497        1.197      865.586
01/20/2015  06:15:00      -68.094      -24.932        3.044       37.877       24.360       17.494     1434.645      593.387      306.039        0.380        0.117       72.515       17.924        0.061      332.438        1.101      865.590
01/20/2015  06:16:00      -74.676      -21.138        5.043       28.136       17.546       14.996      791.625      307.859      224.880        0.369        0.066       77.610       14.720        0.036      332.562        1.305      865.595
01/20/2015  06:17:00      -87.562      -43.164       -1.611       28.163       24.957       15.391      793.158      622.834      236.884        0.559        0.083       97.623       14.303        0.021      332.630        1.418      865.614
01/20/2015  06:18:00     -106.125      -39.468       -2.965       20.123       14.823       13.114      404.921      219.717      171.969        0.681        0.040      113.226       10.855        0.009      332.587        1.346      865.628
01/20/2015  06:19:00      -83.094      -22.173       -3.519       27.244       24.667       14.554      742.232      608.484      211.807        0.449        0.078       86.001       13.178        0.023      332.646        1.445      865.638
01/20/2015  06:20:00      -79.418      -20.260       -0.100       21.237       20.060       13.816      451.025      402.407      190.886        0.388        0.052       81.961       10.211        0.016      332.650        1.453      865.637
01/20/2015  06:21:00      -80.042      -21.011        2.006       22.048       16.783       13.998      486.113      281.660      195.936        0.391        0.048       82.754       11.717        0.020      332.656        1.461      865.635
01/20/2015  06:22:00      -94.382      -24.042       -4.919       22.952       15.465       11.915      526.794      239.154      141.957        0.521        0.045       97.397       11.262        0.013      332.701        1.533      865.643
01/20/2015  06:23:00      -68.225      -28.881        4.540       21.096       20.804       15.674      445.026      432.814      245.664        0.332        0.056       74.086       11.509        0.024      332.673        1.489      865.648
01/20/2015  06:24:00      -64.947      -22.279        1.528       19.546       15.826       11.801      382.051      250.459      139.260        0.274        0.039       68.662        8.724        0.016      332.738        1.596      865.662
01/20/2015  06:25:00      -46.763      -22.195       -3.963       29.455       20.089       10.543      867.616      403.565      111.150        0.204        0.069       51.762        9.307        0.032      332.739        1.597      865.690
01/20/2015  06:26:00      -59.223      -24.744       -3.106       19.999       14.050       11.751      399.967      197.401      138.089        0.243        0.037       64.184        8.456        0.017      332.765        1.643      865.712
01/20/2015  06:27:00       -5.799       -7.229        8.510       15.860        9.366        7.728      251.547       87.729       59.727        0.028        0.020        9.268        3.296        0.127      332.712        1.552      865.717
01/20/2015  06:28:00      -19.685      -20.065        0.094       18.741       13.915       11.653      351.238      193.621      135.795        0.074        0.034       28.109        6.973        0.062      332.719        1.565      865.722
01/20/2015  06:29:00      -38.079      -30.394        3.157       27.375       12.116       14.838      749.368      146.808      220.165        0.175        0.056       48.722       14.834        0.093      332.604        1.372      865.713
01/20/2015  06:30:00      -15.411      -12.496        5.926       18.398       10.176       10.424      338.504      103.545      108.666        0.049        0.028       19.840        8.378        0.178      332.494        1.193      865.706
01/20/2015  06:31:00      -26.717      -10.643       -3.000       17.533        8.408        5.923      307.419       70.703       35.084        0.062        0.021       28.759        3.984        0.019      332.533        1.257      865.693
01/20/2015  06:32:00      -34.423      -12.602       -5.881        8.941        6.090        6.404       79.949       37.085       41.016        0.077        0.008       36.657        2.971        0.007      332.550        1.287      865.674
01/20/2015  06:33:00      -18.617      -14.161       -2.059       11.360        6.188        6.172      129.040       38.293       38.091        0.038        0.010       23.391        4.220        0.033      332.591        1.353      865.651
01/20/2015  06:34:00      -23.722      -13.069       -2.330       15.815        6.704        7.606      250.110       44.943       57.852        0.055        0.018       27.084        9.012        0.111      332.620        1.402      865.645
01/20/2015  06:35:00      -26.521       -5.003        0.073        8.858        8.171        6.604       78.464       66.758       43.609        0.046        0.009       26.989        4.665        0.030      332.623        1.407      865.633
01/20/2015  06:36:00      -34.104       -6.202        1.308        7.589        9.802        7.845       57.590       96.072       61.551        0.071        0.011       34.663        4.220        0.015      332.595        1.361      865.631
01/20/2015  06:37:00      -26.421       -0.981        2.276       11.764        6.831        8.271      138.383       46.666       68.415        0.048        0.013       26.439        7.207        0.074      332.581        1.336      865.636
01/20/2015  06:38:00      -28.374       -6.934       -1.755       14.414        5.677        7.081      207.771       32.233       50.140        0.057        0.015       29.209        7.076        0.059      332.541        1.269      865.641
01/20/2015  06:39:00      -43.699       -4.342       -3.805       10.121        8.015        6.973      102.439       64.242       48.624        0.108        0.011       43.914        6.251        0.020      332.529        1.252      865.643
01/20/2015  06:40:00      -54.544       -7.521       -3.666       11.817       13.589        9.991      139.631      184.669       99.817        0.173        0.021       55.060        6.666        0.015      332.457        1.132      865.643
01/20/2015  06:41:00      -64.069       -6.360       -2.173       18.717       15.639       13.276      350.323      244.564      176.248        0.246        0.039       64.384       12.835        0.040      332.378        1.001      865.646
01/20/2015  06:42:00      -55.020      -11.577        4.674       28.531       18.136       11.765      814.033      328.915      138.417        0.223        0.064       56.225       13.991        0.062      332.355        0.963      865.655
01/20/2015  06:43:00      -59.628      -23.877       -4.863       20.355       13.034        7.935      414.345      169.878       62.961        0.240        0.032       64.231        4.046        0.004      332.420        1.071      865.671
01/20/2015  06:44:00      -53.066      -29.315        3.822       24.505       17.090       13.390      600.517      292.061      179.280        0.238        0.054       60.625       13.160        0.047      332.448        1.116      865.682
01/20/2015  06:45:00      -68.462      -25.047       -0.244       15.801       16.356       11.406      249.664      267.521      130.093        0.298        0.032       72.900        4.496        0.004      332.456        1.130      865.687
01/20/2015  06:46:00      -83.439      -45.316       -3.488       16.021       25.327       13.999      256.669      641.467      195.969        0.506        0.055       94.950        7.219        0.006      332.464        1.143      865.685
01/20/2015  06:47:00      -63.216      -41.152        1.598       33.772       20.918       12.325     1140.551      437.567      151.894        0.371        0.087       75.430        9.334        0.015      332.463        1.142      865.690
01/20/2015  06:48:00      -52.903      -30.410        4.302       25.892       21.184       15.610      670.390      448.763      243.679        0.255        0.068       61.021        5.426        0.008      332.388        1.018      865.683
01/20/2015  06:49:00      -39.492      -30.102        8.612       34.775       23.150       16.529     1209.277      535.902      273.192        0.228        0.101       49.656       10.098        0.041      332.436        1.096      865.673
01/20/2015  06:50:00      -67.469      -56.679        0.966       42.297       17.978       18.412     1788.995      323.207      338.991        0.511        0.123       88.117       17.280        0.038      332.500        1.201      865.664
01/20/2015  06:51:00      -38.808      -66.124        0.064       17.166       20.316       18.537      294.671      412.720      343.616        0.346        0.053       76.671       14.765        0.037      332.499        1.200      865.653
01/20/2015  06:52:00      -64.052      -45.476       -3.889       25.337       18.823       14.369      641.982      354.311      206.474        0.369        0.060       78.554       10.749        0.019      332.505        1.210      865.633
01/20/2015  06:53:00      -74.366      -34.813       -1.762       26.569       19.133       14.222      705.896      366.058      202.265        0.401        0.064       82.111        8.586        0.011      332.462        1.141      865.617
01/20/2015  06:54:00      -73.212      -31.145       -4.767       28.404       22.977       14.049      806.786      527.942      197.361        0.394        0.077       79.562       14.368        0.033      332.509        1.217      865.603
01/20/2015  06:55:00      -65.555      -18.964        1.183       30.887       21.650       15.823      953.979      468.727      250.364        0.317        0.084       68.243       16.017        0.055      332.420        1.071      865.600
01/20/2015  06:56:00      -83.234      -33.491       -6.655       17.846       15.081       11.107      318.473      227.450      123.356        0.438        0.033       89.719        7.210        0.006      332.402        1.042      865.601
01/20/2015  06:57:00      -39.760      -38.716       -2.640       27.709       17.988       17.385      767.783      323.584      302.252        0.224        0.070       55.496        8.123        0.021      332.468        1.149      865.613
01/20/2015  06:58:00      -17.396      -55.565        3.249       18.065       14.674        9.844      326.350      215.315       96.910        0.202        0.032       58.224        6.052        0.011      332.478        1.167      865.624
01/20/2015  06:59:00      -14.329      -18.944       10.384       18.389       12.191       11.443      338.157      148.632      130.938        0.064        0.031       23.753       11.484        0.234      332.511        1.223      865.631
01/20/2015  07:00:00      -33.114      -31.608       -0.931       13.627       15.407       13.181      185.683      237.378      173.731        0.135        0.030       45.778        8.146        0.032      332.530        1.251      865.631
01/20/2015  07:01:00       -8.273      -19.915       -0.840       11.315       14.104       13.141      128.023      198.922      172.682        0.048        0.025       21.565       10.082        0.219      332.550        1.285      865.625
01/20/2015  07:02:00      -13.812      -19.348        2.251       11.722        9.287        8.397      137.410       86.252       70.502        0.043        0.015       23.772        6.864        0.083      332.632        1.421      865.633
01/20/2015  07:03:00      -13.732       -5.565        4.749        8.672        7.853        9.371       75.198       61.665       87.813        0.023        0.011       14.817        4.981        0.113      332.526        1.245      865.626
01/20/2015  07:04:00        2.174       15.638       15.366        8.657       10.245        8.770       74.943      104.963       76.910        0.037        0.013       15.788        7.441        0.222      332.479        1.168      865.621
01/20/2015  07:05:00       -1.794       20.839       -2.031       12.265       16.332       11.786      150.442      266.748      138.909        0.050        0.028       20.916       10.270        0.241      332.463        1.141      865.618
01/20/2015  07:06:00        5.442       15.720       -6.083        7.007        7.901        7.267       49.104       62.426       52.812        0.024        0.008       16.635        4.083        0.060      332.442        1.109      865.613
01/20/2015  07:07:00       -1.174       11.403        8.318        7.715        8.090        7.552       59.522       65.450       57.027        0.019        0.009       11.463        1.699        0.022      332.506        1.212      865.613
01/20/2015  07:08:00        3.947        2.773        8.362       11.054        8.699        8.282      122.181       75.668       68.596        0.018        0.013        4.824        4.266        0.782      332.540        1.268      865.613
01/20/2015  07:09:00        6.004       12.650        3.451       10.096        8.935        8.187      101.925       79.840       67.027        0.023        0.012       14.002        2.646        0.036      332.487        1.180      865.613
01/20/2015  07:10:00      -20.510        5.797        5.596       25.243       12.018       11.321      637.234      144.423      128.157        0.070        0.045       21.313       15.396        0.522      332.479        1.168      865.609
01/20/2015  07:11:00      -46.726       -9.745       -1.212       12.857       10.772        9.629      165.308      116.036       92.711        0.133        0.019       47.732        2.961        0.004      332.529        1.250      865.604
01/20/2015  07:12:00        2.456       -3.743        8.474       18.551        9.123       10.644      344.154       83.229      113.302        0.032        0.027        4.477        8.454        3.565      332.539        1.266      865.608
01/20/2015  07:13:00       11.412        3.901        2.671       11.226        7.611       10.740      126.014       57.924      115.343        0.023        0.015       12.060        6.357        0.278      332.531        1.253      865.613
01/20/2015  07:14:00       -2.147       14.471       17.425       14.185       14.256       12.625      201.212      203.233      159.398        0.054        0.028       14.630        8.725        0.356      332.473        1.157      865.619
01/20/2015  07:15:00       -0.116        3.375       16.961       11.977        9.556        7.323      143.443       91.316       53.632        0.029        0.014        3.377        7.872        5.434      332.469        1.152      865.628
01/20/2015  07:16:00       -7.510        3.959        5.232        8.029        5.705        6.663       64.472       32.552       44.396        0.012        0.007        8.490        4.510        0.282      332.477        1.163      865.641
01/20/2015  07:17:00      -47.040      -13.221       -2.522       28.959       21.411        8.820      838.596      458.431       77.801        0.188        0.069       48.862       12.088        0.061      332.500        1.204      865.655
01/20/2015  07:18:00      -40.614        5.464        0.372       20.256       13.949       13.987      410.312      194.564      195.650        0.124        0.040       40.980       13.596        0.110      332.453        1.127      865.673
01/20/2015  07:19:00      -34.982       19.058        2.018       15.380       15.426        9.921      236.551      237.964       98.420        0.108        0.029       39.837        5.798        0.021      332.486        1.179      865.684
01/20/2015  07:20:00      -53.362       14.760       -4.477       18.103       12.963        6.234      327.725      168.035       38.866        0.181        0.027       55.365        5.167        0.009      332.473        1.158      865.705
01/20/2015  07:21:00      -48.147        3.671       -5.069       16.516       13.894        9.355      272.766      193.038       87.513        0.146        0.028       48.287        5.944        0.015      332.280        0.839      865.717
01/20/2015  07:22:00      -42.676        5.324       -4.756       17.051       16.017       11.294      290.744      256.560      127.545        0.127        0.034       43.007        8.580        0.040      332.275        0.832      865.733
01/20/2015  07:23:00      -26.235       10.730       -7.236       16.921       29.102       13.793      286.335      846.945      190.246        0.109        0.066       28.345       14.508        0.262      332.337        0.936      865.744
01/20/2015  07:24:00      -64.450       48.631      -15.037       18.912       28.511       12.645      357.650      812.898      159.891        0.404        0.067       80.739       12.270        0.023      332.371        0.991      865.751
01/20/2015  07:25:00      -75.975       46.224      -18.459       14.371       19.919       11.255      206.530      396.755      126.672        0.449        0.036       88.931        5.245        0.003      332.262        0.809      865.760
01/20/2015  07:26:00      -71.183       43.696      -15.442       24.272       25.117       11.447      589.114      630.886      131.039        0.428        0.068       83.525        6.903        0.007      332.247        0.785      865.767
01/20/2015  07:27:00      -54.239       30.338      -13.163       21.650       23.883       14.102      468.718      570.410      198.873        0.264        0.062       62.148       10.088        0.026      332.171        0.661      865.774
01/20/2015  07:28:00      -68.862       14.190      -12.558       20.534       30.342       14.670      421.647      920.618      215.205        0.333        0.078       70.308       11.222        0.025      332.181        0.677      865.787
01/20/2015  07:29:00      -66.939       14.207       -7.995       29.705       28.339       14.614      882.377      803.108      213.563        0.332        0.095       68.430       10.897        0.025      332.203        0.715      865.790
01/20/2015  07:30:00      -59.358       30.261      -13.516       18.743       33.057       15.150      351.284     1092.742      229.536        0.315        0.084       66.627       11.034        0.027      332.240        0.776      865.801
01/20/2015  07:31:00      -58.953       16.587      -13.456       16.335       18.101       10.914      266.829      327.638      119.125        0.232        0.036       61.242        8.579        0.020      332.269        0.822      865.809
01/20/2015  07:32:00      -80.479       53.407      -18.474       14.322       18.213        8.060      205.119      331.729       64.959        0.514        0.030       96.588        6.900        0.005      332.424        1.076      865.823
01/20/2015  07:33:00      -70.680       43.569       -9.027       20.823       17.509       14.312      433.578      306.548      204.835        0.396        0.047       83.030       12.808        0.024      332.412        1.058      865.832
01/20/2015  07:34:00       -1.432       45.633        0.338       17.182       11.078       10.530      295.211      122.714      110.891        0.131        0.026       45.656        3.263        0.005      332.393        1.025      865.827
01/20/2015  07:35:00       13.819       39.265       -7.228        7.400        7.619        7.220       54.760       58.047       52.124        0.097        0.008       41.626        5.339        0.016      332.360        0.970      865.837
01/20/2015  07:36:00        1.088       52.770       -2.607        4.515       11.440        6.530       20.381      130.878       42.644        0.149        0.010       52.781        6.575        0.016      332.438        1.099      865.846
01/20/2015  07:37:00       -7.576       68.562       -6.611        9.613       10.453        8.547       92.418      109.266       73.054        0.254        0.014       68.980        5.421        0.006      332.486        1.180      865.856
01/20/2015  07:38:00      -23.772       40.755       -5.920       15.028       16.927        7.931      225.839      286.537       62.903        0.142        0.029       47.181        4.553        0.009      332.473        1.158      865.868
01/20/2015  07:39:00      -34.480       41.883       -9.677       20.904       16.146       10.798      436.990      260.694      116.601        0.193        0.041       54.250       11.236        0.043      332.510        1.218      865.884
01/20/2015  07:40:00      -16.446       32.405       -7.518       18.272       20.306       12.101      333.867      412.323      146.433        0.113        0.045       36.339        8.451        0.054      332.517        1.229      865.890
01/20/2015  07:41:00       -9.882       37.903       -3.641       13.917       13.206        9.607      193.679      174.406       92.303        0.100        0.023       39.170        2.559        0.004      332.596        1.361      865.898
01/20/2015  07:42:00        3.962       47.659       -4.448        9.949       10.666        8.327       98.989      113.772       69.342        0.129        0.014       47.824        6.299        0.017      332.696        1.527      865.890
01/20/2015  07:43:00        8.195       67.314       -8.820       10.302       15.190        6.754      106.139      230.721       45.617        0.253        0.019       67.811        5.891        0.008      332.693        1.520      865.885
01/20/2015  07:44:00        9.950       74.803      -11.688        6.516        9.046        4.855       42.454       81.824       23.573        0.299        0.007       75.462        2.623        0.001      332.726        1.577      865.878
01/20/2015  07:45:00       14.421       68.460      -12.605       10.952       10.085        6.422      119.948      101.710       41.242        0.266        0.013       69.962        3.875        0.003      332.742        1.601      865.874
01/20/2015  07:46:00       14.360       70.907      -11.125        6.614        8.527        5.758       43.739       72.706       33.153        0.275        0.007       72.346        2.487        0.001      332.759        1.632      865.874
01/20/2015  07:47:00       23.144       65.143       -8.541       10.058       11.189        8.625      101.170      125.195       74.386        0.258        0.015       69.132        7.662        0.012      332.756        1.626      865.873
01/20/2015  07:48:00       22.095       62.528       -9.494        7.245       10.730        6.568       52.490      115.133       43.140        0.235        0.011       66.317        4.811        0.005      332.742        1.603      865.879
01/20/2015  07:49:00        9.744       61.602      -11.547        4.861        6.844        4.258       23.632       46.837       18.131        0.206        0.004       62.367        2.326        0.001      332.808        1.719      865.890
01/20/2015  07:50:00        4.163       45.771       -4.885        3.750        3.594        3.234       14.061       12.920       10.462        0.109        0.002       45.959        1.488        0.001      332.815        1.729      865.907
01/20/2015  07:51:00        6.382       41.250       -2.879        5.583        5.221        4.671       31.173       27.260       21.821        0.092        0.004       41.741        2.696        0.004      332.820        1.737      865.924
01/20/2015  07:52:00        3.162       34.903       -5.006        5.417        8.722        2.948       29.349       76.069        8.691        0.068        0.006       35.046        3.121        0.008      332.823        1.736      865.944
01/20/2015  07:53:00       -4.452       11.866        1.108        4.458        9.206        4.539       19.874       84.743       20.599        0.014        0.006       12.674        4.916        0.150      332.822        1.736      865.951
01/20/2015  07:54:00      -11.881        0.206        1.001        7.875        4.866        6.618       62.008       23.677       43.802        0.014        0.006       11.883        5.524        0.216      332.783        1.670      865.951
01/20/2015  07:55:00      -15.345       -0.043       -2.338        6.676        6.342       10.666       44.567       40.219      113.774        0.022        0.010       15.345        6.880        0.201      332.816        1.727      865.953
01/20/2015  07:56:00        1.266        2.200        4.097        8.665        3.517        7.011       75.089       12.368       49.160        0.008        0.007        2.539        3.245        1.634      332.895        1.856      865.955
01/20/2015  07:57:00       11.646       11.976       11.981       10.919        6.354        6.547      119.225       40.373       42.869        0.031        0.010       16.705        4.601        0.076      332.922        1.900      865.960
01/20/2015  07:58:00       29.989       21.091        9.192        9.438        7.472       11.654       89.071       55.829      135.817        0.085        0.014       36.663        5.318        0.021      332.933        1.918      865.968
01/20/2015  07:59:00       12.341        7.052        8.394       14.178       10.102       10.729      201.013      102.043      115.101        0.035        0.021       14.214        9.922        0.487      332.965        1.971      865.974
01/20/2015  08:00:00       -0.687      -12.968        5.296       13.224       15.200       13.813      174.878      231.051      190.791        0.040        0.030       12.986       11.930        0.844      333.071        2.146      865.978
01/20/2015  08:01:00      -15.462        0.549        2.075       11.976        9.503       10.376      143.423       90.314      107.658        0.029        0.017       15.472        7.981        0.266      332.950        1.945      865.988
01/20/2015  08:02:00      -25.021       -2.830       -4.933       10.186        5.610        6.582      103.746       31.470       43.326        0.042        0.009       25.180        5.273        0.044      332.938        1.929      866.006
01/20/2015  08:03:00      -16.003      -13.413       -3.319        8.390        8.522        5.571       70.393       72.631       31.042        0.031        0.009       20.881        2.427        0.014      332.983        1.999      866.006
01/20/2015  08:04:00      -21.266      -23.340        2.556       19.404       11.378       10.344      376.506      129.460      106.998        0.081        0.031       31.576       11.224        0.126      333.040        2.095      866.018
01/20/2015  08:05:00      -13.602      -13.010       -0.815       18.191       12.005       12.188      330.923      144.127      148.558        0.049        0.031       18.822       10.320        0.301      333.078        2.158      866.029
01/20/2015  08:06:00      -18.806      -35.370        6.041       19.976       28.016       11.009      399.033      784.915      121.190        0.147        0.065       40.059        9.775        0.060      333.081        2.163      866.034
01/20/2015  08:07:00      -30.604      -52.185       -5.905       17.126       18.351       13.738      293.293      336.749      188.728        0.226        0.041       60.497        9.433        0.024      333.093        2.183      866.046
01/20/2015  08:08:00      -23.311       -6.370       13.772       20.490       19.454        8.553      419.851      378.477       73.152        0.082        0.044       24.166        8.571        0.126      333.131        2.245      866.049
01/20/2015  08:09:00      -16.673       13.295        6.344       17.064       15.307       13.285      291.189      234.307      176.480        0.060        0.035       21.325       10.831        0.258      333.073        2.149      866.061
01/20/2015  08:10:00      -30.250      -23.149        2.067       11.882       20.184       12.199      141.174      407.412      148.817        0.108        0.035       38.091        9.085        0.057      333.203        2.363      866.071
01/20/2015  08:11:00      -23.084      -24.548        1.222       27.459       12.897       11.347      754.009      166.330      128.752        0.109        0.052       33.697        7.962        0.056      333.171        2.311      866.065
01/20/2015  08:12:00      -25.796       -2.937       -0.199       24.675       13.983        8.755      608.852      195.527       76.658        0.078        0.044       25.963        5.945        0.052      333.185        2.336      866.080
01/20/2015  08:13:00      -39.219      -20.839        5.554       28.575       23.920       14.172      816.505      572.186      200.858        0.180        0.079       44.412       15.357        0.120      333.141        2.262      866.087
01/20/2015  08:14:00      -29.942      -20.860       -5.894       13.825       17.462        8.023      191.134      304.915       64.368        0.096        0.028       36.492        4.154        0.013      333.130        2.243      866.097
01/20/2015  08:15:00      -59.132      -27.368       -3.163       37.016       22.284       18.870     1370.188      496.589      356.069        0.324        0.111       65.158       19.240        0.087      333.068        2.140      866.101
01/20/2015  08:16:00      -22.630      -43.122       -2.778       31.001       31.274       18.183      961.045      978.038      330.610        0.232        0.113       48.700       13.820        0.081      332.976        1.990      866.105
01/20/2015  08:17:00      -59.449      -77.529       -9.129       22.372       20.479       17.011      500.500      419.392      289.370        0.542        0.060       97.698       11.797        0.015      332.915        1.889      866.110
01/20/2015  08:18:00      -39.925      -43.145       -0.486       34.621       33.494       20.862     1198.610     1121.828      435.223        0.311        0.138       58.784       22.290        0.144      332.911        1.884      866.115
01/20/2015  08:19:00      -60.883      -66.770       -6.719       26.558       22.856       13.807      705.305      522.391      190.626        0.481        0.071       90.360       13.095        0.021      332.908        1.877      866.107
01/20/2015  08:20:00      -52.577      -77.593       -3.741       23.557       24.455       15.998      554.918      598.026      255.951        0.510        0.070       93.728       14.595        0.024      332.901        1.866      866.106
01/20/2015  08:21:00      -73.862      -68.676       -8.863       20.390       19.038       16.068      415.766      362.447      258.189        0.564        0.052      100.857        5.984        0.004      332.968        1.976      866.097
01/20/2015  08:22:00      -27.769      -31.508       16.262       31.901       23.677       16.243     1017.678      560.598      263.840        0.193        0.092       41.999       10.236        0.059      333.048        2.107      866.089
01/20/2015  08:23:00      -11.623      -16.191       11.262       19.027       35.911       21.422      362.037     1289.607      458.919        0.132        0.106       19.931       18.114        0.826      332.981        1.997      866.086
01/20/2015  08:24:00      -13.791      -26.179       -0.909       28.695       41.506       23.699      823.409     1722.778      561.620        0.199        0.155       29.590       20.140        0.463      332.906        1.874      866.085
01/20/2015  08:25:00        0.819      -37.026       -2.427       19.957       21.761       17.623      398.289      473.539      310.554        0.128        0.059       37.035       11.315        0.093      332.980        1.996      866.085
01/20/2015  08:26:00      -55.575      -54.038       -5.753       27.312       26.351       16.373      745.935      694.353      268.063        0.387        0.085       77.515        7.545        0.009      332.956        1.957      866.086
01/20/2015  08:27:00      -76.379      -56.906       -8.401       35.473       28.147       15.038     1258.330      792.244      226.151        0.571        0.114       95.247        4.924        0.003      332.830        1.749      866.085
01/20/2015  08:28:00      -74.274      -61.682      -10.581       12.843       19.966       13.301      164.943      398.637      176.920        0.509        0.037       96.547        7.990        0.007      332.852        1.786      866.074
01/20/2015  08:29:00      -37.240      -25.009       -6.587       15.344        9.673        7.681      235.435       93.559       59.001        0.122        0.019       44.858        7.097        0.025      332.986        2.006      866.077
01/20/2015  08:30:00      -27.671      -10.173      -10.423       16.874       10.712       11.458      284.726      114.740      131.278        0.075        0.027       29.482        4.289        0.021      333.098        2.192      866.073
01/20/2015  08:31:00      -22.407        3.261       -0.848       14.725       10.638        9.907      216.821      113.164       98.146        0.047        0.021       22.643        6.643        0.086      333.105        2.203      866.069
01/20/2015  08:32:00      -34.475        4.097        0.795        9.662        6.967        8.159       93.358       48.536       66.562        0.071        0.010       34.718        6.415        0.034      333.077        2.156      866.070
01/20/2015  08:33:00      -15.426        8.608       -4.613        7.439        6.589        3.845       55.343       43.416       14.786        0.022        0.006       17.665        3.151        0.032      333.121        2.228      866.071
01/20/2015  08:34:00      -14.193        1.377       -3.555       11.532        4.674        7.398      132.992       21.851       54.729        0.021        0.010       14.260        4.630        0.105      333.256        2.451      866.084
01/20/2015  08:35:00      -24.174        0.956       -2.591        9.473        7.834        3.254       89.744       61.378       10.589        0.038        0.008       24.193        2.420        0.010      333.189        2.341      866.086
01/20/2015  08:36:00      -29.961      -16.936       -4.300        8.500       10.627        5.544       72.254      112.927       30.736        0.071        0.011       34.416        0.635        0.000      333.287        2.504      866.102
01/20/2015  08:37:00      -41.691      -10.925        2.041        8.687        9.389        5.990       75.466       88.158       35.882        0.103        0.010       43.098        0.916        0.000      333.286        2.500      866.116
01/20/2015  08:38:00      -32.608       -0.393       -2.827       11.937        6.052        5.807      142.481       36.628       33.723        0.064        0.011       32.610        4.478        0.019      333.326        2.566      866.130
01/20/2015  08:39:00       -6.780       -1.975       10.446       10.093        5.232       10.593      101.872       27.375      112.209        0.020        0.012        7.061        8.126        1.324      333.757        3.282      866.149
01/20/2015  08:40:00       -0.158       -4.890       13.253        6.171        9.651        6.741       38.083       93.133       45.445        0.019        0.009        4.892        3.010        0.378      333.725        3.228      866.163
01/20/2015  08:41:00        2.502        3.596        1.529       11.363        5.615        8.546      129.108       31.527       73.041        0.013        0.012        4.381        6.175        1.987      333.564        2.961      866.177
01/20/2015  08:42:00       -0.984        5.580        2.478       13.265        6.733        4.077      175.963       45.332       16.624        0.014        0.012        5.666        2.640        0.217      333.509        2.869      866.188
01/20/2015  08:43:00       16.104       17.393       10.411       11.801        9.505       11.119      139.266       90.353      123.634        0.051        0.018       23.704        6.803        0.082      333.594        3.012      866.187
01/20/2015  08:44:00        9.110       14.660       29.242       21.712       13.257        6.534      471.427      175.753       42.697        0.092        0.034       17.260        7.982        0.214      333.739        3.251      866.187
01/20/2015  08:45:00       28.987       30.105       22.378       19.938       16.629       16.658      397.519      276.533      277.483        0.160        0.048       41.791       13.865        0.110      333.620        3.053      866.192
01/20/2015  08:46:00       42.490       31.891      -12.506       16.708       18.902       17.405      279.155      357.276      302.943        0.196        0.047       53.126        5.953        0.013      333.474        2.812      866.206
01/20/2015  08:47:00       22.137       54.822       -7.913       24.651       27.943       14.987      607.652      780.793      224.598        0.259        0.081       59.122       13.734        0.054      333.508        2.867      866.203
01/20/2015  08:48:00        6.135       31.060        2.956       13.326       16.243       16.012      177.590      263.821      256.390        0.085        0.035       31.660       10.958        0.120      333.642        3.092      866.211
01/20/2015  08:49:00       31.663       35.094        0.687       19.467       16.366       17.173      378.956      267.856      294.924        0.159        0.047       47.267        9.456        0.040      333.631        3.072      866.218
01/20/2015  08:50:00       75.222       36.185        7.388       22.232       26.188       20.048      494.257      685.826      401.912        0.430        0.079       83.473       12.621        0.023      333.513        2.875      866.220
01/20/2015  08:51:00       62.259       34.160        6.390       18.958       16.811       16.306      359.389      282.610      265.901        0.300        0.045       71.014        9.796        0.019      333.600        3.022      866.222
01/20/2015  08:52:00       79.204       53.482       10.733       15.857       21.275       19.871      251.444      452.631      394.856        0.517        0.055       95.570       11.050        0.013      333.614        3.044      866.230
01/20/2015  08:53:00      100.452       58.880        2.750       24.795       18.199       21.926      614.770      331.195      480.736        0.750        0.071      116.437       11.376        0.010      333.498        2.848      866.231
01/20/2015  08:54:00       44.818       39.882        4.827       30.057       22.312       18.182      903.436      497.806      330.601        0.268        0.087       59.994       14.395        0.058      333.597        3.015      866.245
01/20/2015  08:55:00       91.000       58.810        2.894       18.383       15.172       17.485      337.930      230.194      305.741        0.631        0.044      108.349       10.482        0.009      333.519        2.885      866.260
01/20/2015  08:56:00       72.097       44.103        7.106       16.474       13.264       13.185      271.393      175.939      173.844        0.391        0.031       84.516        5.673        0.005      333.522        2.890      866.262
01/20/2015  08:57:00       77.844       33.846        5.255       23.702       16.681       15.387      561.770      278.264      236.769        0.415        0.054       84.884        8.189        0.009      333.582        2.991      866.269
01/20/2015  08:58:00       61.297       44.364        4.639       16.606       16.673       17.388      275.768      278.000      302.345        0.330        0.043       75.667        8.518        0.013      333.696        3.178      866.268
01/20/2015  08:59:00       69.089       43.366        5.828       12.218       18.226       15.938      149.279      332.180      254.015        0.371        0.037       81.572        5.808        0.005      333.636        3.080      866.260
01/20/2015  09:00:00       66.419       34.484       -0.740       17.744       17.013       14.647      314.862      289.445      214.527        0.321        0.041       74.837        7.301        0.010      333.681        3.155      866.248
01/20/2015  09:01:00       39.923       30.677       -3.553       29.112       17.599       17.679      847.487      309.711      312.553        0.201        0.073       50.348       12.688        0.064      333.771        3.305      866.245
01/20/2015  09:02:00       62.278       26.914        5.437       18.220       13.264       13.538      331.952      175.944      183.274        0.266        0.035       67.845        9.888        0.021      333.665        3.128      866.238
01/20/2015  09:03:00       79.660       51.251        8.476       24.607       17.948       18.633      605.519      322.133      347.195        0.516        0.064       94.723       13.094        0.019      333.695        3.181      866.237
01/20/2015  09:04:00       76.657       26.509        1.584       29.327       20.647       20.501      860.061      426.310      420.280        0.414        0.085       81.111       16.186        0.040      333.698        3.182      866.229
01/20/2015  09:05:00       66.563       48.640        5.031       23.054       15.668       18.207      531.503      245.488      331.482        0.396        0.055       82.441       14.880        0.033      333.733        3.240      866.230
01/20/2015  09:06:00       42.042       53.113      -10.124       26.204       16.964       15.439      686.665      287.784      238.349        0.295        0.061       67.738        9.207        0.018      333.881        3.487      866.231
01/20/2015  09:07:00       64.332       30.415        3.571       31.281       17.862       18.444      978.476      319.048      340.174        0.336        0.082       71.160       11.936        0.028      333.847        3.431      866.233
01/20/2015  09:08:00       67.144       28.438        1.364       26.081       24.571       19.058      680.225      603.738      363.211        0.348        0.082       72.918       10.272        0.020      333.825        3.394      866.227
01/20/2015  09:09:00       87.043       46.551       -0.183       25.833       21.390       20.705      667.369      457.535      428.704        0.565        0.078       98.709       15.160        0.024      333.718        3.218      866.222
01/20/2015  09:10:00       80.728       55.823        2.893       16.813       15.955       13.119      282.687      254.571      172.099        0.518        0.035       98.149        9.242        0.009      333.704        3.193      866.225
01/20/2015  09:11:00       73.064       58.590        3.005       24.406       18.823       21.959      595.649      354.294      482.208        0.511        0.072       93.655       11.689        0.016      333.733        3.242      866.231
01/20/2015  09:12:00       84.887       62.663        9.859       24.989       17.975       20.790      624.451      323.089      432.228        0.630        0.069      105.511       14.766        0.020      333.721        3.222      866.232
01/20/2015  09:13:00       71.300       56.317       11.191       16.014       20.748       17.535      256.435      430.474      307.479        0.469        0.050       90.859       13.564        0.022      333.754        3.276      866.226
01/20/2015  09:14:00       18.904       56.683       54.934       29.591       29.844       24.929      875.657      890.649      621.463        0.449        0.119       59.753       12.617        0.045      333.985        3.659      866.226
01/20/2015  09:15:00       78.893       61.681       26.962       19.113       20.006       32.381      365.295      400.254     1048.518        0.628        0.091      100.143       13.271        0.018      333.837        3.413      866.236
01/20/2015  09:16:00       63.195       37.494       28.520       26.973       27.170       28.826      727.519      738.189      830.932        0.425        0.115       73.481       21.162        0.083      333.892        3.506      866.243
01/20/2015  09:17:00       85.590       57.967       31.779       44.401       26.451       25.924     1971.460      699.636      672.069        0.752        0.167      103.373       20.271        0.038      333.892        3.504      866.263
01/20/2015  09:18:00       60.372       55.852       41.695       47.416       24.637       33.966     2248.266      606.979     1153.696        0.626        0.200       82.244       35.094        0.182      333.907        3.529      866.269
01/20/2015  09:19:00       82.918       70.528       32.629       30.187       30.705       26.842      911.272      942.805      720.467        0.774        0.129      108.856       21.037        0.037      333.836        3.413      866.288
01/20/2015  09:20:00      104.038       66.525       12.644       38.090       23.332       22.668     1450.817      544.379      513.826        0.896        0.125      123.489       15.258        0.015      333.771        3.304      866.296
01/20/2015  09:21:00       88.257       43.925       17.231       29.154       24.328       29.646      849.936      591.861      878.908        0.617        0.116       98.584       18.658        0.036      333.991        3.668      866.310
01/20/2015  09:22:00       54.498       46.812       25.343       27.413       24.482       26.553      751.498      599.360      705.048        0.393        0.103       71.843       16.984        0.056      334.041        3.752      866.310
01/20/2015  09:23:00       77.462       60.053       19.695       32.651       20.638       27.349     1066.106      425.936      747.947        0.612        0.112       98.014        9.585        0.010      333.976        3.645      866.326
01/20/2015  09:24:00       73.336       66.361       24.538       24.332       18.386       21.370      592.044      338.038      456.674        0.589        0.069       98.903       12.528        0.016      333.891        3.505      866.334
01/20/2015  09:25:00       82.032       67.763        7.454       24.544       21.366       18.347      602.424      456.525      336.619        0.639        0.070      106.401       11.488        0.012      333.893        3.508      866.335
01/20/2015  09:26:00       85.942       65.979       17.659       15.303       16.243       14.035      234.192      263.851      196.974        0.637        0.035      108.348        8.953        0.007      333.871        3.470      866.352
01/20/2015  09:27:00       47.052       59.775       37.185       22.163       20.733       19.590      491.200      429.837      383.783        0.424        0.065       76.072       12.806        0.028      334.006        3.695      866.350
01/20/2015  09:28:00       77.517       42.100       26.221       33.615       30.628       34.171     1129.999      938.085     1167.689        0.585        0.162       88.212       22.485        0.065      334.039        3.749      866.356
01/20/2015  09:29:00       52.879       59.538       19.239       30.068       21.254       26.006      904.061      451.730      676.326        0.437        0.102       79.630       20.423        0.066      334.015        3.710      866.362
01/20/2015  09:30:00       25.449       48.311        0.346       14.585       20.037       18.344      212.729      401.470      336.485        0.197        0.048       54.604        8.723        0.026      334.031        3.735      866.352
01/20/2015  09:31:00        5.670       27.821        2.387       13.943       17.100       12.653      194.403      292.412      160.110        0.073        0.032       28.393        8.407        0.088      334.151        3.935      866.361
01/20/2015  09:32:00       21.529       44.951        2.521       20.014       16.863       16.565      400.568      284.373      274.408        0.172        0.048       49.840       11.954        0.058      334.259        4.113      866.360
01/20/2015  09:33:00       21.950       34.651       -1.652       20.219       26.769       17.825      408.822      716.586      317.729        0.156        0.072       41.019       17.102        0.174      334.326        4.225      866.370
01/20/2015  09:34:00       38.615       15.440        6.888       28.132       36.034       16.588      791.388     1298.423      275.163        0.207        0.118       41.587        5.057        0.015      334.371        4.299      866.380
01/20/2015  09:35:00       40.444       27.061        0.808       34.036       28.164       24.409     1158.478      793.214      595.813        0.246        0.127       48.662       19.694        0.164      334.452        4.435      866.386
01/20/2015  09:36:00        3.088       14.096       34.235       26.278       28.449       19.557      690.534      809.340      382.461        0.163        0.094       14.430       20.484        2.015      334.555        4.605      866.400
01/20/2015  09:37:00       -0.314      108.375      -12.794       16.485       28.220       20.291      271.740      796.341      411.716        0.669        0.074      108.376       17.602        0.026      334.132        3.903      866.404
01/20/2015  09:38:00        3.937       86.811       -9.559       20.142       24.820       18.656      405.690      616.026      348.059        0.451        0.068       86.901       14.861        0.029      334.284        4.156      866.413
01/20/2015  09:39:00       10.164       83.607      -12.398       14.836       22.709       11.115      220.120      515.684      123.536        0.405        0.043       84.223        4.741        0.003      334.205        4.024      866.406
01/20/2015  09:40:00       21.766       83.850      -12.799       22.473       26.005       15.718      505.025      676.271      247.051        0.455        0.071       86.629        7.334        0.007      334.303        4.187      866.411
01/20/2015  09:41:00       14.370       54.919      -16.734       40.379       26.803       14.300     1630.495      718.420      204.487        0.303        0.128       56.768       11.795        0.043      334.262        4.119      866.400
01/20/2015  09:42:00       -7.215       36.636        2.284       24.881       26.991       21.513      619.050      728.539      462.829        0.160        0.091       37.340       19.323        0.268      334.448        4.426      866.398
01/20/2015  09:43:00        9.237       11.503       10.783       13.819       14.122       12.265      190.963      199.426      150.423        0.044        0.027       14.753        9.029        0.375      334.674        4.804      866.386
01/20/2015  09:44:00       33.222       53.406        4.220       44.004       20.680       23.593     1936.337      427.675      556.626        0.345        0.146       62.896       17.449        0.077      334.417        4.376      866.370
01/20/2015  09:45:00       50.775       37.246        7.717       28.804       25.563       20.153      829.693      653.486      406.137        0.296        0.094       62.971       14.253        0.051      334.444        4.420      866.359
01/20/2015  09:46:00       93.274       58.297       31.581       49.902       34.780       28.950     2490.174     1209.669      838.122        0.882        0.227      109.994       18.198        0.027      334.340        4.248      866.352
01/20/2015  09:47:00       98.160       75.343      -11.088       33.541       26.378       25.500     1125.017      695.821      650.269        0.895        0.124      123.742       14.677        0.014      334.281        4.149      866.351
01/20/2015  09:48:00       86.414       59.425       -8.163       33.530       20.548       21.064     1124.262      422.234      443.699        0.653        0.100      104.875       14.502        0.019      334.205        4.022      866.353
01/20/2015  09:49:00       82.730       52.344        6.181       21.585       22.636       23.879      465.921      512.385      570.193        0.559        0.077       97.899       12.446        0.016      334.226        4.059      866.345
01/20/2015  09:50:00       38.837       28.785        3.728       13.563       13.497       15.964      183.947      182.167      254.840        0.149        0.031       48.341        5.889        0.015      334.259        4.112      866.343
01/20/2015  09:51:00        4.287        7.833        5.515       20.013       20.092       16.315      400.536      403.672      266.183        0.059        0.054        8.929       12.383        1.923      334.639        4.743      866.339
01/20/2015  09:52:00      -22.588       55.557        7.973       15.178       24.365       18.712      230.384      593.654      350.121        0.242        0.059       59.973       14.345        0.057      334.661        4.780      866.338
01/20/2015  09:53:00       35.697       21.828       20.047       34.971       26.788       21.620     1222.991      717.587      467.410        0.228        0.120       41.842       18.169        0.189      334.728        4.894      866.332
01/20/2015  09:54:00       67.225       59.783        3.177       54.097       30.786       30.406     2926.437      947.795      924.502        0.645        0.240       89.962       21.039        0.055      334.310        4.199      866.330
01/20/2015  09:55:00       25.820       14.278       13.245       28.036       13.470       20.131      786.028      181.430      405.270        0.121        0.069       29.505       12.436        0.178      334.641        4.748      866.322
01/20/2015  09:56:00       57.059       59.135       31.137       43.440       33.628       43.806     1887.068     1130.840     1918.925        0.633        0.247       82.175       23.805        0.084      334.575        4.637      866.322
01/20/2015  09:57:00       45.485       33.371       41.486       34.227       39.301       34.492     1171.495     1544.582     1189.680        0.440        0.195       56.414       26.827        0.226      334.368        4.295      866.326
01/20/2015  09:58:00       62.601       61.667       15.106       32.069       28.598       33.870     1028.431      817.840     1147.175        0.547        0.150       87.874       16.018        0.033      334.398        4.345      866.333
01/20/2015  09:59:00       34.883       13.537       29.825       39.421       27.940       32.727     1554.038      780.648     1071.060        0.285        0.170       37.418       31.443        0.706      334.421        4.383      866.349
01/20/2015  10:00:00       33.450      -64.613        0.995       43.361       48.366       38.838     1880.148     2339.262     1508.409        0.551        0.286       72.758       40.420        0.309      334.520        4.547      866.366
01/20/2015  10:01:00       35.146      -69.539       -1.845       44.898       47.908       38.373     2015.798     2295.175     1472.464        0.593        0.289       77.916       28.263        0.132      334.578        4.643      866.386
01/20/2015  10:02:00       34.711      -21.385       50.555       35.916       93.348       31.969     1289.993     8713.819     1021.996        0.762        0.551       40.770       40.048        0.965      334.544        4.587      866.406
01/20/2015  10:03:00      139.273       78.263       13.390       48.093       34.196       40.086     2312.950     1169.378     1606.863        1.539        0.254      159.756       19.826        0.015      334.337        4.243      866.425
01/20/2015  10:04:00       25.797       41.822      -10.689       27.194       25.504       14.759      739.534      650.478      217.842        0.207        0.080       49.138       10.188        0.043      334.463        4.453      866.430
01/20/2015  10:05:00       51.160       48.810        7.893       53.706       28.335       19.991     2884.338      802.899      399.647        0.457        0.204       70.709       18.030        0.065      334.700        4.845      866.426
01/20/2015  10:06:00       48.466       62.645       51.791       37.754       31.571       31.162     1425.345      996.736      971.089        0.617        0.170       79.204       25.451        0.103      334.919        5.209      866.421
01/20/2015  10:07:00       25.470       57.450       73.444       55.568       39.784       33.073     3087.826     1582.778     1093.856        0.755        0.288       62.843       28.423        0.205      334.979        5.309      866.419
01/20/2015  10:08:00      100.022       55.245       51.507       93.522       56.454       42.368     8746.316     3187.042     1795.067        1.472        0.686      114.265       37.486        0.108      334.937        5.239      866.410
01/20/2015  10:09:00      106.577       74.692       19.507       45.234       35.411       31.079     2046.121     1253.961      965.923        1.079        0.213      130.144       20.687        0.025      334.459        4.446      866.413
01/20/2015  10:10:00       70.858       57.780       18.852       42.208       35.922       41.275     1781.508     1290.404     1703.619        0.674        0.239       91.430       32.382        0.125      334.555        4.605      866.412
01/20/2015  10:11:00       87.896       79.732       12.833       61.665       46.021       45.973     3802.616     2117.896     2113.558        1.114        0.402      118.672       31.933        0.072      334.547        4.591      866.416
01/20/2015  10:12:00      128.660      109.005       11.438       63.509       39.223       53.307     4033.449     1538.422     2841.671        1.849        0.421      168.628       25.338        0.023      334.498        4.510      866.412
01/20/2015  10:13:00      154.612       91.424        0.726       51.338       33.428       31.939     2635.622     1117.413     1020.114        1.852        0.239      179.619       16.607        0.009      334.438        4.409      866.423
01/20/2015  10:14:00       79.553       66.817       -5.217       39.464       34.354       27.287     1557.391     1180.185      744.577        0.715        0.174      103.890       17.680        0.029      334.536        4.573      866.410
01/20/2015  10:15:00       56.313       25.630       11.496       13.129       18.516       18.582      172.362      342.842      345.277        0.241        0.043       61.871       11.455        0.034      334.528        4.560      866.394
01/20/2015  10:16:00       50.222       24.382        7.472       23.487       19.717       18.695      551.621      388.757      349.504        0.223        0.064       55.827        9.794        0.031      334.520        4.546      866.388
01/20/2015  10:17:00       14.388       45.274       53.864       44.464       52.562       50.524     1977.066     2762.796     2552.680        0.622        0.365       47.506       43.927        0.855      334.958        5.274      866.363
01/20/2015  10:18:00      105.604      102.867       55.191       99.523       55.074       56.576     9904.855     3033.162     3200.833        2.046        0.807      147.424       61.488        0.174      334.887        5.154      866.358
01/20/2015  10:19:00      101.307       98.312       41.000       69.326       34.743       46.468     4806.026     1207.051     2159.263        1.489        0.409      141.168       24.128        0.029      334.904        5.183      866.354
01/20/2015  10:20:00      113.374       68.653       31.964       47.167       58.039       41.313     2224.682     3368.526     1706.774        1.294        0.365      132.540       39.154        0.087      334.822        5.047      866.345
01/20/2015  10:21:00       75.294       50.555       24.636       30.133       40.498       28.039      907.975     1640.053      786.181        0.608        0.167       90.692       19.626        0.047      334.672        4.799      866.340
01/20/2015  10:22:00       78.753       65.308       27.206       58.740       49.521       38.342     3450.391     2452.323     1470.079        0.929        0.369      102.310       26.215        0.066      334.896        5.171      866.323
01/20/2015  10:23:00       55.813       57.445       33.733       51.370       42.526       46.865     2638.905     1808.464     2196.321        0.710        0.332       80.094       30.014        0.140      335.059        5.442      866.324
01/20/2015  10:24:00       54.812       72.144        9.251       58.730       43.607       36.689     3449.244     1901.529     1346.102        0.749        0.335       90.604       28.229        0.097      334.922        5.215      866.332
01/20/2015  10:25:00        5.343       96.949       -8.823       29.778       49.857       21.890      886.731     2485.696      479.161        0.668        0.193       97.096       21.408        0.049      334.711        4.865      866.329
01/20/2015  10:26:00      104.220       74.866       16.214       55.487       41.882       30.754     3078.836     1754.130      945.818        1.125        0.289      128.323       26.533        0.043      334.750        4.928      866.326
01/20/2015  10:27:00       82.393       30.250       27.884       66.554       50.764       35.990     4429.406     2577.016     1295.274        0.839        0.415       87.771       23.080        0.069      334.981        5.313      866.325
01/20/2015  10:28:00       81.466       70.671       34.555       82.387       52.790       44.915     6787.614     2786.769     2017.355        1.221        0.580      107.847       43.730        0.164      335.173        5.632      866.325
01/20/2015  10:29:00       14.370       92.246      112.434       52.415       51.691       33.803     2747.370     2672.001     1142.675        1.396        0.328       93.359       33.597        0.130      335.228        5.723      866.340
01/20/2015  10:30:00       95.644      102.661       95.333       60.417       51.617       43.309     3650.211     2664.329     1875.637        1.848        0.410      140.310       36.822        0.069      334.790        4.994      866.351
01/20/2015  10:31:00      122.302      124.223      102.887       53.906       59.607       46.270     2905.883     3552.977     2140.905        2.479        0.430      174.325       39.318        0.051      334.760        4.941      866.361
01/20/2015  10:32:00      142.871      134.427      105.169       59.575       48.125       52.208     3549.172     2315.982     2725.678        2.907        0.430      196.170       40.021        0.042      334.733        4.898      866.366
01/20/2015  10:33:00      125.380      126.304      116.230       89.620       75.462       59.338     8031.713     5694.447     3520.980        3.121        0.862      177.969       55.789        0.098      334.770        4.959      866.366
01/20/2015  10:34:00       66.873       97.318       98.255       72.752       62.782       39.235     5292.823     3941.533     1539.423        1.718        0.539      118.080       37.195        0.099      334.795        5.002      866.373
01/20/2015  10:35:00       15.236       86.443      106.324       59.375       65.406       50.818     3525.378     4277.976     2582.465        1.470        0.519       87.776       50.173        0.327      335.099        5.507      866.368
01/20/2015  10:36:00      114.169       83.189       96.962       67.588       62.163       60.705     4568.154     3864.275     3685.142        2.074        0.606      141.262       41.555        0.087      334.796        5.003      866.366
01/20/2015  10:37:00      102.042       57.161       75.861       57.896       73.319       46.088     3351.974     5375.614     2124.126        1.514        0.543      116.961       40.875        0.122      334.901        5.178      866.360
01/20/2015  10:38:00       90.253       63.157       25.208       54.462       40.480       46.996     2966.112     1638.666     2208.642        0.979        0.341      110.156       13.316        0.015      335.099        5.508      866.351
01/20/2015  10:39:00       97.711       69.598        6.453       56.579       41.039       47.735     3201.127     1684.161     2278.617        1.080        0.358      119.964       29.865        0.062      335.029        5.392      866.319
01/20/2015  10:40:00      100.468       55.211       37.690       67.817       61.964       61.496     4599.135     3839.484     3781.703        1.339        0.611      114.639       32.371        0.080      335.298        5.839      866.293
01/20/2015  10:41:00      103.840      119.265      109.725       91.018       66.131       55.240     8284.218     4373.352     3051.489        2.638        0.785      158.136       52.613        0.111      334.984        5.316      866.255
01/20/2015  10:42:00       38.307       95.941      105.264       82.263       80.664       58.431     6767.168     6506.724     3414.207        1.922        0.834      103.306       55.459        0.288      335.268        5.789      866.231
01/20/2015  10:43:00      143.582      115.669       87.166       92.595       87.970       75.701     8573.780     7738.636     5730.703        3.181        1.102      184.378       66.040        0.128      334.891        5.162      866.216
01/20/2015  10:44:00       82.512      149.270      148.067       66.647       62.090       51.686     4441.801     3855.218     2671.427        3.099        0.548      170.557       49.007        0.083      334.808        5.021      866.191
01/20/2015  10:45:00      104.554       26.141       46.984       44.207       53.329       47.561     1954.299     2843.946     2262.080        1.044        0.353      107.772       38.001        0.124      334.784        4.986      866.197
01/20/2015  10:46:00       52.552       42.494       51.980       48.861       44.219       37.059     2387.429     1955.281     1373.383        0.649        0.286       67.583       31.945        0.223      335.173        5.632      866.173
01/20/2015  10:47:00      140.579       83.908       42.975       71.121       50.092       59.075     5058.170     2509.250     3489.859        1.985        0.553      163.716       39.227        0.057      335.158        5.605      866.170
01/20/2015  10:48:00       81.179       98.346       84.186       71.544       64.991       45.878     5118.568     4223.801     2104.817        1.740        0.572      127.522       37.917        0.088      335.040        5.410      866.178
01/20/2015  10:49:00       61.101       43.153       61.455       65.053       54.170       42.666     4231.854     2934.385     1820.379        0.918        0.449       74.803       29.985        0.161      335.216        5.703      866.184
01/20/2015  10:50:00       27.865       35.705       70.052       31.069       39.517       16.499      965.309     1561.592      272.230        0.488        0.140       45.292       14.925        0.109      335.433        6.064      866.180
01/20/2015  10:51:00      106.387       62.781       31.824       68.650       53.156       43.743     4712.853     2825.559     1913.420        1.286        0.473      123.529       31.637        0.066      335.216        5.702      866.172
01/20/2015  10:52:00      133.048       83.033       24.692       64.145       42.363       32.999     4114.564     1794.626     1088.943        1.610        0.350      156.831       33.245        0.045      335.051        5.427      866.179
01/20/2015  10:53:00      110.189       69.033       24.804       53.940       30.088       32.157     2909.508      905.260     1034.082        1.118        0.242      130.028       25.349        0.038      335.147        5.587      866.163
01/20/2015  10:54:00      124.440       93.373       15.544       31.063       28.038       27.957      964.940      786.154      781.604        1.349        0.127      155.576       11.393        0.005      334.889        5.159      866.164
01/20/2015  10:55:00       14.638       35.865        4.186       51.584       22.394       21.711     2660.926      501.489      471.375        0.258        0.182       38.737       17.333        0.200      335.273        5.798      866.148
01/20/2015  10:56:00        7.416       44.200       -3.209       33.203       22.720       23.111     1102.456      516.177      534.101        0.209        0.108       44.818        9.139        0.042      335.343        5.914      866.150
01/20/2015  10:57:00       14.572      105.369       -0.501       70.996       58.216       39.555     5040.450     3389.131     1564.630        1.065        0.500      106.372       34.584        0.106      335.288        5.822      866.128
01/20/2015  10:58:00      123.855       70.684       10.401       41.270       31.420       35.511     1703.199      987.216     1261.062        1.220        0.198      142.606       13.345        0.009      335.387        5.988      866.110
01/20/2015  10:59:00       35.989       43.151       39.206       53.388       59.903       47.628     2850.275     3588.405     2268.416        0.670        0.435       56.189       24.212        0.186      335.762        6.611      866.112
01/20/2015  11:00:00       73.988       71.903       39.848       81.449       43.529       49.786     6634.008     1894.740     2478.618        1.162        0.550      103.171       46.617        0.204      335.698        6.506      866.107
01/20/2015  11:01:00       60.355       70.862        2.363       53.532       42.233       33.523     2865.709     1783.614     1123.792        0.722        0.289       93.081       21.379        0.053      335.426        6.052      866.103
01/20/2015  11:02:00      107.239       85.837       15.112       41.539       37.914       31.639     1725.529     1437.493     1001.029        1.163        0.208      137.362       17.105        0.016      335.177        5.638      866.101
01/20/2015  11:03:00       43.714       41.170       20.500       47.907       35.675       33.115     2295.095     1272.685     1096.592        0.434        0.233       60.049       17.916        0.089      335.816        6.703      866.087
01/20/2015  11:04:00       44.824       67.137        6.279       59.807       65.962       46.025     3576.900     4351.037     2118.313        0.830        0.502       80.725       39.484        0.239      335.822        6.712      866.083
01/20/2015  11:05:00       38.244       97.069        0.652       56.787       52.228       44.450     3224.816     2727.747     1975.758        0.941        0.396      104.331       36.345        0.121      335.429        6.057      866.073
01/20/2015  11:06:00       58.179       50.656       11.982       54.110       32.287       28.999     2927.903     1042.449      840.923        0.545        0.241       77.142       20.600        0.071      335.776        6.637      866.064
01/20/2015  11:07:00      116.575       79.811       15.370       63.366       44.167       52.784     4015.238     1950.683     2786.155        1.447        0.438      141.278       35.682        0.064      335.739        6.571      866.050
01/20/2015  11:08:00       59.282       45.992       46.126       47.073       30.129       46.249     2215.906      907.728     2138.974        0.651        0.263       75.031       36.119        0.232      335.539        6.239      866.032
01/20/2015  11:09:00       59.455       56.621       58.128       63.222       50.558       49.097     3997.039     2556.062     2410.514        0.954        0.448       82.103       41.237        0.252      335.661        6.443      866.014
01/20/2015  11:10:00       60.195       70.801       -7.440       41.387       33.903       31.059     1712.925     1149.403      964.682        0.626        0.191       92.932       19.195        0.043      335.454        6.097      865.998
01/20/2015  11:11:00       26.081       72.272        5.824       40.349       47.177       26.728     1628.062     2225.667      714.360        0.525        0.228       76.834       27.319        0.126      335.727        6.554      865.970
01/20/2015  11:12:00       75.854       67.153       75.141       63.517       52.396       49.172     4034.429     2745.325     2417.927        1.255        0.460      101.308       39.337        0.151      335.774        6.632      865.948
01/20/2015  11:13:00       97.742       79.106       47.593      106.840       56.331       42.862    11414.739     3173.233     1837.143        1.725        0.821      125.743       38.460        0.094      335.821        6.708      865.918
01/20/2015  11:14:00      162.516      118.353       16.625       64.121       56.927       47.636     4111.492     3240.672     2269.159        2.516        0.481      201.044       28.379        0.020      335.450        6.091      865.913
01/20/2015  11:15:00      163.533      106.245       32.535       69.596       42.441       51.488     4843.593     1801.213     2651.001        2.419        0.465      195.016       33.815        0.030      335.650        6.423      865.903
01/20/2015  11:16:00      110.126       86.680       19.653       85.252       50.116       51.146     7267.946     2511.635     2615.905        1.621        0.620      140.147       51.963        0.137      335.945        6.916      865.890
01/20/2015  11:17:00       17.768       81.827       61.949       64.508       42.790       52.787     4161.254     1831.014     2786.498        0.981        0.439       83.734       45.983        0.302      336.312        7.529      865.890
01/20/2015  11:18:00       22.539      115.246      -16.945       35.185       53.035       38.634     1238.002     2812.746     1492.607        0.981        0.277      117.429       37.902        0.104      335.797        6.671      865.887
01/20/2015  11:19:00       70.529       54.975        9.765       62.233       52.816       29.485     3873.000     2789.490      869.365        0.781        0.377       89.423       28.454        0.101      335.747        6.586      865.878
01/20/2015  11:20:00      109.272       42.320       -5.622       71.073       55.685       45.238     5051.407     3100.782     2046.491        1.198        0.510      117.181       21.727        0.034      335.794        6.665      865.873
01/20/2015  11:21:00      114.895       81.671       13.830       56.480       33.494       41.776     3189.944     1121.846     1745.205        1.306        0.303      140.965       14.662        0.011      335.645        6.416      865.858
01/20/2015  11:22:00      138.814       87.060       -4.321       42.397       36.900       22.854     1797.468     1361.603      522.300        1.527        0.184      163.856       14.486        0.008      335.418        6.038      865.843
01/20/2015  11:23:00       49.577       48.681        6.309       35.118       35.899       28.443     1233.297     1288.720      808.985        0.410        0.167       69.482       17.957        0.067      335.680        6.474      865.821
01/20/2015  11:24:00       66.650       43.205        8.212       80.050       46.964       33.701     6408.009     2205.607     1135.734        0.806        0.487       79.429       31.183        0.154      335.929        6.890      865.800
01/20/2015  11:25:00      101.949       55.935        6.160       51.241       42.295       36.650     2625.648     1788.892     1343.222        0.966        0.288      116.285       16.381        0.020      336.149        7.256      865.780
01/20/2015  11:26:00      150.050      106.351        5.730       54.515       49.050       54.232     2971.848     2405.861     2941.086        2.109        0.416      183.917       32.103        0.030      335.849        6.755      865.789
01/20/2015  11:27:00      125.527       92.861       -7.988       51.553       33.608       32.955     2657.748     1129.517     1086.025        1.466        0.244      156.142       14.724        0.009      335.517        6.203      865.766
01/20/2015  11:28:00       85.222       53.720        1.450       30.885       20.441       24.077      953.864      417.832      579.723        0.605        0.098      100.740       14.406        0.020      335.522        6.212      865.746
01/20/2015  11:29:00       51.622       58.893        4.373       45.518       40.256       36.838     2071.872     1620.515     1357.035        0.560        0.252       78.315       31.998        0.167      335.790        6.658      865.712
01/20/2015  11:30:00        0.014       87.384       -5.444       22.627       32.705       24.797      511.991     1069.589      614.893        0.493        0.110       87.384       19.105        0.048      335.849        6.757      865.693
01/20/2015  11:31:00       -4.415       50.401       -0.171       28.412       32.336       22.389      807.239     1045.632      501.272        0.246        0.118       50.594       20.000        0.156      336.071        7.128      865.647
01/20/2015  11:32:00       76.017       75.408       42.271       40.589       39.342       35.174     1647.487     1547.771     1237.182        0.884        0.222      107.074       30.804        0.083      335.956        6.935      865.625
01/20/2015  11:33:00       48.412      115.700      126.492       81.703       72.515       57.849     6675.367     5258.489     3346.511        2.350        0.764      125.421       52.777        0.177      336.264        7.448      865.587
01/20/2015  11:34:00       66.123       79.883       67.341       81.678       64.061       62.923     6671.300     4103.864     3959.331        1.501        0.737      103.699       52.208        0.253      336.512        7.864      865.571
01/20/2015  11:35:00       66.627      -84.946       27.275       71.083      118.217       72.519     5052.784    13975.262     5259.006        1.834        1.214      107.958       90.745        0.707      336.254        7.432      865.548
01/20/2015  11:36:00       49.637       59.205       68.011       66.142      101.972       79.318     4374.704    10398.211     6291.398        1.583        1.053       77.260       85.783        1.233      336.154        7.264      865.523
01/20/2015  11:37:00       50.862       46.900       11.409       49.083       44.181       33.602     2409.168     1951.974     1129.107        0.520        0.275       69.185       24.308        0.123      335.956        6.934      865.505
01/20/2015  11:38:00      121.258       66.242       17.584       64.560       46.764       36.719     4167.994     2186.831     1348.315        1.355        0.385      138.172       24.375        0.031      335.960        6.940      865.467
01/20/2015  11:39:00      129.918       59.270       23.316       60.574       40.282       43.545     3669.179     1622.648     1896.185        1.406        0.359      142.799       16.392        0.013      336.170        7.292      865.433
01/20/2015  11:40:00      105.420       90.649       24.044       75.117       40.464       46.376     5642.507     1637.330     2150.761        1.467        0.472      139.035       43.389        0.097      336.439        7.742      865.401
01/20/2015  11:41:00      137.966      105.254       19.404       53.778       43.885       47.643     2892.048     1925.870     2269.888        1.879        0.354      173.530       35.416        0.042      335.898        6.836      865.379
01/20/2015  11:42:00       99.477       88.763       33.735       47.082       43.799       49.907     2216.752     1918.360     2490.703        1.277        0.331      133.321       33.986        0.065      336.025        7.049      865.346
01/20/2015  11:43:00      -13.391       78.444      -14.250       25.849       51.734       20.756      668.166     2676.412      430.816        0.515        0.189       79.579       18.250        0.053      336.056        7.102      865.327
01/20/2015  11:44:00      121.362     -102.663       15.765      103.915      104.065       59.497    10798.368    10829.509     3539.922        2.534        1.258      158.961       42.832        0.073      336.171        7.292      865.297
01/20/2015  11:45:00      100.552      -13.782       47.457       84.633      118.374       83.645     7162.682    14012.374     6996.511        2.036        1.409      101.492       87.410        0.742      336.122        7.211      865.286
01/20/2015  11:46:00       65.331       -6.071       42.479       71.648       54.716       44.057     5133.474     2993.854     1941.017        0.809        0.503       65.612       45.130        0.473      336.107        7.185      865.279
01/20/2015  11:47:00       97.155      -43.800        0.658       49.656       39.367       32.093     2465.690     1549.781     1029.972        0.820        0.252      106.571       26.846        0.063      336.057        7.104      865.263
01/20/2015  11:48:00       30.403       55.307       84.048       59.779       61.701       45.320     3573.546     3807.012     2053.946        1.024        0.472       63.113       33.987        0.290      336.460        7.777      865.235
01/20/2015  11:49:00       87.581       54.716       42.215       54.799       69.182       56.563     3002.923     4786.159     3199.337        1.172        0.549      103.267       44.018        0.182      336.206        7.352      865.214
01/20/2015  11:50:00        3.844        8.618       26.046       24.850       31.530       20.731      617.510      994.135      429.763        0.140        0.102        9.436       14.231        2.275      336.767        8.290      865.185
01/20/2015  11:51:00       21.654       68.245       68.194       33.508       38.454       37.495     1122.757     1478.732     1405.878        0.689        0.200       71.598       27.544        0.148      336.671        8.131      865.169
01/20/2015  11:52:00        9.492        3.437       73.690       43.976       95.519       55.699     1933.865     9123.830     3102.329        0.984        0.708       10.095       55.245       29.950      336.657        8.106      865.130
01/20/2015  11:53:00       45.643        8.848       52.796       42.572       39.725       33.341     1812.383     1578.076     1111.634        0.472        0.225       46.493       13.993        0.091      336.374        7.633      865.127
01/20/2015  11:54:00        6.140       -8.515        4.735       25.311       20.664       21.487      640.666      426.999      461.695        0.083        0.076       10.498       19.603        3.487      336.474        7.801      865.098
01/20/2015  11:55:00       15.170       18.623       24.089       20.991       31.291       19.819      440.609      979.156      392.798        0.148        0.091       24.020       14.022        0.341      336.648        8.092      865.069
01/20/2015  11:56:00       28.208       71.070       86.620       53.726       33.868       28.954     2886.499     1147.041      838.353        0.911        0.244       76.463       30.663        0.161      336.769        8.293      865.046
01/20/2015  11:57:00       32.241       46.050       66.877       45.661       38.105       34.923     2084.951     1451.989     1219.597        0.619        0.238       56.215       22.965        0.167      336.958        8.609      865.026
01/20/2015  11:58:00       28.575      -55.066       28.105       33.412       64.082       32.700     1116.392     4106.444     1069.259        0.546        0.315       62.039       35.435        0.326      336.746        8.256      865.013
01/20/2015  11:59:00       53.472       72.734       53.497       63.771       48.560       47.232     4066.752     2358.088     2230.864        0.983        0.433       90.274       33.343        0.136      336.590        7.992      864.987
01/20/2015  12:00:00       87.917       65.981       40.746       38.656       44.936       38.323     1494.324     2019.282     1468.682        0.936        0.249      109.922       24.850        0.051      336.172        7.294      864.976
01/20/2015  12:01:00       83.353      129.596      118.247       70.593       73.480       51.451     4983.344     5399.251     2647.254        2.538        0.651      154.087       44.908        0.085      336.303        7.512      864.964
01/20/2015  12:02:00      108.059       70.002       94.153       84.244       59.436       46.499     7096.985     3532.641     2162.188        1.911        0.640      128.752       36.553        0.081      336.352        7.598      864.964
01/20/2015  12:03:00      151.650       92.661       37.400       78.886       46.516       54.428     6223.058     2163.703     2962.414        2.216        0.567      177.718       22.462        0.016      336.159        7.273      864.965
01/20/2015  12:04:00      136.583       84.503       39.594       71.983       63.132       48.380     5181.620     3985.654     2340.652        1.943        0.575      160.610       30.971        0.037      336.335        7.566      864.964
01/20/2015  12:05:00       87.870      100.466      107.496      109.343       78.771       71.757    11955.859     6204.821     5149.053        2.634        1.165      133.471       69.933        0.275      336.346        7.585      864.966
01/20/2015  12:06:00       93.664       88.902       54.066       94.755      100.095       94.674     8978.504    10019.001     8963.177        2.378        1.398      129.138       85.099        0.434      336.523        7.880      864.948
01/20/2015  12:07:00      146.783       72.786        7.668       85.699       61.768       50.252     7344.245     3815.322     2525.273        2.029        0.684      163.838       17.790        0.012      336.582        7.979      864.960
01/20/2015  12:08:00      122.722      118.373       49.729       87.450       54.869       71.466     7647.471     3010.587     5107.351        2.365        0.788      170.507       60.210        0.125      336.452        7.760      864.938
01/20/2015  12:09:00      169.000      109.520        9.973       73.415       48.906       47.887     5389.770     2391.777     2293.181        2.536        0.504      201.384       28.550        0.020      336.310        7.522      864.944
01/20/2015  12:10:00       94.975       81.767       12.642       76.649       56.822       47.594     5874.995     3228.729     2265.185        1.362        0.568      125.324       37.887        0.091      336.139        7.240      864.933
01/20/2015  12:11:00      145.010      117.283       18.452       64.503       44.524       55.126     4160.647     1982.366     3038.909        2.215        0.459      186.502       33.048        0.031      336.163        7.277      864.911
01/20/2015  12:12:00       43.656       17.940       13.153       55.169       33.629       38.023     3043.564     1130.918     1445.741        0.401        0.281       47.198       22.521        0.228      336.464        7.783      864.882
01/20/2015  12:13:00       80.380       72.215        3.707       61.323       45.130       40.207     3760.543     2036.743     1616.601        0.955        0.371      108.055       29.353        0.074      336.264        7.448      864.844
01/20/2015  12:14:00       88.266       80.871       -0.132       45.895       48.711       37.228     2106.319     2372.782     1385.959        1.010        0.293      119.712       25.859        0.047      336.306        7.519      864.823
01/20/2015  12:15:00       17.524      113.035      -11.973       28.127       37.861       26.923      791.125     1433.453      724.870        0.809        0.147      114.385       19.873        0.030      336.269        7.458      864.793
01/20/2015  12:16:00      -35.709       77.116      -13.765       27.333       25.588       24.332      747.094      654.757      592.028        0.470        0.100       84.982       19.611        0.053      336.279        7.475      864.776
01/20/2015  12:17:00      -30.203       63.092       -3.779       33.092       39.289       28.343     1095.085     1543.598      803.313        0.417        0.172       69.949       20.488        0.086      336.445        7.751      864.757
01/20/2015  12:18:00       79.295       47.534       24.130       55.206       42.426       44.387     3047.721     1799.965     1970.241        0.797        0.341       92.451       17.285        0.035      336.636        8.071      864.744
01/20/2015  12:19:00       99.881        6.522       12.109       70.079       44.301       33.079     4911.068     1962.562     1094.213        0.907        0.398      100.094       18.969        0.036      336.393        7.664      864.732
01/20/2015  12:20:00       16.494      -24.816       -4.153       33.735       32.261       18.031     1138.067     1040.741      325.130        0.170        0.125       29.798       12.507        0.176      336.575        7.969      864.733
01/20/2015  12:21:00      -69.206       84.148      -26.129       41.638       83.401       20.798     1733.751     6955.810      432.550        1.084        0.456      108.951       14.904        0.019      336.371        7.629      864.718
01/20/2015  12:22:00      -28.663      171.041      -21.492       36.902       44.533       24.519     1361.760     1983.171      601.193        1.724        0.197      173.426       25.341        0.021      336.303        7.513      864.703
01/20/2015  12:23:00       -8.222      128.392       -0.130       46.127       65.498       47.274     2127.717     4290.038     2234.817        1.260        0.433      128.655       42.616        0.110      336.415        7.701      864.682
01/20/2015  12:24:00       33.297      127.840       -6.622       42.467       74.937       42.588     1803.479     5615.595     1813.772        1.336        0.462      132.105       47.594        0.130      336.641        8.080      864.663
01/20/2015  12:25:00       48.883       88.393       -0.831       55.076       59.008       37.723     3033.330     3481.983     1423.002        0.907        0.397      101.009       34.043        0.114      336.728        8.225      864.646
01/20/2015  12:26:00       55.441       43.365       15.984       43.233       38.866       30.645     1869.086     1510.546      939.133        0.476        0.216       70.386       10.341        0.022      336.811        8.365      864.630
01/20/2015  12:27:00       29.641       42.947       66.999       89.439       62.332       48.329     7999.405     3885.301     2335.723        1.071        0.711       52.183       50.882        0.951      337.167        8.957      864.610
01/20/2015  12:28:00      118.371       42.646       92.385      102.372      132.738       62.250    10480.089    17619.328     3875.029        2.816        1.599      125.819       87.487        0.483      336.733        8.231      864.589
01/20/2015  12:29:00      142.664     -118.236        7.196       88.504      126.112       69.641     7832.959    15904.147     4849.799        3.148        1.429      185.291       63.718        0.118      336.781        8.311      864.554
01/20/2015  12:30:00       68.051      -32.889       56.888       82.481      113.627       69.367     6803.179    12911.192     4811.843        1.673        1.226       75.582       85.051        1.266      336.682        8.147      864.558
01/20/2015  12:31:00       72.628      -34.124       50.197       72.920      125.929       80.275     5317.289    15858.197     6444.154        1.828        1.381       80.245       96.867        1.457      336.736        8.236      864.540
01/20/2015  12:32:00       79.337      -81.550       39.828       56.835       95.407       56.308     3230.249     9102.484     3170.553        1.501        0.775      113.775       59.085        0.270      336.781        8.313      864.530
01/20/2015  12:33:00       88.801       13.869       69.403       75.286      113.152       58.381     5668.039    12803.423     3408.370        1.738        1.094       89.877       79.039        0.773      336.640        8.078      864.514
01/20/2015  12:34:00       54.637       -9.523       40.409       39.654       42.365       36.246     1572.424     1794.810     1313.781        0.469        0.234       55.460       31.065        0.314      336.703        8.184      864.496
01/20/2015  12:35:00       14.514       -6.941       36.854       31.812       41.327       30.011     1011.978     1707.890      900.648        0.262        0.181       16.088       28.826        3.210      336.784        8.319      864.467
01/20/2015  12:36:00       71.838       20.419       60.986       79.086       92.356       67.899     6254.569     8529.549     4610.316        1.434        0.970       74.683       78.546        1.106      336.855        8.438      864.443
01/20/2015  12:37:00       56.332       31.446       41.727       44.953       34.811       34.589     2020.778     1211.789     1196.398        0.517        0.221       64.514       26.641        0.171      336.594        8.000      864.417
01/20/2015  12:38:00       49.993       67.738       38.483       72.431       51.023       45.478     5246.263     2603.378     2068.224        0.924        0.496       84.189       21.600        0.066      336.777        8.307      864.385
01/20/2015  12:39:00      159.892      -62.420       37.439      106.472      110.862       69.563    11336.336    12290.456     4838.979        2.966        1.423      171.644       79.422        0.214      336.830        8.392      864.367
01/20/2015  12:40:00       93.627      -48.791       59.486       79.778       90.557       65.141     6364.533     8200.569     4243.309        1.674        0.940      105.577       67.147        0.404      336.953        8.600      864.360
01/20/2015  12:41:00       65.117      -48.633        5.691       72.945       68.463       51.610     5320.954     4687.135     2663.541        0.965        0.634       81.274       46.633        0.329      336.889        8.492      864.363
01/20/2015  12:42:00       34.214       24.748       64.016       45.952       41.167       36.179     2111.623     1694.763     1308.951        0.550        0.256       42.227       31.498        0.556      337.064        8.787      864.363
01/20/2015  12:43:00       51.801       -6.596       18.965       38.895       27.869       31.367     1512.825      776.701      983.864        0.318        0.164       52.219       20.731        0.158      336.857        8.441      864.359
01/20/2015  12:44:00       19.241       25.178       36.597       35.782       73.363       41.551     1280.350     5382.069     1726.463        0.536        0.419       31.688       43.131        1.853      337.020        8.713      864.338
01/20/2015  12:45:00       72.969     -130.498       -7.996       39.876       63.671       34.653     1590.081     4053.971     1200.862        1.463        0.342      149.513       30.418        0.041      336.771        8.297      864.329
01/20/2015  12:46:00       60.695      -58.791        8.332       40.105       68.617       43.906     1608.385     4708.235     1927.765        0.773        0.412       84.500       40.095        0.225      336.854        8.436      864.316
01/20/2015  12:47:00       30.392      -50.802        4.881       60.311       82.053       37.108     3637.456     6732.764     1377.023        0.764        0.587       59.199       27.408        0.214      337.119        8.878      864.292
01/20/2015  12:48:00      123.432       85.384       18.119       49.667       36.742       40.016     2466.810     1349.949     1601.272        1.414        0.271      150.086       20.364        0.018      336.962        8.615      864.271
01/20/2015  12:49:00      107.388       84.443       18.283       45.349       31.817       34.256     2056.518     1012.309     1173.488        1.162        0.212      136.611       18.724        0.019      336.819        8.377      864.263
01/20/2015  12:50:00      125.417       59.206       16.821       55.965       45.710       34.418     3132.061     2089.383     1184.591        1.296        0.320      138.689       16.221        0.014      337.004        8.685      864.256
01/20/2015  12:51:00      126.240       58.121       20.045       62.814       46.363       37.277     3945.555     2149.513     1389.584        1.360        0.374      138.977       22.071        0.025      337.136        8.906      864.251
01/20/2015  12:52:00      121.568       81.397       30.709       47.328       37.141       45.702     2239.923     1379.464     2088.711        1.403        0.285      146.301       17.065        0.014      337.006        8.689      864.238
01/20/2015  12:53:00      139.489       99.666       19.793       68.436       64.180       47.894     4683.431     4119.025     2293.852        2.044        0.555      171.437       36.954        0.046      337.119        8.876      864.240
01/20/2015  12:54:00      109.423       90.437        9.896       93.550       73.090       53.447     8751.564     5342.206     2856.634        1.860        0.848      141.958       47.295        0.111      337.036        8.738      864.219
01/20/2015  12:55:00       30.357      168.560       -7.213       67.605       91.668       55.612     4570.499     8403.041     3092.666        2.272        0.803      171.272       54.072        0.100      337.006        8.687      864.227
01/20/2015  12:56:00       61.155      107.199        9.082       74.595       70.312       53.611     5564.405     4943.789     2874.183        1.435        0.669      123.416       43.492        0.124      337.026        8.722      864.236
01/20/2015  12:57:00      236.978      174.798       16.157       60.388       52.071       45.361     3646.732     2711.395     2057.633        4.769        0.421      294.470       30.459        0.011      336.734        8.229      864.247
01/20/2015  12:58:00      124.307      113.372       18.599       68.896       56.325       49.541     4746.608     3172.454     2454.318        1.951        0.519      168.242       28.780        0.029      336.866        8.454      864.250
01/20/2015  12:59:00       64.920       35.195       28.129       59.766       38.814       33.516     3571.941     1506.510     1123.305        0.622        0.310       73.846       30.058        0.166      337.179        8.980      864.254
01/20/2015  13:00:00      132.768       57.530       51.496       96.496       84.951       62.484     9311.445     7216.698     3904.261        2.201        1.022      144.696       53.184        0.135      337.032        8.731      864.253
01/20/2015  13:01:00      170.406      109.139       49.983       63.334       49.436       44.883     4011.174     2443.947     2014.466        2.596        0.423      202.360       22.452        0.012      336.809        8.357      864.259
01/20/2015  13:02:00       66.701       83.709        9.531       59.619       34.336       37.715     3554.432     1178.974     1422.458        0.885        0.308      107.034       34.089        0.101      336.668        8.125      864.266
01/20/2015  13:03:00      -28.908       60.195        1.638       23.006       32.436       30.800      529.285     1052.076      948.663        0.350        0.127       66.776       19.495        0.085      337.079        8.812      864.249
01/20/2015  13:04:00        3.448      -19.018       -5.698       47.662       27.436       27.396     2271.620      752.742      750.564        0.209        0.189       19.328       20.826        1.161      337.126        8.890      864.212
01/20/2015  13:05:00       10.965       21.759       -0.015       19.889       22.189       18.093      395.587      492.353      327.351        0.090        0.061       24.366       15.220        0.390      337.129        8.894      864.190
01/20/2015  13:06:00       12.821       -6.351        1.762       23.600       39.764       25.409      556.972     1581.149      645.634        0.150        0.139       14.308       17.470        1.491      337.352        9.268      864.173
01/20/2015  13:07:00      -49.345      -32.332       -9.207       36.433       35.993       29.908     1327.356     1295.495      894.514        0.354        0.176       58.994       24.179        0.168      337.013        8.701      864.142
01/20/2015  13:08:00      -17.671      -48.185      -15.979       36.323       27.611       18.997     1319.359      762.372      360.872        0.267        0.122       51.323       12.057        0.055      336.965        8.620      864.107
01/20/2015  13:09:00       -3.005      -63.462        3.975       27.221       45.292       29.210      740.985     2051.411      853.202        0.385        0.182       63.533       28.474        0.201      337.239        9.080      864.092
01/20/2015  13:10:00      -51.183      -29.097       11.838       55.319       39.294       28.172     3060.213     1544.031      793.642        0.450        0.270       58.876       31.459        0.286      337.412        9.368      864.084
01/20/2015  13:11:00      -28.537       -9.115       10.269       29.973       21.193       25.333      898.391      449.138      641.767        0.150        0.099       29.957       22.464        0.562      337.484        9.488      864.072
01/20/2015  13:12:00       18.975       37.090       15.069       44.041       26.063       29.095     1939.630      679.277      846.502        0.271        0.173       41.662       24.885        0.357      337.430        9.399      864.068
01/20/2015  13:13:00       41.868       36.248        5.453       34.844       39.542       27.776     1214.132     1563.566      771.504        0.332        0.177       55.379        8.758        0.025      337.432        9.402      864.059
01/20/2015  13:14:00      259.374      155.120       27.403       81.327       63.053       56.128     6614.079     3975.661     3150.319        5.291        0.687      302.220       22.660        0.006      337.050        8.759      864.050
01/20/2015  13:15:00      149.515      150.829       10.397       98.499       77.710       69.916     9702.127     6038.850     4888.274        3.292        1.031      212.377       40.586        0.037      337.243        9.081      864.050
01/20/2015  13:16:00       31.688      172.085      -16.863       42.688       61.765       41.817     1822.279     3814.943     1748.693        1.914        0.369      174.978       43.747        0.063      336.986        8.656      864.053
01/20/2015  13:17:00      174.365      107.100       23.248       85.240       93.295       63.082     7265.852     8703.874     3979.363        3.118        0.997      204.630       53.826        0.069      337.369        9.294      864.047
01/20/2015  13:18:00      224.298      155.712       57.764       85.869       72.443       72.992     7373.433     5247.933     5327.816        4.792        0.897      273.049       47.111        0.030      337.216        9.035      864.040
01/20/2015  13:19:00       69.193      113.885       79.669       83.089       73.380       86.849     6903.853     5384.648     7542.823        2.196        0.992      133.257       48.818        0.134      337.340        9.246      864.021
01/20/2015  13:20:00      103.770       91.409        2.943       55.201       48.027       45.511     3047.163     2306.628     2071.258        1.328        0.371      138.289       30.909        0.050      337.002        8.682      864.032
01/20/2015  13:21:00       85.774       68.723       16.055       70.882       38.458       37.090     5024.250     1478.994     1375.695        1.011        0.394      109.909       23.793        0.047      337.056        8.773      864.012
01/20/2015  13:22:00       89.654       85.487       14.484       72.716       68.727       50.571     5287.545     4723.415     2557.430        1.406        0.628      123.879       34.909        0.079      337.251        9.099      863.985
01/20/2015  13:23:00      -19.208      105.321       -4.045       53.726       51.938       34.688     2886.467     2697.576     1203.233        0.913        0.339      107.058       26.673        0.062      337.366        9.292      863.989
01/20/2015  13:24:00      -12.878       41.901       18.664       35.925       61.290       31.845     1290.593     3756.409     1014.123        0.416        0.303       43.836       29.170        0.443      337.583        9.655      863.963
01/20/2015  13:25:00       19.121       59.385        8.368       30.816       45.699       34.179      949.637     2088.365     1168.233        0.408        0.210       62.388       30.742        0.243      337.457        9.444      863.948
01/20/2015  13:26:00       -4.072      120.072       -5.685       33.147       82.772       38.910     1098.706     6851.220     1514.001        1.196        0.473      120.141       46.142        0.148      337.357        9.277      863.933
01/20/2015  13:27:00      -41.162      219.362      -32.950       31.827       46.771       19.161     1012.956     2187.536      367.134        2.723        0.178      223.191        7.458        0.001      336.850        8.425      863.930
01/20/2015  13:28:00      -27.102      131.869      -20.009       31.575       67.297       26.887      996.988     4528.833      722.937        1.239        0.312      134.625       20.684        0.024      337.020        8.712      863.929
01/20/2015  13:29:00       25.237      121.487      -24.432       46.015       39.871       31.760     2117.369     1589.692     1008.686        1.035        0.236      124.081       21.066        0.029      337.034        8.737      863.915
01/20/2015  13:30:00       77.567       31.335       -0.645       29.646       27.448       22.580      878.876      753.397      509.843        0.457        0.107       83.658       12.359        0.022      337.001        8.680      863.897
01/20/2015  13:31:00       77.964       56.955       12.623       55.232       62.914       43.495     3050.600     3958.196     1891.826        0.919        0.445       96.552       35.611        0.136      337.270        9.131      863.888
01/20/2015  13:32:00       54.785      125.583       -2.276       72.886       51.665       44.084     5312.424     2669.296     1943.406        1.435        0.496      137.013       32.498        0.056      337.352        9.267      863.888
01/20/2015  13:33:00       77.602      166.593       -6.608       91.241      103.857       61.473     8324.918    10786.358     3778.918        2.835        1.145      183.780       62.532        0.116      337.334        9.236      863.862
01/20/2015  13:34:00       83.771      104.180       -3.120       74.992       74.849       51.844     5623.812     5602.420     2687.831        1.590        0.696      133.682       43.428        0.106      337.345        9.255      863.866
01/20/2015  13:35:00      -10.636      216.197      -18.896       46.128       69.193       47.894     2127.838     4787.625     2293.860        2.821        0.460      216.458       50.576        0.055      337.130        8.892      863.862
01/20/2015  13:36:00        4.865      116.608       -5.939       27.882       71.454       32.555      777.405     5105.621     1059.853        1.030        0.347      116.709       34.914        0.089      337.327        9.224      863.873
01/20/2015  13:37:00       67.989       46.004       17.370       61.174       44.088       41.839     3742.256     1943.745     1750.475        0.724        0.372       82.090       19.606        0.057      337.506        9.526      863.852
01/20/2015  13:38:00       43.810       54.015       82.534       45.047       52.470       40.656     2029.237     2753.104     1652.926        0.904        0.322       69.548       37.511        0.291      337.481        9.485      863.868
01/20/2015  13:39:00      105.797       92.394       73.061       68.224       53.744       45.596     4654.547     2888.463     2079.020        1.734        0.481      140.463       37.399        0.071      337.222        9.049      863.867
01/20/2015  13:40:00       50.925       34.274       64.676       56.533       63.103       47.152     3195.999     3981.971     2223.317        0.867        0.470       61.385       47.385        0.596      337.215        9.039      863.867
01/20/2015  13:41:00       51.079       44.361       51.166       52.984       38.762       29.990     2807.335     1502.501      899.397        0.620        0.260       67.653       21.090        0.097      337.214        9.038      863.873
01/20/2015  13:42:00       32.723       81.461       28.026       45.002       61.227       43.595     2025.224     3748.771     1900.490        0.808        0.384       87.788       29.582        0.114      337.390        9.331      863.858
01/20/2015  13:43:00      155.040       79.324       27.395      140.326      123.207       63.014    19691.510    15179.905     3970.735        3.495        1.942      174.154       24.731        0.020      337.577        9.643      863.836
01/20/2015  13:44:00      309.909      200.029       53.083       88.673       63.434       68.343     7862.918     4023.815     4670.771        7.771        0.828      368.857       46.420        0.016      337.233        9.064      863.841
01/20/2015  13:45:00      202.568      161.531       20.002      118.532       90.901       73.688    14049.782     8262.923     5429.861        4.763        1.387      259.086       55.306        0.046      337.200        9.011      863.843
01/20/2015  13:46:00      120.190      148.631       17.024      134.737      108.286       71.971    18153.936    11725.833     5179.896        3.594        1.753      191.146       60.833        0.101      337.244        9.086      863.833
01/20/2015  13:47:00      225.574      153.552       38.130      117.893       80.617       73.174    13898.831     6499.101     5354.388        5.083        1.288      272.877       41.995        0.024      337.287        9.156      863.843
01/20/2015  13:48:00      219.973      138.525       17.365       75.458       76.988       48.479     5693.851     5927.213     2350.238        4.092        0.699      259.956       36.000        0.019      337.307        9.189      863.853
01/20/2015  13:49:00      213.293      116.518       15.080       76.862       56.522       50.123     5907.816     3194.744     2512.321        3.545        0.581      243.044       36.506        0.023      337.115        8.868      863.841
01/20/2015  13:50:00       93.098       51.936       41.401       71.326       51.986       42.618     5087.345     2702.563     1816.331        1.134        0.480      106.605       35.405        0.110      337.406        9.359      863.815
01/20/2015  13:51:00      109.941       46.857       33.000       72.759       78.040       37.105     5293.857     6090.306     1376.797        1.406        0.638      119.510       36.339        0.092      337.235        9.072      863.800
01/20/2015  13:52:00       62.699       12.852       48.394       79.584       48.059       44.785     6333.606     2309.676     2005.676        0.854        0.532       64.002       40.578        0.402      337.596        9.676      863.764
01/20/2015  13:53:00      105.110       72.189       71.489       76.728       61.926       49.502     5887.216     3834.882     2450.446        1.677        0.609      127.513       40.296        0.100      337.233        9.067      863.740
01/20/2015  13:54:00       83.190       65.766       78.498       58.301       45.793       41.026     3398.954     2097.035     1683.093        1.229        0.359      106.045       30.044        0.080      337.366        9.291      863.738
01/20/2015  13:55:00       12.053       83.662       15.870       26.060       53.411       48.010      679.117     2852.701     2304.953        0.662        0.292       84.526       40.580        0.230      337.279        9.147      863.725
01/20/2015  13:56:00       90.513       74.321       19.463       77.782       50.212       34.413     6050.091     2521.232     1184.226        1.192        0.488      117.116       26.011        0.049      337.304        9.187      863.724
01/20/2015  13:57:00      137.116      117.515       32.397       57.714       54.060       59.162     3330.860     2922.448     3500.099        2.171        0.488      180.584       36.693        0.041      337.384        9.319      863.707
01/20/2015  13:58:00       69.992      137.486       -3.160       84.104       76.746       50.144     7073.540     5889.925     2514.385        1.964        0.774      154.276       44.901        0.085      337.410        9.364      863.687
01/20/2015  13:59:00       19.432      180.266      -28.238       37.904       69.816       38.491     1436.719     4874.274     1481.590        2.073        0.390      181.310       40.130        0.049      337.192        8.999      863.676
01/20/2015  14:00:00      -22.271      111.803       -6.667       33.968       74.426       36.008     1153.801     5539.194     1296.578        1.051        0.399      114.000       42.419        0.138      337.498        9.514      863.661
01/20/2015  14:01:00       24.534      141.227       -9.900       58.309       50.450       31.004     3399.936     2545.248      961.267        1.377        0.345      143.342       24.700        0.030      337.269        9.130      863.640
01/20/2015  14:02:00       27.014       69.292       -5.667       41.926       73.141       37.581     1757.794     5349.589     1412.332        0.704        0.426       74.372       37.709        0.257      337.414        9.371      863.634
01/20/2015  14:03:00       82.163       73.343       13.666       52.056       53.277       45.687     2709.862     2838.431     2087.317        0.997        0.382      110.136       31.066        0.080      337.476        9.476      863.625
01/20/2015  14:04:00      251.339      170.039       33.367       87.926       68.356       63.695     7731.023     4672.513     4057.035        5.483        0.823      303.454       43.890        0.021      337.351        9.264      863.609
01/20/2015  14:05:00      178.724      107.776       36.130      104.597       88.631      102.993    10940.604     7855.399    10607.455        3.713        1.470      208.706       73.414        0.124      337.562        9.616      863.599
01/20/2015  14:06:00       44.887      -50.033       45.822       58.268      119.962       61.868     3395.201    14390.974     3827.699        1.411        1.081       67.218       68.496        1.038      337.680        9.816      863.597
01/20/2015  14:07:00        3.241        6.143       36.411       36.401       55.691       36.760     1325.051     3101.443     1351.320        0.357        0.289        6.945       35.360       25.919      337.896       10.179      863.601
01/20/2015  14:08:00        2.281       31.911       54.430       29.208       75.491       56.320      853.080     5698.903     3171.887        0.685        0.486       31.992       53.486        2.795      338.064       10.461      863.596
01/20/2015  14:09:00       47.801      -27.896       49.346       98.090       91.248       56.359     9621.706     8326.140     3176.321        1.331        1.056       55.345       48.777        0.777      337.999       10.353      863.589
01/20/2015  14:10:00       85.190        1.085       43.208       63.195       60.742       49.405     3993.607     3689.558     2440.844        0.962        0.506       85.197       20.491        0.058      337.766        9.963      863.599
01/20/2015  14:11:00      114.491       93.225       56.130       96.884       49.641       68.503     9386.424     2464.259     4692.597        2.074        0.827      147.645       71.117        0.232      337.622        9.720      863.607
01/20/2015  14:12:00      148.268       80.376       33.741       77.103       68.088       34.563     5944.914     4635.967     1194.569        2.068        0.589      168.653       13.722        0.007      337.222        9.049      863.615
01/20/2015  14:13:00       59.956       42.244        9.879       67.462       43.552       36.867     4551.109     1896.756     1359.199        0.664        0.390       73.343       27.074        0.136      337.492        9.502      863.608
01/20/2015  14:14:00      120.138      102.226       67.592       66.932       52.942       58.400     4479.900     2802.863     3410.593        2.007        0.535      157.745       36.812        0.054      337.425        9.387      863.603
01/20/2015  14:15:00      148.894      109.343       25.145       41.745       36.614       41.007     1742.662     1340.597     1681.534        1.976        0.238      184.730       29.139        0.025      337.204        9.022      863.618
01/20/2015  14:16:00       65.770      -55.942       32.933       80.973       80.894       43.829     6556.555     6543.761     1921.015        1.178        0.751       86.344       33.398        0.150      337.512        9.536      863.609
01/20/2015  14:17:00      102.402      -40.303       -0.659       76.373       46.885       39.235     5832.792     2198.172     1539.360        1.084        0.479      110.048       26.095        0.056      337.248        9.093      863.605
01/20/2015  14:18:00      176.230       71.225       37.925       71.639       59.447       46.283     5132.091     3533.924     2142.157        2.419        0.540      190.079       35.286        0.034      337.459        9.446      863.575
01/20/2015  14:19:00       75.264       73.880       54.845       77.496       46.424       50.109     6005.626     2155.223     2510.923        1.240        0.534      105.466       47.131        0.200      337.876       10.148      863.574
01/20/2015  14:20:00       28.904       69.084       90.955       73.475       58.832       53.193     5398.512     3461.186     2829.548        1.278        0.584       74.887       51.619        0.475      337.789       10.000      863.576
01/20/2015  14:21:00       79.033       43.787       -0.570       48.001       62.147       35.665     2304.077     3862.248     1271.966        0.780        0.372       90.352       25.001        0.077      337.704        9.857      863.568
01/20/2015  14:22:00       66.900       79.368       -1.014       49.528       41.169       33.615     2453.063     1694.871     1129.964        0.803        0.264      103.802       23.660        0.052      337.517        9.545      863.558
01/20/2015  14:23:00       -0.311      163.599      -10.054       90.258       92.552       49.345     8146.441     8565.787     2434.884        2.300        0.957      163.599       55.517        0.115      337.462        9.451      863.540
01/20/2015  14:24:00       90.776       88.899        8.201       65.956       74.515       33.173     4350.191     5552.532     1100.436        1.360        0.550      127.056       37.675        0.088      337.459        9.445      863.525
01/20/2015  14:25:00      130.999       88.493       16.855       74.930       46.483       46.554     5614.495     2160.679     2167.309        1.761        0.497      158.088       21.002        0.018      337.625        9.724      863.518
01/20/2015  14:26:00      216.438      156.099       12.731       97.637       59.858       66.633     9532.962     3582.967     4439.941        4.446        0.878      266.857       34.387        0.017      337.239        9.076      863.527
01/20/2015  14:27:00      161.905      113.249       14.008       71.392       42.991       46.082     5096.834     1848.202     2123.562        2.415        0.453      197.581       22.941        0.013      337.352        9.266      863.530
01/20/2015  14:28:00       83.291       87.114        1.469       95.569       47.225       30.593     9133.445     2230.159      935.916        1.341        0.615      120.525       19.838        0.027      337.465        9.457      863.519
01/20/2015  14:29:00      114.442       67.145       84.603       99.065      100.185       84.995     9813.942    10037.032     7224.166        2.591        1.354      132.685       81.435        0.377      337.737        9.912      863.511
01/20/2015  14:30:00       90.050       63.982       57.925      104.484       71.806       59.120    10917.007     5156.157     3495.197        1.756        0.978      110.466       58.048        0.276      337.687        9.827      863.510
01/20/2015  14:31:00      177.501      116.460       31.279       92.254       70.364       75.335     8510.827     4951.125     5675.313        3.259        0.957      212.296       39.463        0.035      337.464        9.453      863.519
01/20/2015  14:32:00      284.624      177.832       26.750       83.931       70.522       56.418     7044.342     4973.357     3182.997        6.427        0.760      335.611       54.471        0.026      337.264        9.119      863.525
01/20/2015  14:33:00      188.361      115.657       26.271       88.137       58.237       70.499     7768.194     3391.551     4970.108        3.284        0.806      221.035       57.370        0.067      337.288        9.157      863.526
01/20/2015  14:34:00      159.949      116.803       59.616       98.271       52.959       62.599     9657.250     2804.629     3918.650        2.958        0.819      198.057       51.243        0.067      337.278        9.142      863.531
01/20/2015  14:35:00      142.590       83.115       54.813       85.619       48.097       46.479     7330.633     2313.299     2160.308        2.102        0.590      165.046       37.823        0.053      337.318        9.210      863.542
01/20/2015  14:36:00       88.845       61.313      -16.182       49.849       73.824       61.074     2484.954     5449.933     3729.985        1.179        0.583      107.947       20.885        0.037      337.241        9.083      863.540
01/20/2015  14:37:00       -9.148       61.601       -7.594       22.755       37.553       26.482      517.785     1410.231      701.284        0.328        0.131       62.276       13.494        0.047      337.309        9.196      863.525
01/20/2015  14:38:00       62.992       45.055        5.125       22.329       25.374       25.619      498.603      643.841      656.326        0.391        0.090       77.446       19.264        0.062      337.353        9.269      863.538
01/20/2015  14:39:00       50.581       31.704       11.155       37.942       28.530       30.085     1439.616      813.944      905.137        0.342        0.158       59.696       18.752        0.099      337.599        9.681      863.531
01/20/2015  14:40:00       36.445       31.281       21.881       57.067       49.932       35.366     3256.671     2493.182     1250.769        0.489        0.350       48.029       25.848        0.290      337.592        9.671      863.524
01/20/2015  14:41:00       79.990      114.426       -0.953       88.382       75.433       43.327     7811.310     5690.177     1877.259        1.743        0.769      139.613       45.877        0.108      337.555        9.606      863.529
01/20/2015  14:42:00      130.447      102.257       27.059       66.587       46.125       40.624     4433.773     2127.474     1650.287        1.821        0.411      165.749        9.785        0.003      337.350        9.263      863.534
01/20/2015  14:43:00      204.404      140.839       25.590      109.414       83.697       73.116    11971.503     7005.266     5345.977        4.329        1.216      248.227       50.041        0.041      337.405        9.355      863.531
01/20/2015  14:44:00      117.783      151.164      -14.288      116.546       68.235       55.085    13582.946     4655.976     3034.401        2.910        1.064      191.633       39.872        0.043      337.325        9.221      863.550
01/20/2015  14:45:00       54.323       95.290        1.663       66.425       63.006       45.122     4412.265     3969.716     2036.019        1.122        0.521      109.687       38.485        0.123      337.450        9.432      863.562
01/20/2015  14:46:00      123.383      107.661       18.165       97.442       45.690       48.714     9494.907     2087.535     2373.009        2.055        0.698      163.751       38.265        0.055      337.466        9.458      863.557
01/20/2015  14:47:00       95.542      181.967      -14.515      139.078       62.449       48.376    19342.819     3899.842     2340.189        3.401        1.279      205.525       39.251        0.036      337.468        9.459      863.559
01/20/2015  14:48:00       45.262      168.293        5.320       89.161      136.937       70.195     7949.675    18751.868     4927.344        3.101        1.581      174.274       82.227        0.223      337.605        9.689      863.551
01/20/2015  14:49:00        1.032      214.901      -35.982       56.763       83.217       32.782     3222.092     6925.091     1074.650        2.935        0.561      214.904       32.970        0.024      337.341        9.247      863.556
01/20/2015  14:50:00      -18.934      290.080      -35.041       53.043       67.957       29.994     2813.584     4618.164      899.659        4.703        0.417      290.697       25.973        0.008      337.394        9.335      863.552
01/20/2015  14:51:00        4.952      220.771      -31.480       43.645       57.466       30.498     1904.890     3302.350      930.104        2.795        0.307      220.826       29.741        0.018      337.426        9.389      863.540
01/20/2015  14:52:00       22.509       50.819       11.470       34.178       36.375       36.060     1168.104     1323.123     1300.325        0.351        0.190       55.580       23.952        0.186      337.503        9.520      863.528
01/20/2015  14:53:00       39.358       63.977       19.197       45.502       44.436       39.612     2070.416     1974.548     1569.099        0.581        0.281       75.114       15.394        0.042      337.586        9.661      863.523
01/20/2015  14:54:00       99.911      103.022       44.051       73.829       57.145       49.756     5450.659     3265.588     2475.654        1.686        0.560      143.512       31.825        0.049      337.647        9.761      863.504
01/20/2015  14:55:00       84.659       92.708       82.144       78.005       59.664       57.857     6084.734     3559.817     3347.377        1.775        0.650      125.546       41.849        0.111      337.655        9.775      863.496
01/20/2015  14:56:00      137.285      102.859       51.944      109.401       65.757       56.876    11968.525     4324.001     3234.877        2.582        0.976      171.543       62.176        0.131      337.577        9.643      863.489
01/20/2015  14:57:00      100.309       84.121       59.726       69.313       61.536       53.130     4804.282     3786.734     2822.804        1.606        0.571      130.913       40.369        0.095      337.769        9.968      863.492
01/20/2015  14:58:00       56.922      110.312      114.042      116.972       70.231       74.918    13682.549     4932.457     5612.652        2.632        1.211      124.133       78.785        0.403      337.622        9.718      863.480
01/20/2015  14:59:00      118.510       61.082       13.004       98.550       63.769       37.593     9712.129     4066.476     1413.218        1.657        0.760      133.326       41.896        0.099      337.566        9.625      863.502
01/20/2015  15:00:00       56.840       33.093        9.498       39.625       30.159       22.685     1570.103      909.585      514.594        0.370        0.150       65.772       14.046        0.046      337.580        9.650      863.496
01/20/2015  15:01:00       61.435       43.321       12.088       37.754       41.779       29.496     1425.336     1745.492      870.032        0.492        0.202       75.173       16.561        0.049      337.601        9.686      863.485
01/20/2015  15:02:00       79.322       77.154       15.369       39.508       39.328       43.779     1560.918     1546.701     1916.587        0.875        0.251      110.656       27.209        0.060      337.725        9.892      863.483
01/20/2015  15:03:00       93.774       64.690       16.632       46.549       34.252       31.330     2166.765     1173.176      981.544        0.879        0.216      113.923       16.983        0.022      337.787        9.996      863.489
01/20/2015  15:04:00       40.580       41.121       42.648       87.183       71.612       61.648     7600.807     5128.301     3800.515        1.084        0.826       57.773       35.332        0.374      337.871       10.139      863.488
01/20/2015  15:05:00       54.760      107.571      107.805       67.436       59.363       49.734     4547.590     3523.956     2473.508        1.837        0.527      120.707       40.660        0.113      337.596        9.677      863.488
01/20/2015  15:06:00      117.631      124.759      125.516       97.651       68.351       53.094     9535.793     4671.806     2819.005        3.109        0.851      171.469       42.853        0.062      337.578        9.644      863.481
01/20/2015  15:07:00       28.785       67.535       88.319       62.902       52.356       42.666     3956.649     2741.202     1820.365        1.085        0.426       73.414       30.388        0.171      337.816       10.044      863.485
01/20/2015  15:08:00       48.484       40.068       55.246       56.520       59.097       56.259     3194.461     3492.403     3165.082        0.843        0.493       62.898       39.065        0.386      337.777        9.980      863.492
01/20/2015  15:09:00      190.011      114.864       40.651       86.891       57.625       50.863     7550.081     3320.642     2587.074        3.220        0.673      222.031       51.327        0.053      337.598        9.678      863.508
01/20/2015  15:10:00      168.687       92.829        9.897       69.553       57.970       45.676     4837.581     3360.545     2086.294        2.373        0.514      192.542       37.261        0.037      337.475        9.473      863.515
01/20/2015  15:11:00      126.472       93.312       10.099       81.926       60.840       48.776     6711.911     3701.502     2379.107        1.880        0.640      157.169       29.246        0.035      337.506        9.525      863.518
01/20/2015  15:12:00      119.480       73.522       16.251       66.123       66.163       42.234     4372.204     4377.488     1783.700        1.524        0.527      140.289       22.947        0.027      337.567        9.629      863.522
01/20/2015  15:13:00       57.887       59.479       53.550       58.644       55.314       53.782     3439.083     3059.661     2892.480        0.957        0.470       82.998       48.492        0.341      337.572        9.637      863.521
01/20/2015  15:14:00       67.221       89.903      102.593       92.103       64.002       63.114     8482.890     4096.219     3983.360        1.984        0.828      112.255       61.364        0.299      337.437        9.410      863.516
01/20/2015  15:15:00       70.951      126.547      139.860       75.277       64.738       50.079     5666.607     4190.972     2507.929        2.649        0.618      145.080       43.791        0.091      337.479        9.479      863.505
01/20/2015  15:16:00       99.966      105.817      120.159       92.314       78.379       61.744     8521.950     6143.338     3812.371        2.705        0.924      145.569       64.360        0.195      337.371        9.297      863.510
01/20/2015  15:17:00       73.516       67.868       60.492       79.170       62.758       56.298     6267.864     3938.606     3169.435        1.352        0.669      100.053       31.944        0.102      337.499        9.513      863.507
01/20/2015  15:18:00       22.639       44.306       44.236       52.197       50.264       30.341     2724.505     2526.501      920.588        0.530        0.309       49.755       25.287        0.258      337.693        9.840      863.515
01/20/2015  15:19:00       -0.553       55.137       48.398       35.215       28.725       21.986     1240.108      825.101      483.383        0.397        0.127       55.140       15.428        0.078      337.745        9.926      863.510
01/20/2015  15:20:00       37.695      -58.181       17.068       49.251       79.556       33.941     2425.693     6329.186     1151.958        0.750        0.495       69.325       36.926        0.284      337.746        9.928      863.505
01/20/2015  15:21:00       31.481        7.698       45.623       43.501       79.091       59.976     1892.304     6255.332     3597.103        0.744        0.587       32.408       64.555        3.968      337.767        9.963      863.511
01/20/2015  15:22:00       92.995      101.033       87.238       90.373       72.950       77.348     8167.282     5321.722     5982.689        2.297        0.974      137.316       70.669        0.265      337.472        9.467      863.507
01/20/2015  15:23:00       64.204       60.467       60.734       64.485       58.788       62.985     4158.341     3455.986     3967.106        1.152        0.579       88.195       52.148        0.350      337.611        9.702      863.504
01/20/2015  15:24:00       58.057       29.763       76.851       77.940       98.876       61.557     6074.641     9776.458     3789.309        1.490        0.982       65.241       75.074        1.324      337.589        9.664      863.502
01/20/2015  15:25:00      120.999     -122.054       18.296       74.910       78.457       45.390     5611.480     6155.575     2060.263        2.185        0.691      171.866       37.255        0.047      337.699        9.848      863.472
01/20/2015  15:26:00      130.349       59.467       58.299       84.077       72.499       63.041     7068.965     5256.079     3974.229        2.011        0.815      143.273       34.623        0.058      337.688        9.830      863.471
01/20/2015  15:27:00      203.755      112.136       31.841      134.142       97.082       66.212    17994.202     9424.945     4384.044        4.345        1.590      232.574       21.329        0.008      337.669        9.797      863.472
01/20/2015  15:28:00      129.599      100.190       28.087      106.924       88.783       69.458    11432.770     7882.385     4824.346        2.588        1.207      163.811       40.770        0.062      337.583        9.653      863.474
01/20/2015  15:29:00      105.925       90.550       86.640       86.217       63.011       60.727     7433.350     3970.419     3687.795        2.101        0.755      139.353       54.662        0.154      337.669        9.797      863.482
01/20/2015  15:30:00       66.697       79.992       75.108       84.719       58.315       64.361     7177.372     3400.667     4142.361        1.560        0.736      104.150       58.598        0.317      337.623        9.721      863.467
01/20/2015  15:31:00      216.546      111.174       14.074       94.653       67.362       56.875     8959.128     4537.595     3234.735        3.809        0.837      243.416       28.872        0.014      337.508        9.527      863.469
01/20/2015  15:32:00      169.345      112.184       25.167       77.799       69.184       47.858     6052.703     4786.400     2290.436        2.751        0.656      203.133       32.282        0.025      337.348        9.260      863.464
01/20/2015  15:33:00      105.027       70.544        7.669       50.986       40.570       44.121     2599.522     1645.949     1946.665        1.113        0.310      126.520       29.534        0.054      337.394        9.337      863.463
01/20/2015  15:34:00       52.158       48.019        1.224       48.836       40.385       37.866     2384.930     1630.918     1433.802        0.524        0.272       70.897       20.059        0.080      337.453        9.436      863.449
01/20/2015  15:35:00       32.214       61.927        8.137       65.648       56.937       34.072     4309.611     3241.837     1160.876        0.682        0.436       69.804       28.269        0.164      337.600        9.683      863.445
01/20/2015  15:36:00      113.678      109.762       19.597       86.024       55.116       61.275     7400.202     3037.777     3754.604        1.977        0.710      158.020       37.779        0.057      337.469        9.464      863.450
01/20/2015  15:37:00       63.627       69.836       12.034       83.325       64.806       50.996     6943.137     4199.762     2600.554        1.140        0.687       94.475       36.501        0.149      337.499        9.513      863.447
01/20/2015  15:38:00       75.682      111.810      119.650       82.603       68.732       59.125     6823.301     4724.114     3495.788        2.379        0.752      135.016       49.724        0.136      337.519        9.547      863.449
01/20/2015  15:39:00      111.515       91.879       72.255      109.588       66.096       72.813    12009.464     4368.738     5301.804        2.389        1.084      144.490       68.824        0.227      337.654        9.772      863.450
01/20/2015  15:40:00      127.900       81.912       49.528       67.941       61.456       40.048     4615.962     3776.812     1603.876        1.776        0.500      151.882       28.250        0.035      337.576        9.642      863.465
01/20/2015  15:41:00       75.302       88.184       78.646       54.770       60.039       52.392     2999.760     3604.676     2744.926        1.449        0.467      115.961       42.731        0.136      337.695        9.842      863.471
01/20/2015  15:42:00       80.469       53.455       45.217       70.227       60.819       51.549     4931.841     3699.010     2657.257        1.133        0.564       96.606       41.990        0.189      337.605        9.693      863.479
01/20/2015  15:43:00      117.049       86.333        3.923       50.097       40.022       33.865     2509.756     1601.778     1146.827        1.321        0.263      145.444       18.490        0.016      337.475        9.474      863.490
01/20/2015  15:44:00       94.560       61.377       18.703       54.922       52.232       38.653     3016.446     2728.148     1494.047        1.015        0.362      112.733       26.313        0.054      337.376        9.309      863.498
01/20/2015  15:45:00       10.403       65.976       90.675       64.671       63.554       52.179     4182.349     4039.106     2722.652        1.181        0.547       66.791       48.375        0.525      337.565        9.625      863.502
01/20/2015  15:46:00       69.066       41.991       84.072       94.565       78.594       50.145     8942.494     6177.047     2514.480        1.561        0.882       80.829       59.834        0.548      337.494        9.505      863.505
01/20/2015  15:47:00      107.018       70.203       48.491       87.235       48.106       42.616     7610.023     2314.210     1816.160        1.523        0.587      127.989       43.163        0.114      337.490        9.498      863.517
01/20/2015  15:48:00      189.546      106.627       44.368       87.518       58.045       65.577     7659.354     3369.207     4300.282        3.229        0.766      217.479       50.043        0.053      337.424        9.386      863.518
01/20/2015  15:49:00       95.133       79.007       69.262       96.696       74.012       58.836     9350.111     5477.817     3461.664        1.919        0.914      123.663       50.435        0.166      337.462        9.451      863.521
01/20/2015  15:50:00      164.430      100.844       16.276       49.780       41.624       35.473     2478.024     1732.573     1258.302        2.147        0.273      192.890       26.393        0.019      337.316        9.208      863.531
01/20/2015  15:51:00       76.363       63.068       -2.722       39.138       39.187       29.258     1531.787     1535.644      856.055        0.687        0.196       99.039       15.159        0.023      337.331        9.234      863.520
01/20/2015  15:52:00       88.566       44.948       28.382       36.085       44.848       37.130     1302.120     2011.331     1378.610        0.768        0.235       99.319       27.291        0.076      337.411        9.367      863.507
01/20/2015  15:53:00      145.718      103.614       24.708       65.885       53.438       41.993     4340.855     2855.665     1763.445        2.077        0.448      178.800       29.083        0.026      337.458        9.443      863.517
01/20/2015  15:54:00      174.243      102.669        6.747       83.803       73.720       55.087     7023.022     5434.704     3034.593        2.822        0.775      202.242       52.996        0.069      337.433        9.400      863.514
01/20/2015  15:55:00      155.189      116.970       17.586       81.409       54.528       57.932     6627.361     2973.319     3356.155        2.551        0.648      194.334       40.969        0.044      337.360        9.279      863.515
01/20/2015  15:56:00       89.897       79.096        3.780       73.853       61.615       48.472     5454.325     3796.438     2349.497        1.297        0.580      119.740       35.921        0.090      337.349        9.262      863.514
01/20/2015  15:57:00       43.400      144.404      -17.684       46.041       72.474       39.856     2119.796     5252.504     1588.533        1.600        0.448      150.785       37.008        0.060      337.385        9.321      863.517
01/20/2015  15:58:00       91.530      118.938      -12.653       67.721       61.492       41.570     4586.193     3781.315     1728.067        1.639        0.505      150.080       32.258        0.046      337.423        9.386      863.522
01/20/2015  15:59:00      111.240       58.887       26.182       65.165       40.461       36.879     4246.442     1637.053     1360.073        1.188        0.362      125.865       17.408        0.019      337.463        9.453      863.520
01/20/2015  16:00:00       59.933      115.105      -11.918       53.031       58.657       46.027     2812.244     3440.632     2118.505        1.268        0.419      129.773       35.856        0.076      337.425        9.391      863.529
01/20/2015  16:01:00       88.670      107.517       -3.299       62.020       78.948       43.908     3846.454     6232.773     1927.879        1.572        0.600      139.364       37.177        0.071      337.409        9.362      863.545
01/20/2015  16:02:00       50.132      103.096        8.507       70.791       68.506       50.811     5011.380     4693.005     2581.748        1.275        0.614      114.639       44.219        0.149      337.397        9.343      863.552
01/20/2015  16:03:00      175.322      126.597       22.030      112.100       91.371       62.338    12566.518     8348.676     3886.007        3.602        1.240      216.251       51.402        0.057      337.321        9.214      863.558
01/20/2015  16:04:00      127.315      103.900       24.008      110.051       89.731       60.512    12111.162     8051.581     3661.694        2.570        1.191      164.330       34.699        0.045      337.325        9.221      863.564
01/20/2015  16:05:00       66.019      132.487       -1.051       68.039       85.879       72.200     4629.240     7375.263     5212.779        1.956        0.861      148.024       56.829        0.147      337.250        9.096      863.575
01/20/2015  16:06:00      103.565       68.942       20.805       76.770       50.760       36.470     5893.574     2576.533     1330.054        1.285        0.490      124.414       33.837        0.074      337.314        9.203      863.584
01/20/2015  16:07:00       41.694       35.944        1.621       41.456       32.887       30.597     1718.629     1081.534      936.194        0.338        0.187       55.049       20.338        0.136      337.350        9.266      863.590
01/20/2015  16:08:00       46.049       47.870       12.874       57.809       39.901       34.396     3341.847     1592.079     1183.074        0.535        0.306       66.424       24.439        0.135      337.334        9.239      863.584
01/20/2015  16:09:00       65.988       91.079       -7.613       49.826       42.429       40.278     2482.585     1800.260     1622.291        0.931        0.295      112.471       25.530        0.052      337.287        9.161      863.590
01/20/2015  16:10:00      109.520       99.760        3.736       61.450       40.703       42.499     3776.112     1656.718     1806.193        1.460        0.362      148.144       29.198        0.039      337.241        9.083      863.594
01/20/2015  16:11:00      141.886       67.507       19.433       59.068       40.988       33.794     3488.992     1680.013     1142.053        1.569        0.316      157.127       23.240        0.022      337.277        9.144      863.596
01/20/2015  16:12:00       65.938       50.450        7.328       62.934       41.412       28.127     3960.734     1714.931      791.137        0.671        0.323       83.024       18.418        0.049      337.323        9.219      863.598
01/20/2015  16:13:00      166.904      110.849       25.302       50.832       50.093       41.151     2583.884     2509.310     1693.418        2.378        0.339      200.360       23.138        0.013      337.318        9.209      863.597
01/20/2015  16:14:00      170.865      107.888       31.558       76.131       76.862       52.361     5795.886     5907.778     2741.727        2.814        0.722      202.076       30.414        0.023      337.241        9.081      863.585
01/20/2015  16:15:00      184.299      107.009       36.866       72.578       64.932       50.480     5267.594     4216.171     2548.204        2.940        0.602      213.113       22.298        0.011      337.238        9.075      863.579
01/20/2015  16:16:00      168.209       89.658       18.435       75.213       55.057       29.254     5656.990     3031.226      855.803        2.311        0.477      190.611       19.318        0.010      337.237        9.073      863.588
01/20/2015  16:17:00       84.042       83.052        4.827       84.562       52.999       39.034     7150.650     2808.937     1523.642        1.273        0.574      118.156       29.952        0.064      337.215        9.039      863.574
01/20/2015  16:18:00      141.390       94.414       17.142       62.708       48.929       44.075     3932.241     2394.052     1942.582        1.873        0.413      170.015       29.617        0.030      337.193        9.003      863.575
01/20/2015  16:19:00      101.853       51.254       14.832       65.902       38.449       29.475     4343.080     1478.317      868.758        0.995        0.335      114.022       14.714        0.017      337.194        9.004      863.579
01/20/2015  16:20:00       89.687       65.503       30.905       48.776       29.050       25.105     2379.061      843.904      630.284        0.857        0.193      111.060       18.978        0.029      337.257        9.110      863.577
01/20/2015  16:21:00       82.701       72.342       -3.943       68.970       64.900       42.538     4756.837     4212.009     1809.519        1.143        0.539      109.877       32.260        0.086      337.235        9.072      863.580
01/20/2015  16:22:00       95.145      150.961       -6.557       73.791      103.995       53.861     5445.038    10814.898     2900.963        2.552        0.958      178.443       59.290        0.110      337.178        8.976      863.575
01/20/2015  16:23:00       49.069      123.140      -10.008       59.698       76.823       47.215     3563.860     5901.767     2229.225        1.468        0.585      132.556       43.090        0.106      337.178        8.979      863.577
01/20/2015  16:24:00       77.636       81.999        6.270       66.102       75.967       44.832     4369.539     5770.999     2009.906        1.247        0.608      112.921       38.682        0.117      337.152        8.932      863.579
01/20/2015  16:25:00       52.007      112.705       -2.849       60.993       78.849       39.800     3720.090     6217.115     1584.024        1.347        0.576      124.126       37.921        0.093      337.148        8.926      863.582
01/20/2015  16:26:00      163.695      110.812       15.215       64.898       51.278       55.231     4211.805     2629.467     3050.447        2.460        0.495      197.675       39.347        0.040      337.151        8.929      863.575
01/20/2015  16:27:00      131.278      109.278        2.471       75.219       64.791       73.229     5657.965     4197.831     5362.495        2.220        0.761      170.809       53.527        0.098      337.135        8.901      863.569
01/20/2015  16:28:00      174.801      132.392       18.027       76.202       62.617       44.159     5806.820     3920.860     1950.041        3.004        0.584      219.279       28.166        0.016      337.103        8.848      863.558
01/20/2015  16:29:00       74.562      105.234        5.887       78.218       60.475       53.764     6118.035     3657.264     2890.521        1.466        0.633      128.971       35.744        0.077      337.091        8.829      863.559
01/20/2015  16:30:00      205.741      121.072       23.227      109.156       91.286       58.436    11915.040     8333.121     3414.764        4.059        1.183      238.721       34.154        0.020      337.115        8.869      863.541
01/20/2015  16:31:00      100.062       61.040       23.555       88.537       53.128       39.305     7838.741     2822.591     1544.867        1.325        0.610      117.211       32.706        0.078      337.124        8.885      863.532
01/20/2015  16:32:00      168.335      111.579       32.157       94.865       64.459       37.585     8999.397     4155.025     1412.670        2.819        0.728      201.957        9.380        0.002      337.077        8.805      863.552
01/20/2015  16:33:00      242.276      185.442       14.934       79.174       54.983       58.249     6268.495     3023.172     3392.993        5.300        0.634      305.101       37.587        0.015      337.053        8.763      863.556
01/20/2015  16:34:00      121.042       81.533       16.728       74.975       60.572       38.838     5621.237     3668.951     1508.410        1.619        0.540      145.941       31.930        0.048      337.042        8.747      863.554
01/20/2015  16:35:00      202.068       96.453       34.188      112.812       77.971       49.347    12726.451     6079.549     2435.176        3.627        1.062      223.908       35.344        0.025      337.040        8.742      863.564
01/20/2015  16:36:00      164.925      122.473       24.639       62.715       54.036       43.797     3933.116     2919.856     1918.206        2.579        0.439      205.426       23.644        0.013      336.989        8.656      863.570
01/20/2015  16:37:00      212.699      141.965       31.554       96.707       73.682       58.484     9352.274     5429.040     3420.347        4.229        0.910      255.724       34.592        0.018      336.911        8.528      863.592
01/20/2015  16:38:00      120.016      118.697       22.433      108.431       97.685       76.534    11757.291     9542.286     5857.502        2.807        1.358      168.798       57.402        0.116      336.861        8.446      863.606
01/20/2015  16:39:00       82.061      134.580        8.006       78.032       82.949       71.686     6089.015     6880.475     5138.911        2.151        0.905      157.625       57.957        0.135      336.845        8.417      863.610
01/20/2015  16:40:00      126.821      106.226        0.747       77.743       58.332       54.493     6043.937     3402.573     2969.506        1.989        0.621      165.431       47.423        0.082      336.847        8.421      863.625
01/20/2015  16:41:00       67.083      111.816        0.383       70.167       75.127       57.038     4923.392     5644.102     3253.334        1.541        0.691      130.396       46.581        0.128      336.838        8.408      863.624
01/20/2015  16:42:00       88.308      110.990        5.063       82.925       78.098       67.359     6876.592     6099.268     4537.175        1.882        0.876      141.834       54.883        0.150      336.820        8.377      863.631
01/20/2015  16:43:00       33.970      140.898      -12.338       64.050      109.868       59.984     4102.362    12071.003     3598.075        2.046        0.989      144.935       62.914        0.188      336.805        8.351      863.633
01/20/2015  16:44:00       64.369      111.309       -2.222       68.370       75.462       55.978     4674.494     5694.449     3133.495        1.502        0.675      128.581       49.548        0.148      336.772        8.298      863.632
01/20/2015  16:45:00      105.611      113.513       -7.809       86.050       70.817       53.896     7404.594     5015.059     2904.779        1.971        0.766      155.044       41.255        0.071      336.759        8.274      863.628
01/20/2015  16:46:00       76.120      121.529        5.992       64.409       74.807       56.439     4148.551     5596.100     3185.306        1.676        0.646      143.400       42.750        0.089      336.737        8.240      863.634
01/20/2015  16:47:00       74.370       95.269       15.290       78.237       66.257       53.103     6121.022     4389.939     2819.921        1.408        0.667      120.860       44.168        0.134      336.723        8.217      863.638
01/20/2015  16:48:00      211.026      134.315       31.190       78.542       75.871       60.944     6168.922     5756.390     3714.133        3.959        0.782      250.145       36.158        0.021      336.713        8.197      863.632
01/20/2015  16:49:00      119.891      113.569        5.952       89.494       74.612       73.626     8009.240     5566.962     5420.819        2.315        0.950      165.142       42.943        0.068      336.699        8.175      863.646
01/20/2015  16:50:00      101.464       83.807       11.247      109.856       71.198       56.764    12068.341     5069.159     3222.114        1.890        1.018      131.600       26.943        0.042      336.671        8.129      863.661
01/20/2015  16:51:00      103.337      104.936       19.139       75.730       71.908       69.153     5735.022     5170.752     4782.124        1.887        0.784      147.276       51.518        0.122      336.686        8.154      863.661
01/20/2015  16:52:00      113.155      100.603        1.357       59.631       50.522       43.986     3555.809     2552.438     1934.776        1.548        0.402      151.410       31.052        0.042      336.657        8.107      863.673
01/20/2015  16:53:00      134.990      107.605        8.721       59.798       47.473       49.972     3575.842     2253.683     2497.251        1.910        0.416      172.630       30.149        0.031      336.662        8.113      863.685
01/20/2015  16:54:00       86.152       64.270       10.321       36.685       40.879       33.137     1345.762     1671.083     1098.070        0.789        0.206      107.484       18.452        0.029      336.620        8.046      863.687
01/20/2015  16:55:00       53.383       76.216       -1.198       70.099       54.488       31.742     4913.899     2968.915     1007.533        0.877        0.445       93.052       33.151        0.127      336.613        8.032      863.696
01/20/2015  16:56:00       89.024       56.305       11.032       38.424       29.480       26.307     1476.392      869.082      692.058        0.713        0.152      105.336       19.437        0.034      336.601        8.013      863.710
01/20/2015  16:57:00      107.383       72.647       17.850       81.273       59.769       33.038     6605.374     3572.338     1091.479        1.420        0.563      129.648       24.826        0.037      336.573        7.966      863.724
01/20/2015  16:58:00       63.221       95.883        9.534       62.591       72.319       51.888     3917.684     5230.033     2692.409        1.256        0.592      114.850       47.250        0.169      336.547        7.923      863.733
01/20/2015  16:59:00       31.414      172.838      -16.186       56.413       95.620       53.844     3182.424     9143.095     2899.162        2.317        0.761      175.670       52.358        0.089      336.532        7.896      863.746
01/20/2015  17:00:00       73.514      122.796       -5.093       59.981       63.654       55.139     3597.738     4051.859     3040.357        1.560        0.534      143.119       45.778        0.102      336.560        7.944      863.760
01/20/2015  17:01:00       71.223       99.542        3.257       81.506       62.187       53.154     6643.155     3867.197     2825.350        1.416        0.667      122.398       36.703        0.090      336.533        7.900      863.768
01/20/2015  17:02:00       69.556      117.226        7.889       98.450       53.470       48.951     9692.307     2859.082     2396.186        1.679        0.747      136.308       38.758        0.081      336.520        7.874      863.769
01/20/2015  17:03:00       20.245      117.123        2.078       45.696       87.151       54.459     2088.099     7595.264     2965.813        1.339        0.632      118.860       56.609        0.227      336.444        7.748      863.784
01/20/2015  17:04:00       36.089      147.502       -8.888       54.510      109.208       50.916     2971.367    11926.350     2592.419        2.031        0.875      151.853       61.162        0.162      336.397        7.669      863.796
01/20/2015  17:05:00       35.909       74.356        2.387       45.850       73.315       47.940     2102.251     5375.095     2298.202        0.830        0.489       82.573       44.009        0.284      336.379        7.641      863.801
01/20/2015  17:06:00       12.198      122.048       -2.701       39.927       77.866       36.035     1594.127     6063.099     1298.544        1.200        0.448      122.656       42.557        0.120      336.373        7.630      863.811
01/20/2015  17:07:00        7.710      251.144      -42.305       47.526       59.579       26.887     2258.690     3549.606      722.915        3.573        0.327      251.262       24.240        0.009      336.424        7.712      863.826
01/20/2015  17:08:00        8.707      221.116      -26.797       52.501       79.873       36.102     2756.394     6379.765     1303.344        3.006        0.522      221.287       36.725        0.028      336.389        7.653      863.846
01/20/2015  17:09:00       24.840      189.733      -28.931       56.554       69.326       37.877     3198.329     4806.068     1434.642        2.344        0.472      191.352       40.621        0.045      336.372        7.625      863.851
01/20/2015  17:10:00       21.570      133.042       -7.647       92.568       76.256       48.979     8568.921     5815.053     2398.934        1.750        0.839      134.779       50.154        0.138      336.377        7.635      863.874
01/20/2015  17:11:00        1.988      187.445      -18.838       52.391       52.246       31.945     2744.816     2729.685     1020.465        2.099        0.325      187.456       24.953        0.018      336.331        7.559      863.880
01/20/2015  17:12:00       27.271      132.750       -6.010       54.265       92.463       43.148     2944.669     8549.455     1861.759        1.588        0.668      135.522       53.784        0.158      336.312        7.528      863.894
01/20/2015  17:13:00       12.571      179.547      -27.670       48.474       57.156       30.547     2349.703     3266.757      933.113        1.985        0.327      179.987       31.293        0.030      336.317        7.535      863.910
01/20/2015  17:14:00       24.647      171.420      -17.900       39.822       64.927       41.176     1585.769     4215.551     1695.431        1.890        0.375      173.183       41.524        0.057      336.327        7.554      863.923
01/20/2015  17:15:00       24.618      152.829      -16.958       35.442       84.384       37.359     1256.165     7120.627     1395.674        1.701        0.489      154.799       36.239        0.055      336.288        7.487      863.937
01/20/2015  17:16:00       32.236      121.532       -3.249       66.637       80.100       47.131     4440.454     6416.054     2221.287        1.445        0.654      125.734       47.296        0.141      336.247        7.419      863.938
01/20/2015  17:17:00       45.460      148.495      -17.670       45.722       84.522       40.211     2090.469     7143.961     1616.923        1.764        0.543      155.298       49.339        0.101      336.247        7.417      863.938
01/20/2015  17:18:00       53.141      119.026       -0.756       69.138       73.257       42.019     4780.130     5366.534     1765.588        1.445        0.596      130.350       41.279        0.100      336.212        7.360      863.936
01/20/2015  17:19:00       42.909      140.100      -21.456       32.714       70.652       33.657     1070.179     4991.715     1132.764        1.456        0.360      146.523       36.917        0.063      336.236        7.400      863.938
01/20/2015  17:20:00       38.522       62.951       -2.377       48.365       48.645       36.813     2339.138     2366.365     1355.233        0.576        0.303       73.803       32.682        0.196      336.173        7.298      863.944
01/20/2015  17:21:00       21.622      100.539      -16.369       43.841       46.263       28.373     1922.069     2140.273      805.042        0.785        0.243      102.838       26.229        0.065      336.192        7.328      863.950
01/20/2015  17:22:00       13.680      126.942      -25.259       28.752       55.983       24.093      826.687     3134.138      580.458        1.074        0.227      127.677       26.148        0.042      336.193        7.331      863.974
01/20/2015  17:23:00       27.335      116.524      -15.916       44.693       63.214       25.226     1997.447     3996.016      636.374        1.060        0.331      119.687       24.966        0.044      336.149        7.257      863.984
01/20/2015  17:24:00        9.447      177.750      -25.377       44.576       60.145       33.058     1987.029     3617.481     1092.825        1.951        0.335      178.001       27.554        0.024      336.130        7.224      863.990
01/20/2015  17:25:00       48.452      150.900       -9.187       47.526       84.730       44.864     2258.735     7179.214     2012.774        1.832        0.573      158.487       45.571        0.083      336.131        7.225      864.000
01/20/2015  17:26:00       24.026       86.565       -1.262       39.306       53.358       34.239     1544.973     2847.037     1172.310        0.682        0.278       89.838       34.740        0.150      336.099        7.173      864.013
01/20/2015  17:27:00      -12.482      100.164      -11.411       38.774       56.614       30.680     1503.442     3205.101      941.284        0.798        0.282      100.939       35.019        0.120      336.114        7.200      864.025
01/20/2015  17:28:00       -7.907      139.046      -22.368       24.785       26.343       13.038      614.314      693.967      169.996        1.069        0.074      139.271        9.262        0.004      336.160        7.274      864.051
01/20/2015  17:29:00      -27.509      173.070      -26.112       30.161       58.839       16.963      909.703     3462.085      287.742        1.802        0.233      175.242       21.660        0.015      336.210        7.357      864.085
01/20/2015  17:30:00       -1.902      123.488      -13.028       32.237       46.520       25.092     1039.249     2164.104      629.592        0.963        0.192      123.502       24.787        0.040      336.080        7.142      864.106
01/20/2015  17:31:00       -7.265      127.619      -12.738       26.311       29.531       16.666      692.283      872.056      277.742        0.917        0.092      127.826       17.242        0.018      336.078        7.139      864.130
01/20/2015  17:32:00      -17.389      123.103      -17.553       47.566       30.864       21.346     2262.566      952.598      455.655        0.972        0.184      124.325       11.178        0.008      336.080        7.142      864.141
01/20/2015  17:33:00      -13.818      158.730      -16.672       34.369       42.327       24.941     1181.258     1791.598      622.076        1.463        0.180      159.330       21.333        0.018      336.059        7.106      864.160
01/20/2015  17:34:00        0.470      227.100      -32.660       45.845       46.021       29.061     2101.788     2117.887      844.520        2.885        0.253      227.100       18.402        0.007      336.061        7.107      864.180
01/20/2015  17:35:00      -12.492      184.703      -20.740       35.082       54.565       25.319     1230.778     2977.291      641.028        1.977        0.242      185.125       27.412        0.022      336.050        7.091      864.197
01/20/2015  17:36:00       17.095      178.080      -28.958       49.996       59.443       26.403     2499.581     3533.500      697.133        1.979        0.337      178.899       28.847        0.026      336.071        7.124      864.215
01/20/2015  17:37:00        1.260      178.189      -26.364       35.526       37.820       29.504     1262.069     1430.370      870.515        1.800        0.178      178.193       27.224        0.023      336.006        7.018      864.223
01/20/2015  17:38:00       -9.113      147.862      -28.778       46.701       72.848       25.579     2181.013     5306.878      654.261        1.546        0.407      148.143       26.713        0.033      336.011        7.024      864.225
01/20/2015  17:39:00      -44.598      147.036      -29.305       38.161       60.028       22.584     1456.286     3603.323      510.045        1.502        0.278      153.651       20.055        0.017      336.061        7.109      864.225
01/20/2015  17:40:00      -42.414      138.039      -22.495       46.615       60.483       21.571     2172.967     3658.241      465.315        1.383        0.315      144.408       18.509        0.016      336.061        7.109      864.231
01/20/2015  17:41:00      -15.885      132.778      -16.735       21.901       29.014       17.617      479.636      841.792      310.371        0.990        0.082      133.725       14.053        0.011      336.021        7.043      864.233
01/20/2015  17:42:00      -34.750       98.179      -18.418       34.082       30.571       19.405     1161.583      934.606      376.573        0.683        0.124      104.147       18.675        0.032      336.031        7.059      864.236
01/20/2015  17:43:00      -34.990      151.440      -21.882       39.330       32.712       17.607     1546.851     1070.075      309.991        1.378        0.146      155.429       15.590        0.010      335.983        6.979      864.240
01/20/2015  17:44:00      -21.214      147.688      -17.000       29.785       32.322       20.949      887.119     1044.735      438.850        1.246        0.119      149.204       17.605        0.014      335.933        6.896      864.248
01/20/2015  17:45:00      -57.203       75.240      -10.200       40.646       36.133       17.042     1652.115     1305.576      290.446        0.614        0.162       94.516       18.267        0.037      335.961        6.942      864.260
01/20/2015  17:46:00      -30.612       95.064      -12.987       23.899       56.394       18.374      571.157     3180.326      337.618        0.712        0.204       99.871       25.716        0.066      335.983        6.979      864.262
01/20/2015  17:47:00      -48.118       63.301       -5.044       40.367       52.575       21.869     1629.529     2764.140      478.274        0.561        0.244       79.514       28.647        0.130      335.864        6.782      864.265
01/20/2015  17:48:00      -46.306       98.369       -3.907       51.880       48.202       30.357     2691.566     2323.457      921.565        0.889        0.297      108.723       34.843        0.103      335.832        6.729      864.275
01/20/2015  17:49:00       -1.564      132.374      -16.291       28.896       23.954       16.454      834.983      573.814      270.735        0.973        0.084      132.383        6.814        0.003      335.874        6.798      864.289
01/20/2015  17:50:00      -29.343      108.348      -11.793       35.959       44.371       19.360     1293.019     1968.825      374.803        0.819        0.182      112.251       19.352        0.030      335.849        6.758      864.293
01/20/2015  17:51:00      -10.990      141.174      -16.071       34.166       29.271       20.042     1167.341      856.801      401.682        1.137        0.121      141.601       18.564        0.017      335.825        6.718      864.302
01/20/2015  17:52:00        6.168       99.098       -1.298       41.431       54.959       32.826     1716.511     3020.520     1077.566        0.784        0.291       99.290       33.851        0.116      335.777        6.636      864.306
01/20/2015  17:53:00       43.075      106.919       -4.793       43.545       40.923       28.592     1896.147     1674.717      817.503        0.885        0.219      115.270       21.728        0.036      335.777        6.637      864.290
01/20/2015  17:54:00       30.633       75.632        4.277       35.438       47.699       23.629     1255.872     2275.208      558.329        0.538        0.204       81.601       18.458        0.051      335.775        6.633      864.291
01/20/2015  17:55:00       -6.721       83.911      -13.362       25.372       29.501       19.991      643.723      870.316      399.634        0.459        0.096       84.179       18.725        0.049      335.812        6.695      864.294
01/20/2015  17:56:00      -32.847      148.414      -22.872       22.080       23.559       16.895      487.532      555.036      285.427        1.248        0.066      152.006       11.035        0.005      335.822        6.712      864.303
01/20/2015  17:57:00       18.725      188.422      -25.575       46.368       64.929       34.723     2149.999     4215.835     1205.697        2.204        0.379      189.350       37.380        0.039      335.825        6.713      864.315
01/20/2015  17:58:00       22.395       97.259       -1.705       33.877       61.597       34.077     1147.654     3794.222     1161.232        0.803        0.305       99.804       39.220        0.154      335.751        6.593      864.333
01/20/2015  17:59:00        5.742       74.259        2.155       31.263       47.134       23.157      977.400     2221.622      536.262        0.464        0.187       74.480       24.449        0.108      335.698        6.506      864.351
01/20/2015  18:00:00       30.190       67.526       -4.012       31.763       45.938       26.377     1008.912     2110.304      695.741        0.465        0.191       73.968       27.953        0.143      335.714        6.534      864.358
01/20/2015  18:01:00       16.158       60.740       -7.489       21.231       29.977       13.868      450.747      898.645      192.313        0.277        0.077       62.852       14.082        0.050      335.688        6.489      864.370
01/20/2015  18:02:00       10.773      122.777      -20.060       21.916       20.847       14.245      480.326      434.615      202.908        0.836        0.056      123.249        8.851        0.005      335.712        6.528      864.381
01/20/2015  18:03:00       27.919       83.806       -4.669       28.473       48.855       27.098      810.714     2386.814      734.288        0.588        0.197       88.334       32.831        0.138      335.664        6.450      864.395
01/20/2015  18:04:00       17.017       88.647       -9.677       40.523       50.524       27.256     1642.147     2552.646      742.890        0.659        0.247       90.266       31.072        0.118      335.682        6.479      864.408
01/20/2015  18:05:00       -4.006      114.509      -18.293       17.786       25.285       11.758      316.335      639.338      138.241        0.728        0.055      114.579        9.871        0.007      335.690        6.493      864.420
01/20/2015  18:06:00       -7.247      133.894      -16.683       32.038       26.314       15.323     1026.417      692.407      234.799        1.011        0.098      134.090       12.536        0.009      335.700        6.510      864.433
01/20/2015  18:07:00      -19.291      121.900      -16.497       46.619       53.833       25.827     2173.289     2897.987      667.034        1.062        0.287      123.417       25.588        0.043      335.686        6.485      864.437
01/20/2015  18:08:00       -3.691      154.121      -25.113       33.859       66.626       20.974     1146.429     4439.043      439.903        1.521        0.301      154.165       19.526        0.016      335.643        6.412      864.457
01/20/2015  18:09:00      -61.646       81.696      -22.378       25.883       29.736       19.505      669.929      884.201      380.435        0.645        0.097      102.345       16.954        0.027      335.730        6.560      864.482
01/20/2015  18:10:00     -108.006       80.473      -23.539       29.524       44.084       16.436      871.647     1943.392      270.132        1.089        0.154      134.689       16.988        0.016      335.664        6.448      864.491
01/20/2015  18:11:00      -80.540      188.022      -21.498       44.306       64.851       37.427     1963.005     4205.597     1400.746        2.493        0.378      204.546       29.656        0.021      335.441        6.076      864.513
01/20/2015  18:12:00      -94.704      100.706      -11.641       51.403       72.843       33.325     2642.279     5306.061     1110.565        1.415        0.453      138.241       33.333        0.058      335.424        6.049      864.525
01/20/2015  18:13:00     -103.362      109.370      -20.987       51.004       47.264       36.822     2601.439     2233.924     1355.852        1.464        0.310      150.484       33.111        0.048      335.393        5.995      864.547
01/20/2015  18:14:00      -99.978      102.528      -17.925       87.293       41.855       36.796     7620.150     1751.860     1353.924        1.578        0.536      143.205       42.680        0.089      335.400        6.008      864.550
01/20/2015  18:15:00      -77.294      112.169      -26.618       28.762       27.265       21.740      827.239      743.367      472.633        1.065        0.102      136.221       20.512        0.023      335.445        6.084      864.556
01/20/2015  18:16:00      -59.994      119.047      -17.766       42.482       44.135       24.661     1804.744     1947.880      608.155        1.122        0.218      133.310       18.955        0.020      335.472        6.127      864.567
01/20/2015  18:17:00      -83.546      109.519      -14.028       45.771       37.776       22.309     2094.983     1427.045      497.690        1.159        0.201      137.748       16.660        0.015      335.373        5.963      864.578
01/20/2015  18:18:00        5.284       72.365        0.392       48.040       37.933       26.802     2307.875     1438.910      718.354        0.486        0.223       72.558       23.389        0.104      335.352        5.927      864.590
01/20/2015  18:19:00        9.573      108.588      -17.479       26.294       38.026       20.233      691.396     1445.960      409.385        0.737        0.127      109.009       19.962        0.034      335.331        5.893      864.600
01/20/2015  18:20:00      -22.259       94.156      -19.679       39.384       29.491       14.588     1551.131      869.726      212.805        0.619        0.132       96.752       18.771        0.038      335.366        5.951      864.600
01/20/2015  18:21:00      -39.880       76.140      -13.206       29.997       34.901       17.463      899.823     1218.067      304.966        0.499        0.121       85.952       12.501        0.021      335.424        6.048      864.605
01/20/2015  18:22:00      -86.300       63.852      -25.026       40.890       31.543       19.333     1672.022      994.934      373.782        0.760        0.152      107.353       25.366        0.056      335.460        6.107      864.601
01/20/2015  18:23:00     -118.209      181.034      -36.027       61.074       51.374       35.211     3730.064     2639.267     1239.812        2.783        0.380      216.210       31.774        0.022      335.377        5.967      864.606
01/20/2015  18:24:00     -103.340       84.107      -22.777       31.768       63.767       27.528     1009.210     4066.257      757.808        1.205        0.292      133.241       26.156        0.039      335.410        6.026      864.607
01/20/2015  18:25:00      -82.708      108.719      -15.964       29.433       46.054       22.848      866.292     2120.941      522.050        1.121        0.175      136.603       14.711        0.012      335.404        6.014      864.614
01/20/2015  18:26:00     -129.146      102.172      -26.841       47.454       48.969       30.411     2251.856     2397.978      924.846        1.671        0.279      164.675       26.668        0.026      335.456        6.102      864.623
01/20/2015  18:27:00      -95.258      105.029      -24.536       43.919       63.373       27.206     1928.835     4016.197      740.192        1.370        0.334      141.793       23.428        0.027      335.374        5.964      864.629
01/20/2015  18:28:00     -120.798       78.922      -24.742       33.390       44.896       21.359     1114.921     2015.668      456.208        1.251        0.179      144.294       15.045        0.011      335.402        6.012      864.632
01/20/2015  18:29:00      -60.437       99.017       -9.367       40.865       63.493       34.090     1669.971     4031.333     1162.095        1.020        0.343      116.005       29.350        0.064      335.298        5.837      864.609
01/20/2015  18:30:00     -127.089      145.801      -34.397       53.041       56.667       34.610     2813.376     3211.121     1197.822        2.291        0.361      193.415       24.843        0.016      335.302        5.842      864.605
01/20/2015  18:31:00     -127.906      167.210      -36.853       55.364       72.827       31.157     3065.209     5303.701      970.784        2.751        0.467      210.521       20.351        0.009      335.306        5.849      864.610
01/20/2015  18:32:00      -98.895      105.941      -13.953       52.557       75.132       34.178     2762.229     5644.766     1168.163        1.539        0.479      144.927       32.545        0.050      335.269        5.789      864.602
01/20/2015  18:33:00     -138.272      162.399      -39.377       53.998       47.343       32.411     2915.744     2241.323     1050.476        2.662        0.310      213.290       27.775        0.017      335.282        5.810      864.610
01/20/2015  18:34:00     -121.912       66.350      -22.251       38.539       55.482       27.341     1485.245     3078.221      747.542        1.253        0.266      138.798       29.721        0.046      335.287        5.820      864.606
01/20/2015  18:35:00     -120.054      125.972      -31.870       45.950       75.248       28.741     2111.379     5662.245      826.052        1.995        0.430      174.017       32.396        0.035      335.297        5.834      864.612
01/20/2015  18:36:00     -133.179      123.295      -29.307       47.062       40.869       27.699     2214.853     1670.272      767.227        1.922        0.233      181.489       26.704        0.022      335.288        5.820      864.615
01/20/2015  18:37:00      -87.609      119.581      -22.777       42.847       41.811       28.765     1835.830     1748.121      827.405        1.345        0.221      148.239       23.873        0.026      335.311        5.860      864.616
01/20/2015  18:38:00      -73.956      116.599      -17.333       45.858       39.967       26.825     2102.942     1597.394      719.562        1.189        0.221      138.075       30.795        0.050      335.333        5.896      864.617
01/20/2015  18:39:00     -164.294      160.680      -46.240       48.245       54.695       28.513     2327.612     2991.570      812.973        3.054        0.307      229.806       23.686        0.011      335.307        5.849      864.626
01/20/2015  18:40:00     -123.573       57.866      -11.621       57.375       39.497       27.657     3291.897     1560.015      764.916        1.218        0.281      136.451       29.024        0.045      335.310        5.857      864.626
01/20/2015  18:41:00     -106.297      118.198      -27.337       32.815       47.783       25.315     1076.810     2283.223      640.854        1.501        0.200      158.965       23.533        0.022      335.333        5.896      864.630
01/20/2015  18:42:00      -75.297      103.178      -20.470       30.782       44.430       19.276      947.536     1974.068      371.568        1.001        0.165      127.731       16.505        0.017      335.362        5.945      864.628
01/20/2015  18:43:00     -103.134       99.147      -22.967       37.328       39.297       21.050     1393.373     1544.259      443.108        1.219        0.169      143.062       20.664        0.021      335.375        5.966      864.626
01/20/2015  18:44:00      -41.375       85.668      -11.008       28.412       41.858       24.602      807.256     1752.062      605.263        0.617        0.158       95.137       17.280        0.033      335.361        5.942      864.633
01/20/2015  18:45:00      -86.863      111.833      -20.228       37.698       73.017       24.758     1421.106     5331.517      612.961        1.391        0.368      141.604       24.914        0.031      335.359        5.939      864.642
01/20/2015  18:46:00      -63.091      116.358      -15.295       42.148       42.668       23.036     1776.415     1820.591      530.675        1.094        0.206      132.362       19.357        0.021      335.326        5.884      864.656
01/20/2015  18:47:00      -93.287       85.948      -25.845       38.457       32.423       22.425     1478.906     1051.247      502.882        0.989        0.152      126.845       18.193        0.021      335.380        5.975      864.665
01/20/2015  18:48:00     -103.452      108.643      -24.447       24.918       34.474       18.464      620.920     1188.476      340.925        1.263        0.108      150.019       12.271        0.007      335.325        5.883      864.671
01/20/2015  18:49:00     -113.457       97.201      -23.122       60.253       47.461       33.105     3630.379     2252.594     1095.955        1.492        0.349      149.401       36.629        0.060      335.337        5.902      864.670
01/20/2015  18:50:00     -164.459      148.554      -43.658       44.871       43.271       27.951     2013.426     1872.381      781.286        2.784        0.233      221.619       22.004        0.010      335.330        5.888      864.682
01/20/2015  18:51:00     -134.425      117.950      -40.310       32.373       42.638       21.328     1048.005     1818.000      454.867        1.846        0.166      178.836       19.069        0.011      335.364        5.946      864.674
01/20/2015  18:52:00     -115.880      115.130      -29.616       34.329       33.251       19.757     1178.466     1105.623      390.322        1.512        0.134      163.349       13.517        0.007      335.352        5.929      864.691
01/20/2015  18:53:00     -116.161      110.265      -31.362       38.479       32.321       20.294     1480.598     1044.653      411.829        1.479        0.147      160.162       13.955        0.008      335.342        5.911      864.701
01/20/2015  18:54:00     -116.268      109.608      -20.997       49.132       49.788       31.243     2413.908     2478.876      976.097        1.592        0.293      159.788       31.129        0.038      335.424        6.047      864.702
01/20/2015  18:55:00     -108.418      170.287      -35.395       44.128       41.085       27.416     1947.251     1687.938      751.619        2.320        0.219      201.872       22.038        0.012      335.368        5.951      864.721
01/20/2015  18:56:00     -103.520       91.822      -21.798       30.329       43.318       20.892      919.827     1876.410      436.468        1.143        0.162      138.375       20.988        0.023      335.354        5.932      864.720
01/20/2015  18:57:00     -105.906      143.192      -28.813       43.465       33.601       29.108     1889.216     1129.009      847.252        1.821        0.193      178.101       26.178        0.022      335.300        5.842      864.714
01/20/2015  18:58:00      -87.756       80.008      -10.619       43.046       68.882       32.314     1853.000     4744.739     1044.187        1.093        0.382      118.753       35.441        0.089      335.327        5.887      864.719
01/20/2015  18:59:00     -101.695       96.379      -18.722       41.653       39.463       29.750     1734.981     1557.292      885.072        1.208        0.209      140.109       28.317        0.041      335.290        5.823      864.731
01/20/2015  19:00:00      -92.049      142.441      -21.517       50.087       82.943       38.292     2508.743     6879.491     1466.286        2.004        0.543      169.595       37.358        0.049      335.227        5.719      864.741
01/20/2015  19:01:00     -104.691      132.449      -25.691       55.772       54.161       30.832     3110.508     2933.446      950.640        1.808        0.350      168.829       28.040        0.028      335.289        5.821      864.742
01/20/2015  19:02:00     -110.970      175.007      -26.024       44.842       69.975       39.928     2010.828     4896.431     1594.269        2.606        0.425      207.224       26.824        0.017      335.241        5.741      864.748
01/20/2015  19:03:00     -116.015      143.544      -28.293       58.433       50.696       32.316     3414.377     2570.072     1044.334        2.095        0.351      184.566       33.090        0.032      335.232        5.727      864.730
01/20/2015  19:04:00     -122.929       75.488      -18.802       37.317       42.136       22.966     1392.537     1775.439      527.436        1.243        0.185      144.257       18.590        0.017      335.212        5.694      864.731
01/20/2015  19:05:00     -117.058       64.125      -26.973       50.114       50.078       21.624     2511.427     2507.818      467.590        1.201        0.274      133.471       27.488        0.042      335.212        5.697      864.717
01/20/2015  19:06:00     -114.438      114.174      -22.306       55.099       55.201       30.335     3035.865     3047.119      920.198        1.682        0.350      161.653       28.151        0.030      335.216        5.701      864.709
01/20/2015  19:07:00     -110.628       92.264      -25.356       32.581       39.074       22.753     1061.520     1526.795      517.695        1.225        0.155      144.053       19.533        0.018      335.210        5.690      864.713
01/20/2015  19:08:00     -124.918       75.583      -29.973       32.399       42.161       22.028     1049.680     1777.564      485.255        1.276        0.166      146.004       15.711        0.012      335.187        5.653      864.718
01/20/2015  19:09:00     -130.529       63.868      -19.832       32.183       41.145       22.653     1035.755     1692.949      513.158        1.238        0.162      145.317       19.198        0.017      335.194        5.666      864.727
01/20/2015  19:10:00     -111.639      114.149      -30.718       40.294       38.187       24.575     1623.639     1458.256      603.942        1.506        0.184      159.666       21.650        0.018      335.234        5.731      864.744
01/20/2015  19:11:00     -102.198      110.557      -28.055       40.180       36.091       20.865     1614.415     1302.584      435.348        1.340        0.168      150.557       19.388        0.017      335.264        5.782      864.753
01/20/2015  19:12:00     -104.783       93.349      -23.229       32.002       28.933       17.928     1024.160      837.140      321.425        1.121        0.109      140.334       16.231        0.013      335.223        5.714      864.770
01/20/2015  19:13:00      -84.283       96.572      -23.568       27.069       31.790       18.651      732.712     1010.584      347.875        0.954        0.105      128.178       17.676        0.019      335.225        5.717      864.775
01/20/2015  19:14:00      -59.874       99.715       -9.086       48.595       42.675       25.106     2361.474     1821.126      630.332        0.921        0.241      116.310       27.484        0.056      335.212        5.696      864.777
01/20/2015  19:15:00      -82.591      100.795      -20.750       37.242       62.602       27.508     1386.934     3919.034      756.681        1.174        0.303      130.311       25.606        0.039      335.215        5.699      864.783
01/20/2015  19:16:00      -74.463       95.766      -17.822       36.707       32.057       18.449     1347.391     1027.676      340.359        0.887        0.136      121.309       17.902        0.022      335.256        5.768      864.784
01/20/2015  19:17:00      -99.682      135.067      -23.481       49.351       46.241       31.338     2435.504     2138.262      982.042        1.714        0.278      167.868       29.372        0.031      335.260        5.774      864.793
01/20/2015  19:18:00      -85.468      127.362      -22.566       36.984       34.394       25.652     1367.809     1182.973      658.039        1.362        0.160      153.382       21.255        0.019      335.242        5.745      864.813
01/20/2015  19:19:00      -73.416      101.866      -23.114       42.132       42.777       29.616     1775.085     1829.911      877.083        1.039        0.224      125.565       30.720        0.060      335.197        5.670      864.817
01/20/2015  19:20:00      -79.482      101.487      -19.060       26.354       49.879       23.924      694.533     2487.880      572.342        1.037        0.188      128.907       27.839        0.047      335.198        5.671      864.823
01/20/2015  19:21:00      -82.962       96.492      -20.042       42.065       43.128       22.275     1769.423     1860.022      496.181        1.036        0.206      127.254       28.865        0.051      335.213        5.697      864.842
01/20/2015  19:22:00      -89.910      129.198      -24.266       36.362       38.879       20.596     1322.228     1511.583      424.205        1.431        0.163      157.404       14.862        0.009      335.266        5.784      864.853
01/20/2015  19:23:00      -82.967       93.362      -18.799       43.614       35.253       17.837     1902.193     1242.799      318.149        0.971        0.173      124.900       15.012        0.014      335.284        5.815      864.856
01/20/2015  19:24:00      -79.056       86.406      -15.196       39.786       32.053       17.858     1582.943     1027.404      318.905        0.844        0.146      117.115       19.357        0.027      335.255        5.767      864.867
01/20/2015  19:25:00     -140.283       80.075      -29.903       47.231       45.432       22.456     2230.785     2064.102      504.273        1.589        0.240      161.528       23.027        0.020      335.235        5.733      864.873
01/20/2015  19:26:00     -162.852      108.987      -34.646       46.356       51.944       23.561     2148.911     2698.149      555.109        2.250        0.270      195.956       18.219        0.009      335.194        5.665      864.870
01/20/2015  19:27:00      -88.708      122.167      -22.645       42.385       37.651       24.235     1796.481     1417.607      587.351        1.355        0.190      150.977       20.653        0.019      335.117        5.537      864.869
01/20/2015  19:28:00     -129.898      102.271      -23.282       42.825       47.263       27.259     1833.950     2233.832      743.031        1.634        0.241      165.327       26.179        0.025      335.149        5.589      864.872
01/20/2015  19:29:00      -75.933       43.630       -5.942       33.029       36.761       22.273     1090.935     1351.396      496.105        0.532        0.147       87.575        5.804        0.004      335.150        5.592      864.859
01/20/2015  19:30:00      -90.387       63.676      -21.001       28.916       44.471       25.160      836.113     1977.692      633.001        0.806        0.172      110.564       27.146        0.060      335.141        5.578      864.849
01/20/2015  19:31:00      -73.026      103.038      -18.145       37.059       33.005       23.971     1373.374     1089.323      574.586        0.966        0.152      126.292       20.957        0.028      335.070        5.460      864.838
01/20/2015  19:32:00      -42.955       83.228       -7.146       42.433       40.055       24.288     1800.564     1604.404      589.915        0.641        0.200       93.660       20.804        0.049      335.041        5.412      864.844
01/20/2015  19:33:00      -91.023      155.069      -25.063       37.254       47.537       28.059     1387.878     2259.781      787.290        1.870        0.222      179.810       24.227        0.018      334.984        5.317      864.841
01/20/2015  19:34:00      -92.708      179.901      -24.201       47.934       47.876       28.085     2297.714     2292.086      788.782        2.346        0.269      202.384       29.095        0.021      334.964        5.282      864.837
01/20/2015  19:35:00     -109.120      118.013      -22.801       35.493       35.474       24.664     1259.765     1258.425      608.310        1.474        0.156      160.730       24.994        0.024      334.968        5.292      864.845
01/20/2015  19:36:00      -74.956       86.248      -12.923       40.959       38.337       27.327     1677.654     1469.724      746.743        0.856        0.195      114.268       22.842        0.040      334.975        5.302      864.844
01/20/2015  19:37:00      -69.945      109.329      -16.716       37.055       38.779       24.690     1373.086     1503.831      609.613        1.030        0.174      129.789       20.838        0.026      335.002        5.348      864.843
01/20/2015  19:38:00     -131.015       84.763      -21.297       57.449       45.715       30.009     3300.375     2089.885      900.538        1.555        0.315      156.044       29.676        0.036      334.964        5.283      864.839
01/20/2015  19:39:00     -119.298       87.609      -18.758       41.247       52.232       29.315     1701.311     2728.175      859.347        1.377        0.264      148.012       23.390        0.025      334.991        5.329      864.846
01/20/2015  19:40:00     -127.257      110.217      -24.838       49.510       47.523       26.167     2451.254     2258.448      684.736        1.718        0.270      168.351       27.121        0.026      334.994        5.333      864.844
01/20/2015  19:41:00     -147.785      122.062      -28.502       41.841       49.444       28.186     1750.705     2444.677      794.430        2.127        0.249      191.675       24.623        0.017      334.933        5.231      864.839
01/20/2015  19:42:00     -122.952      112.521      -31.057       55.997       41.021       32.427     3135.694     1682.758     1051.503        1.731        0.293      166.668       28.142        0.029      334.928        5.223      864.839
01/20/2015  19:43:00      -96.228       98.583      -22.108       30.515       26.188       17.623      931.169      685.813      310.578        1.070        0.096      137.762       13.141        0.009      334.915        5.202      864.845
01/20/2015  19:44:00      -79.275      110.438      -21.103       36.862       41.872       27.107     1358.823     1753.244      734.815        1.139        0.192      135.945       24.151        0.032      334.979        5.308      864.841
01/20/2015  19:45:00     -113.630      131.193      -29.862       39.281       46.193       28.450     1542.975     2133.790      809.378        1.775        0.224      173.560       28.625        0.027      334.915        5.202      864.835
01/20/2015  19:46:00      -93.242      113.576      -28.964       26.326       36.414       19.798      693.044     1325.973      391.976        1.242        0.121      146.948       17.541        0.014      334.885        5.152      864.850
01/20/2015  19:47:00      -95.851       77.507      -20.160       38.432       33.759       19.515     1476.984     1139.684      380.836        0.930        0.150      123.267       16.606        0.018      334.866        5.120      864.849
01/20/2015  19:48:00     -101.282       80.612      -22.853       41.257       53.093       29.520     1702.100     2818.918      871.406        1.133        0.270      129.446       32.057        0.061      334.896        5.170      864.843
01/20/2015  19:49:00      -85.300      117.962      -24.328       35.119       42.880       22.547     1233.336     1838.733      508.345        1.268        0.179      145.572       20.671        0.020      334.864        5.117      864.850
01/20/2015  19:50:00      -76.948       88.667      -11.114       47.648       44.781       26.821     2270.354     2005.320      719.346        0.945        0.250      117.400       19.862        0.029      334.810        5.028      864.859
01/20/2015  19:51:00     -109.184      124.391      -29.261       27.274       33.635       24.781      743.883     1131.331      614.089        1.537        0.124      165.512       17.930        0.012      334.761        4.947      864.859
01/20/2015  19:52:00     -134.299       98.377      -30.288       47.975       31.672       24.976     2301.635     1003.086      623.818        1.628        0.196      166.477       25.869        0.024      334.765        4.951      864.854
01/20/2015  19:53:00     -114.881       85.661      -21.742       35.796       40.572       24.719     1281.345     1646.072      611.005        1.227        0.177      143.302       21.071        0.022      334.785        4.986      864.850
01/20/2015  19:54:00     -112.602       96.580      -19.402       54.673       68.718       34.655     2989.114     4722.184     1200.965        1.565        0.446      148.347       34.559        0.054      334.786        4.988      864.860
01/20/2015  19:55:00     -129.871      106.787      -33.341       51.275       60.494       27.128     2629.161     3659.540      735.939        1.820        0.351      168.137       29.205        0.030      334.787        4.989      864.867
01/20/2015  19:56:00     -136.390      124.516      -32.973       50.465       59.988       32.852     2546.760     3598.582     1079.245        2.121        0.361      184.679       26.185        0.020      334.772        4.964      864.871
01/20/2015  19:57:00     -116.371      132.528      -26.092       33.441       83.664       34.501     1118.331     6999.728     1190.349        2.055        0.465      176.369       35.823        0.041      334.719        4.874      864.876
01/20/2015  19:58:00     -156.102      101.357      -33.249       52.732       59.137       34.467     2780.678     3497.229     1187.989        2.161        0.373      186.121       29.040        0.024      334.781        4.977      864.895
01/20/2015  19:59:00     -131.460      119.843      -28.315       47.275       50.701       29.837     2234.942     2570.623      890.269        1.907        0.285      177.888       24.849        0.020      334.760        4.943      864.897
01/20/2015  20:00:00     -150.516      130.015      -40.226       34.525       45.125       23.067     1191.967     2036.271      532.079        2.247        0.188      198.895       17.904        0.008      334.759        4.942      864.892
01/20/2015  20:01:00     -117.113      129.197      -27.841       51.131       46.794       27.751     2614.401     2189.658      770.137        1.838        0.279      174.376       24.988        0.021      334.746        4.920      864.907
01/20/2015  20:02:00      -95.144      154.213      -24.082       58.823       71.071       31.330     3460.124     5051.063      981.576        2.145        0.475      181.202       37.430        0.043      334.761        4.944      864.918
01/20/2015  20:03:00     -110.945      137.398      -37.101       37.732       46.756       26.259     1423.706     2186.158      689.513        1.843        0.215      176.599       28.319        0.026      334.769        4.959      864.919
01/20/2015  20:04:00     -115.648      126.690      -27.070       37.738       47.303       22.504     1424.127     2237.574      506.451        1.716        0.208      171.537       20.114        0.014      334.710        4.860      864.929
01/20/2015  20:05:00      -73.074       93.059      -18.998       43.109       46.833       29.049     1858.395     2193.325      843.841        0.963        0.245      118.321       25.110        0.045      334.738        4.908      864.940
01/20/2015  20:06:00     -107.420      104.638      -23.220       52.071       44.445       23.697     2711.344     1975.322      561.530        1.414        0.262      149.960       23.211        0.024      334.680        4.812      864.942
01/20/2015  20:07:00     -114.355       99.585      -31.250       38.918       43.866       25.527     1514.601     1924.255      651.647        1.403        0.205      151.638       24.969        0.027      334.686        4.821      864.944
01/20/2015  20:08:00      -93.995       81.276      -23.503       32.244       51.003       23.443     1039.707     2601.289      549.571        1.009        0.210      124.262       27.495        0.049      334.682        4.815      864.958
01/20/2015  20:09:00     -147.908      105.837      -30.741       27.419       68.940       25.153      751.811     4752.657      632.674        2.008        0.307      181.874       27.763        0.023      334.748        4.922      864.969
01/20/2015  20:10:00     -106.896       47.789      -14.660       52.998       78.184       29.561     2808.804     6112.710      873.863        1.186        0.490      117.092       30.398        0.067      334.737        4.906      864.975
01/20/2015  20:11:00     -117.245      151.419      -26.925       33.731       55.574       27.156     1137.777     3088.446      737.470        2.118        0.248      191.505       22.262        0.014      334.704        4.850      864.983
01/20/2015  20:12:00     -129.996       86.011      -33.720       41.692       56.463       30.213     1738.193     3188.066      912.825        1.564        0.292      155.874       30.985        0.040      334.783        4.983      864.989
01/20/2015  20:13:00      -95.975       52.457       -8.192       27.835       40.809       23.320      774.798     1665.412      543.845        0.751        0.149      109.375       16.423        0.023      334.719        4.877      864.978
01/20/2015  20:14:00      -89.508       57.064      -21.552       29.274       42.638       22.090      856.993     1818.029      487.989        0.745        0.158      106.151       24.076        0.051      334.718        4.876      864.975
01/20/2015  20:15:00      -91.392       32.996      -21.114       27.020       34.546       23.676      730.094     1193.451      560.540        0.619        0.124       97.166       18.193        0.035      334.780        4.977      864.982
01/20/2015  20:16:00     -102.743       29.580      -17.342       25.177       23.089       20.001      633.906      533.083      400.023        0.665        0.078      106.916       13.687        0.016      334.775        4.972      864.980
01/20/2015  20:17:00      -76.507       43.878       -1.071       39.732       38.226       23.133     1578.643     1461.255      535.144        0.568        0.179       88.197       13.191        0.022      334.728        4.893      864.979
01/20/2015  20:18:00      -62.027       50.209      -11.587       28.630       27.600       17.168      819.685      761.759      294.727        0.419        0.094       79.802       15.802        0.039      334.768        4.958      864.982
01/20/2015  20:19:00      -74.582      113.545      -14.510       40.511       66.335       22.885     1641.165     4400.293      523.710        1.261        0.328      135.849       28.772        0.045      334.841        5.079      864.993
01/20/2015  20:20:00      -94.714      165.457      -28.728       36.896       48.193       27.620     1361.278     2322.607      762.859        2.081        0.222      190.648       22.810        0.014      334.778        4.974      865.006
01/20/2015  20:21:00      -90.200      129.675      -27.526       37.596       49.192       23.342     1413.461     2419.810      544.868        1.504        0.219      157.961       21.718        0.019      334.828        5.057      865.019
01/20/2015  20:22:00     -118.278      147.640      -30.973       32.946       45.929       22.594     1085.422     2109.449      510.491        2.023        0.185      189.175       14.981        0.006      334.798        5.007      865.018
01/20/2015  20:23:00      -92.193       99.582      -20.066       33.769       53.703       28.707     1140.372     2884.002      824.079        1.183        0.242      135.705       19.687        0.021      334.768        4.958      865.026
01/20/2015  20:24:00      -99.935      111.621      -28.221       28.219       71.317       22.024      796.297     5086.083      485.071        1.480        0.318      149.821       14.459        0.009      334.818        5.041      865.049
01/20/2015  20:25:00     -110.161       98.583      -24.990       34.705       48.730       33.463     1204.420     2374.609     1119.794        1.359        0.235      147.831       25.539        0.030      334.776        4.972      865.058
01/20/2015  20:26:00      -84.181       40.815      -11.191       36.514       48.515       24.475     1333.261     2353.707      599.009        0.658        0.214       93.554       21.753        0.054      334.770        4.962      865.058
01/20/2015  20:27:00      -98.283       83.934      -24.644       31.603       50.613       21.720      998.779     2561.646      471.754        1.067        0.202      129.246       18.064        0.020      334.741        4.914      865.057
01/20/2015  20:28:00     -132.585       75.622      -24.148       33.413       37.001       31.622     1116.418     1369.088      999.966        1.368        0.174      152.635       28.882        0.036      334.736        4.905      865.052
01/20/2015  20:29:00     -104.947       84.630      -21.350       38.570       50.133       19.109     1487.650     2513.345      365.156        1.150        0.218      134.818       19.012        0.020      334.709        4.860      865.059
01/20/2015  20:30:00     -102.107      111.570      -33.524       22.168       32.594       17.550      491.440     1062.371      308.004        1.293        0.093      151.241       12.048        0.006      334.675        4.803      865.070
01/20/2015  20:31:00      -82.461       97.075      -24.446       33.830       43.659       20.058     1144.447     1906.094      402.343        1.014        0.173      127.371       16.438        0.017      334.678        4.808      865.069
01/20/2015  20:32:00      -57.512       55.332      -11.295       27.676       31.187       16.376      765.949      972.659      268.188        0.425        0.100       79.808       14.047        0.031      334.648        4.760      865.070
01/20/2015  20:33:00      -58.545       77.881       -6.607       37.124       33.544       25.860     1378.192     1125.196      668.734        0.635        0.159       97.432       28.013        0.083      334.574        4.636      865.069
01/20/2015  20:34:00        8.222      101.738      -11.929       34.377       35.125       16.640     1181.776     1233.744      276.895        0.663        0.135      102.069       16.637        0.027      334.491        4.499      865.081
01/20/2015  20:35:00        7.856       48.266       -3.959       32.577       37.290       18.182     1061.241     1390.533      330.572        0.259        0.139       48.901       21.358        0.191      334.406        4.358      865.094
01/20/2015  20:36:00        5.817       62.383      -12.359       23.091       16.908       14.335      533.214      285.883      205.494        0.255        0.051       62.653       10.889        0.030      334.416        4.374      865.102
01/20/2015  20:37:00       -0.273       83.102      -16.194       10.137       21.436        8.832      102.761      459.516       78.013        0.390        0.032       83.103        8.820        0.011      334.441        4.417      865.112
01/20/2015  20:38:00       -1.097       82.053      -15.884        9.729       20.492        9.400       94.663      419.932       88.358        0.379        0.030       82.061       10.371        0.016      334.445        4.422      865.115
01/20/2015  20:39:00      -26.480       56.286       -6.804       20.739       19.773       11.847      430.122      390.954      140.345        0.244        0.048       62.204        9.706        0.024      334.430        4.397      865.124
01/20/2015  20:40:00       -3.429       90.039      -13.285       11.666       15.448        8.046      136.093      238.633       64.738        0.437        0.022       90.104        6.686        0.006      334.496        4.507      865.134
01/20/2015  20:41:00       -6.706       93.203      -13.700       10.773       13.019       10.175      116.056      169.498      103.533        0.465        0.019       93.444        3.518        0.001      334.505        4.522      865.144
01/20/2015  20:42:00       -0.954      108.488      -19.940       16.390       15.761        9.855      268.645      248.412       97.129        0.639        0.031      108.493        3.117        0.001      334.529        4.560      865.147
01/20/2015  20:43:00        0.172       87.018      -12.775       15.228       23.912        7.350      231.894      571.786       54.024        0.430        0.043       87.019        6.728        0.006      334.485        4.487      865.140
01/20/2015  20:44:00        2.338       87.871      -18.243       10.904       18.074        8.154      118.891      326.658       66.489        0.429        0.026       87.902        6.988        0.006      334.443        4.420      865.140
01/20/2015  20:45:00        9.307       66.764       -9.376       13.648       18.492       11.015      186.259      341.948      121.324        0.264        0.032       67.409        5.798        0.007      334.404        4.353      865.124
01/20/2015  20:46:00        7.351       99.592       -8.124       21.117       25.776       18.857      445.941      664.408      355.593        0.575        0.073       99.863       16.245        0.026      334.426        4.391      865.118
01/20/2015  20:47:00        8.466      100.438      -16.180       11.524       18.033        9.827      132.797      325.188       96.567        0.549        0.028      100.794        8.343        0.007      334.408        4.361      865.115
01/20/2015  20:48:00       33.871       79.848      -13.454       18.199       30.518       15.572      331.191      931.328      242.499        0.460        0.075       86.735       16.248        0.035      334.374        4.307      865.120
01/20/2015  20:49:00       17.044       42.024        0.755       19.127       24.357       18.582      365.828      593.274      345.295        0.168        0.065       45.348       13.967        0.095      334.298        4.179      865.121
01/20/2015  20:50:00       32.101       60.666       -9.247       21.600       33.456       15.783      466.554     1119.272      249.109        0.332        0.092       68.636       19.386        0.080      334.331        4.233      865.137
01/20/2015  20:51:00       14.183       60.368       -6.265       18.030       29.174       12.457      325.071      851.107      155.176        0.261        0.067       62.012       12.468        0.040      334.359        4.278      865.143
01/20/2015  20:52:00       29.350       76.803       -9.631       14.701       14.025       12.377      216.131      196.696      153.183        0.371        0.028       82.220        8.472        0.011      334.343        4.253      865.157
01/20/2015  20:53:00       25.879       73.110      -13.704       14.838       17.387       12.402      220.180      302.293      153.807        0.344        0.034       77.555       11.058        0.020      334.382        4.319      865.165
01/20/2015  20:54:00       20.516       54.514      -11.486       16.966       16.953        8.429      287.840      287.417       71.049        0.209        0.032       58.247        7.613        0.017      334.383        4.319      865.174
01/20/2015  20:55:00      -16.230       78.832      -15.187       17.145       17.758       11.723      293.968      315.335      137.434        0.373        0.037       80.486        9.656        0.014      334.435        4.406      865.175
01/20/2015  20:56:00      -21.548       83.972      -11.207       18.137       21.099       12.701      328.943      445.166      161.316        0.429        0.047       86.693        8.221        0.009      334.456        4.440      865.179
01/20/2015  20:57:00      -13.269       98.384      -14.572       14.166       13.068        9.392      200.680      170.782       88.215        0.526        0.023       99.274        8.575        0.007      334.569        4.627      865.194
01/20/2015  20:58:00        3.999       98.208      -15.537       11.943       16.970        8.750      142.632      287.997       76.567        0.520        0.025       98.290        6.896        0.005      334.593        4.667      865.226
01/20/2015  20:59:00       10.303      103.200      -16.476       11.053       13.568       10.774      122.167      184.082      116.079        0.573        0.021      103.713        7.188        0.005      334.530        4.561      865.257
01/20/2015  21:00:00       -1.060      101.460      -16.694        8.793       12.691        7.676       77.324      161.061       58.917        0.544        0.015      101.466        5.779        0.003      334.505        4.522      865.282
01/20/2015  21:01:00       19.745       97.309      -19.147       19.128       13.748        9.444      365.880      189.020       89.190        0.543        0.032       99.293        9.492        0.009      334.505        4.522      865.300
01/20/2015  21:02:00       25.787       72.381      -13.755       12.292       30.308       12.665      151.100      918.567      160.396        0.366        0.062       76.837       15.701        0.042      334.413        4.371      865.312
01/20/2015  21:03:00       17.079       30.021       -3.752       13.303       16.671       11.407      176.957      277.937      130.125        0.090        0.029       34.539        8.142        0.056      334.321        4.220      865.323
01/20/2015  21:04:00       13.077       16.868       -2.042       11.169       13.299       13.048      124.737      176.868      170.248        0.047        0.024       21.343        9.764        0.209      334.314        4.207      865.331
01/20/2015  21:05:00       12.095       18.811       -4.388        7.599        8.067        6.453       57.750       65.074       41.645        0.034        0.008       22.364        6.787        0.092      334.364        4.289      865.344
01/20/2015  21:06:00        5.357       10.905       -1.589        4.881        8.259        4.635       23.825       68.205       21.486        0.013        0.006       12.150        3.087        0.065      334.452        4.435      865.354
01/20/2015  21:07:00        9.473        8.533       -3.097        7.973        9.524        5.534       63.571       90.699       30.627        0.018        0.009       12.750        4.804        0.142      334.455        4.441      865.366
01/20/2015  21:08:00        2.464       -1.966        2.421        4.395        5.948        5.795       19.314       35.379       33.584        0.005        0.004        3.152        3.513        1.242      334.428        4.394      865.385
01/20/2015  21:09:00       -4.417       40.814      -10.528        7.205       14.682        6.541       51.912      215.562       42.787        0.105        0.016       41.052        4.521        0.012      334.497        4.509      865.411
01/20/2015  21:10:00        8.028       48.841       -1.548       14.255       12.519        8.992      203.209      156.732       80.861        0.145        0.022       49.497        7.389        0.022      334.481        4.483      865.433
01/20/2015  21:11:00       12.833       32.813       -2.435       12.091       12.469       10.872      146.182      155.475      118.198        0.083        0.021       35.233        1.952        0.003      334.441        4.416      865.448
01/20/2015  21:12:00       18.174       11.159        1.617       10.866        8.578        8.912      118.066       73.577       79.425        0.036        0.014       21.326        5.147        0.058      334.377        4.310      865.455
01/20/2015  21:13:00        8.781       28.726       -0.513        9.508       17.102        7.191       90.406      292.465       51.709        0.067        0.022       30.038        9.707        0.104      334.351        4.267      865.476
01/20/2015  21:14:00       13.922       20.799        4.699        7.811       15.928        9.749       61.013      253.695       95.039        0.053        0.020       25.028       10.126        0.164      334.322        4.217      865.483
01/20/2015  21:15:00       12.350       35.477       -2.976        8.775       15.103        7.340       76.992      228.088       53.879        0.089        0.018       37.565        8.437        0.050      334.349        4.263      865.492
01/20/2015  21:16:00       13.419       77.707      -10.725       25.792       16.829       10.776      665.235      283.208      116.130        0.370        0.053       78.857        3.037        0.001      334.428        4.393      865.504
01/20/2015  21:17:00        9.585       30.532       -4.064       28.626       24.738       18.618      819.437      611.951      346.636        0.141        0.089       32.002       15.430        0.232      334.301        4.186      865.508
01/20/2015  21:18:00       25.011       51.054       -5.918       19.975       17.453       12.968      398.985      304.614      168.163        0.207        0.044       56.851        9.197        0.026      334.304        4.188      865.507
01/20/2015  21:19:00        9.748       60.674      -12.241       21.565       21.726        9.489      465.045      472.020       90.033        0.248        0.051       61.453        6.387        0.011      334.379        4.313      865.502
01/20/2015  21:20:00       20.199       39.640      -11.069       17.380       23.812       17.581      302.049      567.018      309.109        0.164        0.059       44.490       18.227        0.168      334.304        4.188      865.500
01/20/2015  21:21:00       -4.183       76.416       -4.222       13.207       32.584       12.803      174.422     1061.731      163.914        0.364        0.070       76.530       13.884        0.033      334.283        4.155      865.498
01/20/2015  21:22:00      -10.945       94.718      -13.723       29.874       41.092       20.501      892.473     1688.529      420.285        0.614        0.150       95.348       24.154        0.064      334.290        4.166      865.496
01/20/2015  21:23:00       13.009       93.591      -12.028       22.338       59.960       20.537      499.001     3595.201      421.773        0.679        0.226       94.491       29.484        0.097      334.197        4.011      865.496
01/20/2015  21:24:00       26.097       60.234       -5.838       18.773       19.742       12.244      352.432      389.742      149.923        0.262        0.045       65.645       10.049        0.023      334.143        3.920      865.496
01/20/2015  21:25:00       16.156       77.956      -11.886       19.317       24.960       14.152      373.155      623.014      200.273        0.384        0.060       79.613       15.396        0.037      334.256        4.111      865.499
01/20/2015  21:26:00       -1.697       65.537       -5.367       30.791       33.656       15.363      948.083     1132.749      236.034        0.332        0.116       65.559       10.247        0.024      334.245        4.090      865.512
01/20/2015  21:27:00       -8.454       65.897       -5.030       33.534       22.160       12.471     1124.545      491.076      155.518        0.310        0.089       66.437        9.466        0.020      334.210        4.032      865.518
01/20/2015  21:28:00       -6.133       86.599      -15.502       28.936       40.449       24.632      837.282     1636.131      606.737        0.543        0.154       86.816       13.013        0.022      334.292        4.167      865.525
01/20/2015  21:29:00       11.270       64.136       -9.807       16.057       18.610       11.050      257.841      346.344      122.100        0.253        0.036       65.119        6.158        0.009      334.277        4.145      865.529
01/20/2015  21:30:00       13.543       54.617      -10.184       10.668       16.765       10.081      113.796      281.073      101.636        0.188        0.025       56.270        8.766        0.024      334.196        4.008      865.539
01/20/2015  21:31:00       -2.717       78.683      -19.194       10.024       21.112        8.761      100.487      445.715       76.748        0.359        0.031       78.730        9.433        0.014      334.249        4.098      865.534
01/20/2015  21:32:00      -42.873       54.306      -10.506       27.595       24.236        8.117      761.480      587.371       65.879        0.316        0.071       69.190        6.744        0.010      334.254        4.106      865.533
01/20/2015  21:33:00      -60.563       46.984      -10.745       30.504       24.142       14.977      930.490      582.844      224.313        0.386        0.087       76.651       15.060        0.039      334.276        4.142      865.539
01/20/2015  21:34:00      -91.826       66.523      -18.749       21.597       15.594       10.395      466.409      243.185      108.062        0.701        0.041      113.390        8.482        0.006      334.223        4.055      865.551
01/20/2015  21:35:00      -54.486       51.633      -10.621       33.896       22.756       12.628     1148.909      517.821      159.460        0.379        0.091       75.065       12.449        0.028      334.233        4.071      865.566
01/20/2015  21:36:00      -26.610       60.552      -10.895       27.140       27.125       13.441      736.569      735.789      180.654        0.307        0.083       66.141        7.325        0.012      334.251        4.101      865.585
01/20/2015  21:37:00      -33.376       31.192       -4.227       20.271       14.359       11.861      410.895      206.173      140.680        0.143        0.038       45.683       10.792        0.056      334.176        3.975      865.591
01/20/2015  21:38:00      -50.491       64.888       -6.339       44.084       41.701       24.205     1943.356     1738.935      585.889        0.553        0.213       82.218       29.112        0.125      334.194        4.005      865.589
01/20/2015  21:39:00      -46.201       49.866       -0.889       28.510       30.535       19.233      812.817      932.399      369.926        0.337        0.106       67.979       16.056        0.056      334.139        3.914      865.601
01/20/2015  21:40:00      -72.096       74.340      -17.441       33.080       38.386       19.020     1094.277     1473.468      361.773        0.698        0.146      103.558       16.031        0.024      334.183        3.987      865.616
01/20/2015  21:41:00      -27.090      101.295      -12.327       24.961       22.753       15.045      623.049      517.676      226.356        0.626        0.068      104.855       12.657        0.015      334.296        4.174      865.638
01/20/2015  21:42:00      -19.956       55.264        0.422       25.332       24.045       16.365      641.728      578.180      267.814        0.247        0.074       58.757       11.526        0.038      334.180        3.982      865.660
01/20/2015  21:43:00      -34.161       34.911       -5.950       18.139       22.466        8.611      329.022      504.736       74.145        0.166        0.045       48.844        4.950        0.010      334.205        4.023      865.674
01/20/2015  21:44:00      -16.634        5.203        0.975       15.706       14.253       10.294      246.684      203.137      105.975        0.043        0.028       17.428       11.728        0.453      334.178        3.980      865.684
01/20/2015  21:45:00      -11.456       24.945       -5.471       12.117       44.695       13.968      146.827     1997.604      195.113        0.156        0.117       27.450       17.245        0.395      334.150        3.934      865.681
01/20/2015  21:46:00      -21.842       47.132        2.809       33.493       41.935       22.205     1121.795     1758.563      493.041        0.304        0.169       51.947       17.660        0.116      334.164        3.956      865.672
01/20/2015  21:47:00      -17.910      149.634      -24.567       19.419       55.623       15.440      377.078     3093.877      238.402        1.351        0.185      150.702       21.244        0.020      334.235        4.072      865.681
01/20/2015  21:48:00      -34.867      137.375      -25.240       21.721       42.967       14.710      471.791     1846.127      216.369        1.163        0.127      141.731       15.143        0.011      334.248        4.095      865.683
01/20/2015  21:49:00      -29.067      108.210      -15.390       23.708       32.697       15.001      562.051     1069.106      225.039        0.732        0.093      112.046       11.175        0.010      334.330        4.233      865.679
01/20/2015  21:50:00      -19.017      118.699      -16.163       23.252       24.521       13.898      540.634      601.276      193.160        0.802        0.067      120.213        7.696        0.004      334.256        4.109      865.675
01/20/2015  21:51:00       11.199      145.295      -25.211       20.283       19.312       12.701      411.397      372.945      161.316        1.141        0.047      145.726        6.420        0.002      334.230        4.066      865.676
01/20/2015  21:52:00       11.380      112.205      -17.270       22.122       29.350       14.230      489.382      861.427      202.481        0.729        0.078      112.780       15.279        0.018      334.138        3.913      865.688
01/20/2015  21:53:00       -1.143      112.963      -20.984       29.121       15.847       10.825      848.053      251.137      117.188        0.721        0.061      112.969        9.706        0.007      334.151        3.934      865.698
01/20/2015  21:54:00      -22.464      118.956      -17.968       22.474       24.307       13.632      505.069      590.812      185.843        0.813        0.064      121.059       11.538        0.009      334.215        4.041      865.701
01/20/2015  21:55:00      -21.854      139.908      -21.345       17.667       25.285       12.435      312.107      639.349      154.622        1.081        0.055      141.604       10.662        0.006      334.257        4.109      865.706
01/20/2015  21:56:00      -17.129      125.980      -20.424       21.897       20.239       11.460      479.479      409.606      131.330        0.880        0.051      127.139        6.550        0.003      334.261        4.119      865.701
01/20/2015  21:57:00       -7.582      109.963      -16.618       18.766       21.699       10.963      352.168      470.830      120.178        0.668        0.047      110.224        8.462        0.006      334.277        4.144      865.711
01/20/2015  21:58:00      -26.695      125.886      -23.816       18.134       17.908       10.239      328.842      320.679      104.831        0.894        0.038      128.685        5.653        0.002      334.319        4.214      865.728
01/20/2015  21:59:00      -28.579      119.980      -20.674       19.659       14.350        8.108      386.478      205.927       65.734        0.815        0.033      123.337        7.354        0.004      334.303        4.187      865.759
01/20/2015  22:00:00      -16.616      106.208      -13.506       22.122       23.361       18.378      489.382      545.715      337.762        0.656        0.069      107.500       14.146        0.017      334.255        4.106      865.774
01/20/2015  22:01:00      -19.822       94.859      -11.112       24.335       36.794       13.393      592.195     1353.827      179.373        0.582        0.106       96.908       16.280        0.028      334.189        3.998      865.785
01/20/2015  22:02:00      -24.878      115.697      -15.122       18.387       27.556       12.643      338.070      759.351      159.842        0.775        0.063      118.341        8.318        0.005      334.300        4.182      865.793
01/20/2015  22:03:00      -33.458       90.180       -8.970       21.556       23.427       16.710      464.672      548.833      279.236        0.531        0.065       96.186       12.382        0.017      334.295        4.174      865.792
01/20/2015  22:04:00      -42.366       81.183      -15.409       28.259       26.569       12.374      798.560      705.902      153.105        0.514        0.083       91.573        7.847        0.007      334.362        4.285      865.805
01/20/2015  22:05:00      -47.129       59.183      -10.669       34.533       34.660       21.882     1192.548     1201.333      478.802        0.435        0.144       75.655       23.367        0.095      334.289        4.163      865.817
01/20/2015  22:06:00      -39.534      122.175      -16.439       37.705       41.274       14.104     1421.653     1703.571      198.933        1.004        0.166      128.412       18.256        0.020      334.306        4.192      865.841
01/20/2015  22:07:00      -25.333      139.632      -19.052       16.918       28.357       13.810      286.229      804.105      190.714        1.089        0.064      141.912        8.789        0.004      334.276        4.142      865.861
01/20/2015  22:08:00      -44.343       51.496       -3.514       23.041       32.903       17.470      530.908     1082.629      305.217        0.327        0.096       67.957       17.456        0.066      334.266        4.126      865.884
01/20/2015  22:09:00      -31.374      123.997      -17.191       34.697       48.871       19.639     1203.849     2388.368      385.695        1.032        0.199      127.904       23.898        0.035      334.282        4.151      865.896
01/20/2015  22:10:00      -32.102      160.277      -27.871       27.760       34.964       19.807      770.599     1222.479      392.321        1.494        0.119      163.461       17.568        0.012      334.243        4.086      865.910
01/20/2015  22:11:00      -20.925      142.522      -21.765       18.746       24.213       15.210      351.405      586.288      231.330        1.120        0.058      144.050       12.313        0.007      334.244        4.089      865.910
01/20/2015  22:12:00      -30.202      109.503      -11.081       19.054       31.483       16.911      363.041      991.164      285.969        0.733        0.082      113.591       13.015        0.013      334.195        4.006      865.911
01/20/2015  22:13:00      -21.942      136.339      -17.490       20.876       39.425       17.201      435.801     1554.368      295.882        1.083        0.114      138.093       18.921        0.019      334.230        4.065      865.920
01/20/2015  22:14:00      -31.328      130.681      -21.645       19.626       31.386       14.873      385.167      985.080      221.211        1.006        0.080      134.384       13.393        0.010      334.236        4.076      865.921
01/20/2015  22:15:00      -31.050      128.942      -22.649       28.155       16.826       15.331      792.686      283.114      235.050        0.971        0.066      132.628        7.169        0.003      334.290        4.166      865.926
01/20/2015  22:16:00      -48.410      129.238      -23.275       56.532       45.422       21.278     3195.844     2063.191      452.762        1.265        0.286      138.007       20.506        0.022      334.253        4.103      865.927
01/20/2015  22:17:00      -35.473      107.257      -12.270       39.000       42.862       23.997     1520.988     1837.109      575.842        0.842        0.197      112.971       20.652        0.033      334.213        4.038      865.930
01/20/2015  22:18:00      -40.437      124.781      -16.468       19.109       26.555       17.027      365.154      705.149      289.918        0.942        0.068      131.170       15.651        0.014      334.266        4.126      865.937
01/20/2015  22:19:00      -26.137      107.982      -15.454       16.544       20.741       14.468      273.713      430.183      209.327        0.675        0.046      111.100        8.852        0.006      334.210        4.032      865.949
01/20/2015  22:20:00      -32.365       66.763       -9.427       28.815       40.049       25.478      830.305     1603.958      649.135        0.434        0.154       74.194       23.852        0.103      334.177        3.978      865.967
01/20/2015  22:21:00      -38.969       64.670      -11.848       34.536       34.734       18.567     1192.721     1206.474      344.719        0.429        0.137       75.503       15.341        0.041      334.184        3.989      865.977
01/20/2015  22:22:00      -60.921       81.337      -10.715       36.347       39.092       23.089     1321.096     1528.192      533.119        0.691        0.169      101.622       26.758        0.069      334.152        3.936      865.996
01/20/2015  22:23:00      -14.019       44.031       -4.227       33.178       36.690       23.094     1100.769     1346.189      533.324        0.257        0.149       46.209       13.046        0.080      334.135        3.909      866.015
01/20/2015  22:24:00      -23.478      108.953      -12.729       32.029       33.772       17.394     1025.854     1140.582      302.562        0.753        0.123      111.454       14.036        0.016      334.172        3.969      866.031
01/20/2015  22:25:00      -25.662       74.475       -9.706       22.350       49.217       20.135      499.517     2422.276      405.429        0.481        0.166       78.772       18.275        0.054      334.187        3.993      866.041
01/20/2015  22:26:00      -50.297       24.904       -8.008       25.346       35.393       15.373      642.410     1252.685      236.335        0.267        0.107       56.125       18.235        0.106      334.146        3.926      866.056
01/20/2015  22:27:00      -38.485       32.216       -8.349       27.223       18.383       13.161      741.115      337.944      173.206        0.192        0.063       50.189        7.743        0.024      334.229        4.066      866.060
01/20/2015  22:28:00      -16.959       36.541       -5.349       38.668       23.584       17.676     1495.188      556.213      312.446        0.201        0.118       40.285       15.610        0.150      334.133        3.905      866.074
01/20/2015  22:29:00      -36.938       27.630       -3.326       13.963       13.729       10.852      194.978      188.494      117.773        0.132        0.025       46.128        6.390        0.019      334.077        3.813      866.085
01/20/2015  22:30:00      -34.169       -0.999       -0.241       17.112       14.339       12.354      292.814      205.604      152.619        0.091        0.033       34.183       11.886        0.121      333.974        3.641      866.103
01/20/2015  22:31:00       13.441       36.863        1.937       21.737       27.552       15.749      472.482      759.108      248.043        0.151        0.074       39.237       17.004        0.188      334.114        3.874      866.118
01/20/2015  22:32:00      -10.255       20.226        0.139       17.090       14.432        8.978      292.076      208.280       80.603        0.055        0.029       22.677        8.086        0.127      334.077        3.814      866.146
01/20/2015  22:33:00       27.405       16.519        5.619        5.393        7.970        8.634       29.084       63.519       74.547        0.061        0.008       31.999        3.790        0.014      334.085        3.826      866.169
01/20/2015  22:34:00        5.289        7.134        3.821       21.160       13.348       21.809      447.725      178.166      475.624        0.060        0.055        8.881        9.537        1.153      333.986        3.660      866.186
01/20/2015  22:35:00        1.709       25.464        2.934       14.733       19.201       16.657      217.056      368.684      277.451        0.076        0.043       25.521        7.873        0.095      333.962        3.622      866.189
01/20/2015  22:36:00       18.148        7.840        7.764        8.770       12.223       10.424       76.910      149.390      108.660        0.039        0.017       19.769        9.245        0.219      333.942        3.588      866.205
01/20/2015  22:37:00        1.598      -11.679        6.042       15.229       10.794        6.111      231.922      116.514       37.339        0.028        0.019       11.788        6.661        0.319      333.898        3.515      866.212
01/20/2015  22:38:00      -49.198      -16.044       -6.072       13.557       20.398       10.315      183.781      416.081      106.400        0.171        0.035       51.748       11.002        0.045      333.749        3.268      866.229
01/20/2015  22:39:00      -41.105      -14.558        2.485       18.439       24.976       16.212      340.000      623.814      262.833        0.157        0.061       43.606        9.214        0.045      333.640        3.087      866.231
01/20/2015  22:40:00      -35.751      -13.748        0.125       29.796       20.701       12.878      887.773      428.538      165.834        0.147        0.074       38.304        9.294        0.059      333.521        2.889      866.238
01/20/2015  22:41:00      -38.892      -11.678       -1.861       28.282       23.981       14.711      799.868      575.094      216.410        0.162        0.080       40.608        8.142        0.040      333.511        2.872      866.233
01/20/2015  22:42:00      -58.887       -6.961       -4.734       28.822       23.357       13.687      830.717      545.552      187.331        0.255        0.078       59.297        8.512        0.021      333.491        2.840      866.231
01/20/2015  22:43:00      -63.925       -6.933      -11.751       22.374       13.343       12.611      500.586      178.027      159.038        0.255        0.042       64.300       12.613        0.038      333.508        2.868      866.239
01/20/2015  22:44:00      -84.642      -16.622      -10.554       19.736       23.925       14.517      389.519      572.400      210.742        0.436        0.059       86.259        8.835        0.010      333.420        2.721      866.245
01/20/2015  22:45:00      -80.033      -12.507       -6.821       39.051       19.983       15.289     1524.948      399.315      233.740        0.438        0.108       81.004       19.479        0.058      333.444        2.761      866.258
01/20/2015  22:46:00      -47.133        2.115       -8.251       32.981       28.378       14.581     1087.723      805.310      212.593        0.220        0.105       47.180       12.323        0.068      333.601        3.023      866.275
01/20/2015  22:47:00      -50.984      -14.602        4.704       38.361       25.224       17.251     1471.532      636.271      297.588        0.262        0.120       53.034       17.748        0.112      333.571        2.972      866.285
01/20/2015  22:48:00      -41.616        0.759       -5.971       28.740       24.914       14.210      825.961      620.686      201.919        0.171        0.082       41.622       12.081        0.084      333.625        3.063      866.298
01/20/2015  22:49:00      -64.212       36.466      -15.528       29.772       38.179       16.726      886.348     1457.609      279.775        0.416        0.131       73.844       20.647        0.078      333.789        3.335      866.313
01/20/2015  22:50:00      -60.319       40.097      -16.002       19.904       20.745       15.385      396.173      430.345      236.696        0.328        0.053       72.431       10.904        0.023      333.949        3.600      866.318
01/20/2015  22:51:00      -38.726        3.461       -7.921       12.981       15.908       11.184      168.496      253.054      125.084        0.106        0.027       38.880        7.925        0.042      333.751        3.273      866.316
01/20/2015  22:52:00      -63.843       15.269      -13.537       19.572       27.847       18.286      383.077      775.443      334.382        0.299        0.075       65.643       13.612        0.043      333.795        3.346      866.310
01/20/2015  22:53:00      -65.071       26.134       -8.944       34.241       34.355       15.517     1172.472     1180.273      240.771        0.379        0.130       70.123       13.997        0.040      333.666        3.130      866.316
01/20/2015  22:54:00      -54.545       26.644      -18.122       22.266       19.928       11.997      495.770      397.107      143.921        0.252        0.052       60.705        9.285        0.023      333.647        3.098      866.326
01/20/2015  22:55:00      -46.487       21.763       -9.870       22.845       23.547       12.725      521.876      554.446      161.938        0.198        0.062       51.329        7.647        0.022      333.816        3.379      866.332
01/20/2015  22:56:00      -30.639        4.026       -0.862       17.627       12.321       12.897      310.716      151.800      166.341        0.079        0.031       30.902       13.263        0.184      333.679        3.152      866.348
01/20/2015  22:57:00      -53.544       20.109       -9.666       18.127       26.494       11.523      328.573      701.947      132.791        0.226        0.058       57.196        5.791        0.010      333.815        3.378      866.353
01/20/2015  22:58:00      -24.841        6.747       -9.045       21.010       20.934        9.544      441.423      438.243       91.084        0.086        0.049       25.741        8.617        0.112      333.663        3.125      866.356
01/20/2015  22:59:00      -41.222       38.873      -14.165       33.131       19.500       17.589     1097.646      380.248      309.356        0.260        0.089       56.660       15.343        0.073      333.935        3.576      866.361
01/20/2015  23:00:00       -7.473       31.176       -2.203       39.735       30.712       12.421     1578.884      943.218      154.290        0.185        0.134       32.059       13.177        0.169      333.882        3.488      866.363
01/20/2015  23:01:00      -37.519       -7.386      -10.177       16.549        8.388        8.267      273.860       70.361       68.344        0.099        0.021       38.239        7.189        0.035      333.633        3.076      866.376
01/20/2015  23:02:00      -36.600       -0.190       -7.600       10.539       15.735        6.976      111.065      247.605       48.669        0.090        0.020       36.601        5.963        0.027      333.725        3.228      866.392
01/20/2015  23:03:00      -26.259       11.534        0.765       15.071       21.595        8.905      227.138      466.342       79.294        0.080        0.039       28.680        7.358        0.066      333.782        3.324      866.398
01/20/2015  23:04:00        7.678       81.968      -13.757       14.116       27.472        9.939      199.257      754.695       98.791        0.401        0.053       82.327       11.386        0.019      334.055        3.774      866.403
01/20/2015  23:05:00       15.435       69.438      -13.638       15.058       16.309       13.303      226.757      265.991      176.976        0.296        0.033       71.132       10.604        0.022      334.014        3.707      866.409
01/20/2015  23:06:00      -31.994       36.153       -9.177       27.151       34.129       13.306      737.196     1164.773      177.049        0.225        0.104       48.277        5.129        0.011      333.917        3.547      866.413
01/20/2015  23:07:00       -9.992       64.001       -6.270       22.323       18.900       14.534      498.316      357.210      211.249        0.265        0.053       64.776       13.587        0.044      333.920        3.552      866.417
01/20/2015  23:08:00      -15.819       69.298      -10.552       17.195       15.083        9.084      295.658      227.495       82.513        0.288        0.030       71.080        6.778        0.009      333.936        3.579      866.429
01/20/2015  23:09:00      -21.015       47.604       -4.005       21.406       29.043        8.238      458.225      843.482       67.865        0.205        0.068       52.036        7.301        0.020      333.784        3.327      866.436
01/20/2015  23:10:00      -27.270       -8.394       -3.843       13.638       15.331       12.816      185.989      235.052      164.243        0.071        0.029       28.533        7.855        0.076      333.775        3.311      866.450
01/20/2015  23:11:00      -25.144        5.352        1.563       17.218       13.195       12.398      296.449      174.104      153.712        0.064        0.031       25.707       12.155        0.224      333.792        3.340      866.470
01/20/2015  23:12:00      -28.902       34.339      -10.176       21.147       18.847        9.231      447.210      355.218       85.211        0.150        0.044       44.883        8.016        0.032      333.856        3.445      866.482
01/20/2015  23:13:00      -21.301       30.611       -1.382       15.176       17.579        9.986      230.323      309.021       99.730        0.102        0.032       37.293        8.328        0.050      333.939        3.585      866.495
01/20/2015  23:14:00      -22.205       -0.698        6.218       11.347       15.209       13.841      128.753      231.326      191.583        0.054        0.028       22.216       12.702        0.327      333.799        3.350      866.505
01/20/2015  23:15:00       -9.750        6.404       -6.405       14.475       12.841        8.189      209.527      164.884       67.062        0.031        0.022       11.665        6.404        0.301      333.787        3.332      866.506
01/20/2015  23:16:00      -19.717       36.733       -4.715       18.900       30.874       11.811      357.218      953.232      139.495        0.160        0.072       41.691        8.509        0.042      333.910        3.535      866.503
01/20/2015  23:17:00      -33.948       42.718      -11.422       21.068       30.886       10.249      443.871      953.932      105.049        0.231        0.075       54.564       11.794        0.047      333.907        3.530      866.494
01/20/2015  23:18:00      -64.855       24.947       -5.022       18.422       21.712       16.786      339.371      471.400      281.786        0.297        0.055       69.488       14.443        0.043      333.955        3.609      866.478
01/20/2015  23:19:00      -44.739       -9.421       -6.072       14.310       12.471        8.533      204.782      155.537       72.808        0.128        0.022       45.720        4.257        0.009      333.563        2.959      866.469
01/20/2015  23:20:00      -45.505       -4.815       -8.423       15.880       18.822       11.469      252.170      354.286      131.533        0.145        0.037       45.759        8.616        0.035      333.509        2.870      866.464
01/20/2015  23:21:00      -57.047        2.910       -9.240       22.710       14.458       11.321      515.753      209.020      128.167        0.210        0.043       57.121        6.925        0.015      333.455        2.780      866.475
01/20/2015  23:22:00      -35.068       -1.996       -5.111       17.196       19.275       14.931      295.693      371.540      222.945        0.107        0.045       35.125        8.658        0.061      333.427        2.734      866.489
01/20/2015  23:23:00      -72.778        7.712      -14.680       26.463       26.477       12.316      700.274      701.021      151.689        0.356        0.078       73.186       15.110        0.043      333.639        3.086      866.492
01/20/2015  23:24:00      -72.074        6.719       -8.126       24.838       22.366       16.747      616.918      500.246      280.458        0.335        0.070       72.387       12.694        0.031      333.467        2.801      866.488
01/20/2015  23:25:00      -87.892        6.410      -11.882       25.700       24.843       17.038      660.465      617.190      290.291        0.474        0.078       88.126       12.750        0.021      333.416        2.716      866.479
01/20/2015  23:26:00      -80.438       55.623      -19.405       24.547       43.441       14.199      602.566     1887.117      201.610        0.632        0.135       97.797       15.841        0.026      333.568        2.968      866.473
01/20/2015  23:27:00      -99.016       96.876      -27.130       20.079       20.403       10.266      403.174      416.262      105.396        1.042        0.046      138.525        7.260        0.003      333.723        3.224      866.459
01/20/2015  23:28:00      -88.390       79.256      -24.517       26.594       19.975       11.768      707.254      399.019      138.485        0.797        0.062      118.719        7.879        0.004      333.732        3.240      866.450
01/20/2015  23:29:00      -49.920      114.208      -18.054       48.088       37.416       18.518     2312.482     1399.973      342.904        0.996        0.203      124.642       16.966        0.019      333.715        3.211      866.444
01/20/2015  23:30:00      -57.651       80.230      -19.067       33.371       34.933       16.865     1113.643     1220.289      284.433        0.637        0.131       98.796       11.037        0.012      333.694        3.175      866.446
01/20/2015  23:31:00      -79.122      113.115      -21.325       27.300       31.021       22.650      745.314      962.304      513.035        1.086        0.111      138.041       18.691        0.018      333.701        3.188      866.448
01/20/2015  23:32:00      -50.777       75.897      -10.292       33.994       30.034       17.381     1155.614      902.015      302.099        0.540        0.118       91.317       16.690        0.033      333.781        3.320      866.449
01/20/2015  23:33:00      -25.475      102.056       -6.597       28.321       56.545       24.496      802.070     3197.287      600.041        0.785        0.230      105.187       27.386        0.068      333.725        3.229      866.452
01/20/2015  23:34:00      -44.258       85.729       -7.713       29.194       49.539       20.345      852.291     2454.152      413.927        0.654        0.186       96.479       22.942        0.057      333.736        3.245      866.450
01/20/2015  23:35:00      -65.935       98.055       -9.711       35.013       32.146       18.375     1225.883     1033.341      337.649        0.833        0.130      118.161       15.027        0.016      333.868        3.465      866.445
01/20/2015  23:36:00      -69.298      108.913      -20.654       28.671       31.347       16.115      822.033      982.611      259.700        0.958        0.103      129.090       10.801        0.007      333.777        3.313      866.440
01/20/2015  23:37:00      -77.696       61.610      -17.193       20.031       34.708       18.517      401.240     1204.635      342.868        0.604        0.097       99.159       19.308        0.038      333.713        3.209      866.440
01/20/2015  23:38:00      -58.424       63.174      -13.808       34.372       20.971       14.411     1181.432      439.781      207.686        0.471        0.091       86.049       11.787        0.019      333.765        3.294      866.444
01/20/2015  23:39:00      -75.694       63.129      -15.520       20.391       32.876       17.783      415.781     1080.837      316.221        0.588        0.091       98.564       17.912        0.033      333.656        3.113      866.448
01/20/2015  23:40:00      -74.686       34.400      -12.900       11.377       26.395       12.559      129.436      696.717      157.721        0.396        0.049       82.228       14.744        0.032      333.723        3.225      866.445
01/20/2015  23:41:00      -62.155       30.070      -13.753       17.222       27.727       14.030      296.589      768.798      196.831        0.311        0.063       69.047       13.987        0.041      333.660        3.122      866.438
01/20/2015  23:42:00      -69.864       28.686      -16.924       21.817       27.153       14.813      476.002      737.308      219.421        0.371        0.072       75.524       15.635        0.043      333.643        3.092      866.433
01/20/2015  23:43:00      -56.451       41.611       -9.882       21.542       36.043       15.575      464.043     1299.113      242.592        0.351        0.100       70.130       21.146        0.091      333.687        3.166      866.423
01/20/2015  23:44:00      -24.328       34.340       -3.755       34.914       35.967       16.315     1218.997     1293.653      266.176        0.228        0.139       42.085       14.131        0.113      333.685        3.163      866.419
01/20/2015  23:45:00      -23.900       47.177       -5.160       18.104       20.286       16.906      327.763      411.523      285.803        0.192        0.051       52.886       14.347        0.074      333.711        3.205      866.415
01/20/2015  23:46:00      -17.680       90.106      -11.184       19.036       29.328       10.861      362.368      860.153      117.951        0.495        0.067       91.824        9.876        0.012      333.753        3.275      866.403
01/20/2015  23:47:00      -38.196       68.351      -10.977       23.543       43.996       17.048      554.283     1935.622      290.632        0.452        0.139       78.299       18.814        0.058      333.729        3.234      866.389
01/20/2015  23:48:00      -22.181      106.007      -16.689       18.106       32.358       17.639      327.841     1047.016      311.118        0.685        0.084      108.302       16.376        0.023      333.754        3.276      866.383
01/20/2015  23:49:00      -21.995       74.316      -10.380       16.898       30.529       15.033      285.529      932.009      225.978        0.378        0.072       77.502       11.450        0.022      333.790        3.336      866.376
01/20/2015  23:50:00      -23.980       68.577      -10.524       23.313       25.484       17.893      543.481      649.445      320.173        0.345        0.076       72.649        9.356        0.017      333.742        3.257      866.380
01/20/2015  23:51:00      -61.029       43.395      -10.780       22.853       28.452       15.122      522.261      809.520      228.676        0.364        0.078       74.884       13.839        0.034      333.649        3.102      866.374
01/20/2015  23:52:00      -59.930       22.987      -10.133       14.044       21.015       11.668      197.246      441.630      136.142        0.250        0.039       64.187        9.668        0.023      333.643        3.092      866.363
01/20/2015  23:53:00      -42.676        4.762      -11.729       13.765       22.620        7.674      189.485      511.674       58.898        0.137        0.038       42.940        5.280        0.015      333.542        2.926      866.364
01/20/2015  23:54:00      -35.216      -29.154      -11.634       19.339       14.413       10.370      373.994      207.731      107.540        0.146        0.034       45.718        5.529        0.015      333.540        2.921      866.360
01/20/2015  23:55:00      -12.942       -9.886        1.541       21.700       11.066       13.303      470.897      122.454      176.978        0.052        0.039       16.286       13.385        0.676      333.273        2.480      866.354
01/20/2015  23:56:00      -50.193      -13.301       -4.357       15.097       13.338       11.789      227.905      177.898      138.982        0.163        0.027       51.926        4.562        0.008      333.211        2.376      866.351
01/20/2015  23:57:00      -29.048       -4.258       -4.759       15.759        9.615        6.413      248.351       92.453       41.129        0.063        0.019       29.359        6.943        0.056      333.262        2.460      866.352
01/20/2015  23:58:00      -12.309       -5.441       -8.679        8.965        7.563        5.938       80.371       57.199       35.262        0.021        0.009       13.458        4.426        0.108      333.382        2.660      866.346
01/20/2015  23:59:00      -28.379       -9.855       -5.025       12.100       10.982        7.001      146.408      120.604       49.017        0.062        0.016       30.041        4.368        0.021      333.286        2.500      866.328
